     2              OBSERVATION DATA    GPS                 RINEX VERSION / TYPE
ASRINEXO V2.9.7 UX USGS/MENLO_PARK 19-APR-00 18:10          PGM / RUN BY / DATE
                                                            COMMENT
BIT 2 OF LLI (+4) FLAGS DATA COLLECTED UNDER "AS" CONDITION COMMENT
BIT 2 OF LLI (+4) FLAGS DATA COLLECTED UNDER "AS" CONDITION COMMENT
BIT 2 OF LLI (+4) FLAGS DATA COLLECTED UNDER "AS" CONDITION COMMENT
BIT 2 OF LLI (+4) FLAGS DATA COLLECTED UNDER "AS" CONDITION COMMENT
BIT 2 OF LLI (+4) FLAGS DATA COLLECTED UNDER "AS" CONDITION COMMENT
BIT 2 OF LLI (+4) FLAGS DATA COLLECTED UNDER "AS" CONDITION COMMENT
BIT 2 OF LLI (+4) FLAGS DATA COLLECTED UNDER "AS" CONDITION COMMENT
Original Marker Name: rh32 Red_Hill_1932_USC&GS             COMMENT
Campaign Name: Parkfield                                    COMMENT
4-Character Station Name: RH32                              COMMENT
6-Character Antenna Code: DMRCHT                            COMMENT
Vertical Measurement Point: BCR                             COMMENT
Vertical Offset to Rinex Ref. Point: 0.0348                 COMMENT
Radial Measurement Point: ECF                               COMMENT
Radial Offset to Rinex Ref. Point: 0.1897                   COMMENT
Antenna Height from Field Measurement: 1.4010 m             COMMENT
Additional Antenna Identification Info.:                    COMMENT
Turborogue and Ashtech Choke Ring                           COMMENT
Original XYZ: -2616848.0722 -4485245.7794 3693364.5777      COMMENT
New XYZ position is based on association with SCEC monument COMMENT
E1F1D7I9+0011. Position of that monument is believed to be  COMMENT
valid to within 1 m horizontally; vertical accuracy         COMMENT
should be no worse than 3-times this value.                 COMMENT
                                                            COMMENT
Revised Rinex header created by UCSD GPS archive for        COMMENT
GSAC on 08-Jul-2000 (2000:190) 02:07:37 GMT                 COMMENT
For assistance contact dagnew@ucsd.edu                      COMMENT
or anderson@python.ucsd.edu                                 COMMENT
                                                            COMMENT
REDHILL 1932                                                MARKER NAME
CHS US GEOLOGICAL SURVEY                                    OBSERVER / AGENCY
LP019992804 ASHTECH Z-XII3 CD00                             REC # / TYPE / VERS
CR619992801 DORNE-MARGOL. TYPE T                            ANT # / TYPE
 -2616550.6533 -4484767.4332  3693079.8275                  APPROX POSITION XYZ
        1.3533        0.0000        0.0000                  ANTENNA: DELTA H/E/N
     1     1     0                                          WAVELENGTH FACT L1/2
     5    C1    L1    L2    P1    P2                        # / TYPES OF OBSERV
    30                                                      INTERVAL
  2000     4    13    15    27    0.000000                  TIME OF FIRST OBS
  2000     4    13    23    58   30.000000                  TIME OF LAST OBS
                                                            END OF HEADER
 00  4 13 15 27  0.0000000  0  7 27 02 26 07 08 11 13
  22133709.507      237859.935 8    175141.83646  22133709.352    22133717.3744
  21248932.663      -12357.541 9     -8956.54747  21248931.771    21248938.0364
  22333752.977      -57067.543 8    -41402.97446  22333753.294    22333760.6944
  20729444.693    20729689.884                                    20729697.4214
  21410209.187      205935.614 9    149694.23447  21410208.071    21410214.9264
  24115018.343       45066.836 8     32831.21145  24115017.521    24115024.3604
  23775609.731      301955.654 8    221614.15445  23775610.158    23775620.2134
 00  4 13 15 27 30.0000000  0  7 27 02 26 07 08 11 13
  22044375.493     -231593.131 8   -190665.90246  22044375.487    22044383.5094
  21145823.910     -554197.517 9   -431169.52347  21145823.101    21145829.3634
  22228337.353     -611030.678 8   -473062.59546  22228337.612    22228345.0304
  20619752.854     -446708.62457                  20619752.183    20619758.7274
  21318976.848     -273493.110 9   -223886.67747  21318975.880    21318982.7224
  24015006.658     -480496.475 8   -376698.65645  24015006.287    24015013.3044
  23690707.149     -144210.437 8   -126048.00445  23690707.764    23690717.7224
 00  4 13 15 28  0.0000000  0  7 27 02 26 07 08 11 13
  22059621.842     -151474.735 8   -128236.13946  22059621.591    22059629.6294
  21147256.097     -546671.191 9   -425304.84447  21147255.300    21147261.5694
  22227531.386     -615266.703 8   -476363.42246  22227531.510    22227538.9504
  20614036.542     -759262.42219   -470116.19448  20614035.850    20614042.3474
  21332323.248     -203357.250 9   -169235.44947  21332322.400    21332329.2354
  24019600.013     -456357.981 8   -357889.46545  24019599.427    24019606.7714
  23710333.692      -41073.527 8    -45681.85545  23710334.087    23710344.0214
 00  4 13 15 28 30.0000000  0  7 27 02 26 07 08 11 13
  22074938.366      -70986.728 8    -65518.36346  22074938.078    22074946.1214
  21148722.930     -538962.971 9   -419298.42647  21148722.164    21148728.4194
  22226832.950     -618937.189 8   -479223.57646  22226833.063    22226840.4404
  20608417.991     -788788.105 9   -493123.19848  20608417.309    20608423.8104
  21345738.898     -132857.427 9   -114300.61447  21345738.123    21345744.9394
  24024286.435     -431729.878 7   -338698.77245  24024285.874    24024293.4274
  23729979.068       62162.990 8     34761.91445  23729979.427    23729989.4704
 00  4 13 15 29  0.0000000  0  7 27 02 26 07 08 11 13
  22090327.240        9881.622 8     -2504.22746  22090326.945    22090335.0094
  21150225.698     -531065.847 9   -413144.81647  21150224.944    21150231.2374
  22226250.772     -621997.167 8   -481608.01246  22226250.846    22226258.1834
  20602898.199     -817794.809 9   -515725.80348  20602897.521    20602904.0254
  21359227.227      -61976.096 9    -59068.49147  21359226.495    21359233.2834
  24029066.264     -406610.319 7   -319125.11845  24029065.804    24029073.4684
  23749643.074      165497.039 8    115281.68245  23749643.414    23749653.4814
 00  4 13 15 29 30.0000000  0  7 27 02 26 07 08 11 13
  22105787.614       91125.361 8     60802.42046  22105787.272    22105795.4024
  21151759.656     -523004.965 9   -406863.59647  21151758.912    21151765.2314
  22225783.911     -624451.050 8   -483520.16647  22225783.990    22225791.3024
  20597471.591     -846311.591 9   -537946.64748  20597470.928    20597477.4774
  21372787.921        9285.739 9     -3539.86747  21372787.237    21372794.0314
  24033940.207     -380997.476 7   -299167.09745  24033939.680    24033947.4534
  23769322.927      268913.960 8    195866.02245  23769323.180    23769333.1644
 00  4 13 15 30  0.0000000  0  7 27 02 26 07 08 11 13
  22121314.207      172717.381 8    124380.45146  22121313.873    22121321.9834
  21153323.159     -514788.854 9   -400461.43847  21153322.440    21153328.7204
  22225430.916     -626306.743 8   -484966.19647  22225430.984    22225438.2304
  20592134.323     -874359.292 9   -559801.97948  20592133.653    20592140.2064
  21386417.986       80911.829 9     52272.58447  21386417.341    21386424.1914
  24038908.659     -354887.699 7   -278821.85345  24038908.250    24038916.0784
  23789018.326      372412.568 8    276514.01245  23789018.505    23789028.4274
 00  4 13 15 30 30.0000000  0  7 27 02 26 07 08 11 13
  22136901.565      254628.802 8    188207.37246  22136901.232    22136909.3454
  21154914.210     -506428.099 9   -393946.56547  21154913.468    21154919.7384
  22225186.833     -627590.017 8   -485966.17847  22225186.853    22225194.0994
  20586879.422     -901974.042 9   -581319.94148  20586878.740    20586885.3264
  21400113.682      152882.929 9    108353.87647  21400113.030    21400119.9234
  24043971.292     -328283.356 7   -258091.24745  24043970.976    24043978.7494
  23808727.765      475985.107 8    357219.60645  23808727.881    23808737.8904
 00  4 13 15 31  0.0000000  0  7 27 02 26 07 08 11 13
  22152545.813      336839.285 8    252267.31946  22152545.452    22152553.5814
  21156529.732     -497938.650 9   -387331.40347  21156528.980    21156535.2354
  22225045.585     -628332.404 8   -486544.69647  22225045.591    22225052.8704
  20581704.042     -929170.621 9   -602512.05648  20581703.363    20581709.9554
  21413871.568      225180.922 9    164689.88647  21413870.936    21413877.8584
  24049128.534     -301181.845 7   -236973.20745  24049128.225    24049136.0614
  23828450.126      579625.725 8    437978.25045  23828450.247    23828460.3494
 00  4 13 15 31 30.0000000  0  7 27 02 26 07 08 11 13
  22168245.944      419343.720 8    316556.31846  22168245.613    22168253.7534
  21158168.506     -489326.452 9   -380620.59647  21158167.805    21158174.0524
  22225003.198     -628554.842 8   -486718.05747  22225003.230    22225010.5724
  20576607.261     -955954.368 9   -623382.49248  20576606.592    20576613.1584
  21427688.415      297788.780 8    221267.33747  21427687.820    21427694.7394
  24054379.786     -273586.867 7   -215470.66145  24054379.460    24054387.1464
  23848185.294      683334.005 8    518789.60145  23848185.464    23848195.6014
 00  4 13 15 32  0.0000000  0  7 27 02 26 07 08 11 13
  22184001.854      502140.714 8    381073.28146  22184001.525    22184009.6664
  21159830.931     -480590.316 9   -373813.21347  21159830.234    21159836.5164
  22225057.967     -628267.111 8   -486493.88347  22225057.993    22225065.3804
  20571593.322     -982302.770 9   -643913.69848  20571592.633    20571599.1744
  21441561.543      370692.330 9    278075.20347  21441560.956    21441567.8564
  24059724.911     -245497.905 7   -193583.21245  24059724.599    24059732.2454
  23867932.981      787107.898 8    599652.08845  23867933.184    23867943.3034
 00  4 13 15 32 30.0000000  0  7 27 02 26 07 08 11 13
  22199819.953      585264.663 8    445845.01946  22199819.634    22199827.7604
  21161514.407     -471743.619 9   -366919.69447  21161513.699    21161519.9644
  22225210.311     -627466.543 8   -485870.09347  22225210.347    22225217.7714
  20566665.780    -1008197.012 9   -664091.00748  20566665.084    20566671.5984
  21455494.145      443908.414 8    335126.60947  21455493.571    21455500.5014
  24065164.047     -216914.916 7   -171310.77345  24065163.684    24065171.3714
  23887693.969      890951.524 8    680568.91345  23887694.233    23887704.2944
 00  4 13 15 33  0.0000000  0  7 27 02 26 07 08 11 13
  22215707.081      668751.346 8    510899.39646  22215706.776    22215714.9124
  21163218.095     -462790.690 9   -359943.38347  21163217.409    21163223.6614
  22225461.260     -626147.777 8   -484842.51547  22225461.323    22225468.7624
  20561829.654    -1033610.882 9   -683894.00648  20561828.992    20561835.4974
  21469488.243      517447.791 8    392429.91847  21469487.673    21469494.6364
  24070696.951     -187839.073 7   -148654.30045  24070696.633    24070704.3164
  23907465.911      994852.454 8    761530.38345  23907466.095    23907476.2664
 00  4 13 15 33 30.0000000  0  7 27 02 26 07 08 11 13
  22231666.856      752619.804 8    576251.26246  22231666.567    22231674.7134
  21164943.605     -453723.192 9   -352877.79847  21164942.915    21164949.1914
  22225814.117     -624293.582 8   -483397.71747  22225814.199    22225821.6684
  20557088.448    -1058526.347 9   -703308.63748  20557087.764    20557094.2234
  21483547.375      591328.694 8    449999.35447  21483546.830    21483553.7994
  24076325.091     -158263.176 7   -125608.17445  24076324.707    24076332.5844
  23927248.667     1098810.385 8    842536.27045  23927248.840    23927259.0964
 00  4 13 15 34  0.0000000  0  7 27 02 26 07 08 11 13
  22247700.021      836874.146 8    641903.81246  22247699.758    22247707.9544
  21166692.855     -444530.704 9   -345714.80047  21166692.144    21166698.4464
  22226269.647     -621900.169 8   -481532.74647  22226269.694    22226277.2114
  20552443.401    -1082936.169 9   -722329.25748  20552442.710    20552449.1524
  21497677.037      665580.130 8    507857.51547  21497676.478    21497683.4414
  24082050.262     -128177.824 7   -102165.08945  24082049.793    24082057.7234
  23947041.675     1202821.960 8    923583.93745  23947041.808    23947052.1694
 00  4 13 15 34 30.0000000  0  7 27 02 26 07 08 11 13
  22263806.271      921512.434 8    707855.54146  22263805.948    22263814.2674
  21168468.229     -435200.905 9   -338444.80847  21168467.555    21168473.8594
  22226830.743     -618951.591 8   -479235.18147  22226830.815    22226838.3314
  20547893.938    -1106843.684 9   -740958.47148  20547893.269    20547899.7024
  21511881.293      740223.522 8    566021.09447  21511880.725    21511887.6934
  24087872.806      -97580.659 7    -78323.18245  24087872.293    24087880.1454
  23966842.955     1306876.742 8   1004665.26045  23966842.909    23966853.3824
 00  4 13 15 35  0.0000000  0  7 27 02 26 07 08 11 13
  22279982.482     1006518.240 8    774093.64946  22279982.169    22279990.5634
  21170273.779     -425712.801 9   -331051.48447  21170273.095    21170279.3974
  22227499.305     -615438.520 8   -476497.75347  22227499.372    22227506.8944
  20543438.444    -1130257.533 9   -759203.01948  20543437.754    20543444.1834
  21526161.792      815267.719 8    624496.98047  21526161.228    21526168.2054
  24093792.589      -66471.889 7    -54082.63345  24093792.085    24093799.9274
  23986651.319     1410968.850 8   1085775.68045  23986651.207    23986661.8134
 00  4 13 15 35 30.0000000  0  7 27 02 26 07 08 11 13
  22296223.552     1091865.203 8    840597.59946  22296223.215    22296231.7394
  21172110.219     -416062.368 9   -323531.67547  21172109.534    21172115.8114
  22228277.269     -611350.776 8   -473312.53247  22228277.324    22228284.8344
  20539070.728    -1153209.864 9   -777087.93848  20539070.048    20539076.4984
  21540517.314      890705.544 8    683279.58847  21540516.700    21540523.7034
  24099808.594      -34857.357 7    -29447.97845  24099808.169    24099816.0204
  24006468.165     1515106.062 8   1166921.23545  24006468.137    24006478.8304
 00  4 13 15 36  0.0000000  0  7 27 02 26 07 08 11 13
  22312525.783     1177533.583 8    907352.00446  22312525.450    22312534.0924
  21173975.480     -406260.383 9   -315893.77447  21173974.802    21173981.0644
  22229161.024     -606706.768 8   -469693.85447  22229161.072    22229168.5984
  20534785.881    -1175726.914 9   -794633.67148  20534785.224    20534791.6644
  21554944.711      966521.475 8    742356.83847  21554944.102    21554951.1284
  24105916.873       -2757.653 7     -4435.24545  24105916.511    24105924.4874
  24026292.305     1619281.516 8   1248096.59645  24026292.353    24026302.9824
 00  4 13 15 36 30.0000000  0  7 27 02 26 07 08 11 13
  22328885.173     1263501.978 8    974340.18446  22328884.824    22328893.5614
  21175869.027     -396309.907 9   -308140.15647  21175868.351    21175874.5924
  22230149.789     -601510.766 8   -465645.05847  22230149.808    22230157.3614
  20530581.634    -1197820.620 9   -811849.53248  20530580.964    20530587.4044
  21569439.579     1042692.323 8    801710.63147  21569439.008    21569446.0304
  24112114.680       29811.557 7     20943.31245  24112114.180    24112122.4234
  24046124.053     1723496.523 8   1329302.76445  24046124.074    24046134.6934
 00  4 13 15 37  0.0000000  0  7 27 02 26 07 08 11 13
  22345299.668     1349759.995 8   1041554.03546  22345299.301    22345308.1114
  21177787.768     -386227.119 9   -300283.43547  21177787.083    21177793.2944
  22231240.733     -595777.931 8   -461177.94747  22231240.782    22231248.3714
  20526456.152    -1219500.164 9   -828742.66648  20526455.481    20526461.9024
  21583997.755     1119195.577 8    861323.45947  21583997.180    21584004.2454
  24118399.335       62837.039 7     46677.42945  24118398.860    24118406.9614
  24065966.912     1827770.071 8   1410554.53245  24065966.977    24065977.6564
 00  4 13 15 37 30.0000000  0  7 27 02 26 07 08 11 13
  22361767.546     1436298.432 8   1108986.39346  22361767.180    22361776.0034
  21179729.464     -376023.571 9   -292332.63947  21179728.779    21179734.9624
  22232431.855     -589519.082 8   -456300.95447  22232431.907    22232439.4924
  20522409.118    -1240767.432 9   -845314.54948  20522408.442    20522414.8704
  21598615.380     1196011.286 8    921179.74347  21598614.830    21598621.9074
  24124769.646       96312.887 7     72762.46645  24124769.189    24124777.2974
  24085820.495     1932099.742 8   1491850.05345  24085820.542    24085831.2324
 00  4 13 15 38  0.0000000  0  7 27 02 26 07 08 11 13
  22378288.322     1523114.727 8   1176635.25846  22378287.953    22378296.7594
  21181693.363     -365703.425 9   -284290.99347  21181692.669    21181698.8454
  22233719.897     -582750.691 8   -451026.91447  22233719.916    22233727.5484
  20518444.953    -1261599.298 9   -861547.15648  20518444.287    20518450.6984
  21613294.378     1273149.360 8    981287.22447  21613293.818    21613300.9264
  24131227.004      130246.222 7     99203.98645  24131226.520    24131234.5844
  24105683.368     2036478.126 8   1573183.52045  24105683.423    24105694.1354
 00  4 13 15 38 30.0000000  0  7 27 02 26 07 08 11 13
  22394864.042     1610219.823 8   1244509.16446  22394863.658    22394872.4854
  21183680.296     -355261.943 9   -276154.80947  21183679.604    21183685.7674
  22235107.565     -575458.434 8   -445344.66547  22235107.605    22235115.2664
  20514569.377    -1281965.638 9   -877417.01748  20514568.700    20514575.1134
  21628035.602     1350614.759 8   1041649.75647  21628035.043    21628042.1944
  24137774.379      164652.454 7    126013.98045  24137773.897    24137782.0494
  24125555.323     2140904.485 8   1654554.36345  24125555.335    24125566.0444
 00  4 13 15 39  0.0000000  0  7 27 02 26 07 08 11 13
  22411500.683     1697645.064 8   1312632.53246  22411500.321    22411509.1314
  21185691.346     -344693.925 9   -267920.02447  21185690.661    21185696.8514
  22236596.683     -567633.091 8   -439247.02847  22236596.694    22236604.3864
  20510786.388    -1301845.228 9   -892907.59448  20510785.709    20510792.1194
  21642839.967     1428411.775 8   1102270.69847  21642839.404    21642846.5954
  24144413.336      199540.272 7    153199.24845  24144412.880    24144421.1074
  24145435.193     2245372.643 8   1735957.76645  24145435.243    24145446.0234
 00  4 13 15 39 30.0000000  0  7 27 02 26 07 08 11 13
  22428201.489     1785407.259 8   1381018.46146  22428201.119    22428209.9274
  21187731.358     -333973.711 9   -259566.63947  21187730.689    21187736.8984
  22238188.616     -559267.569 8   -432728.47047  22238188.632    22238196.2854
  20507098.104    -1321227.366 9   -908010.54448  20507097.402    20507103.8114
  21657711.095     1506559.684 8   1163165.06247  21657710.529    21657717.7554
  24151146.524      234922.865 7    180770.05445  24151145.939    24151154.2194
  24165319.143     2349862.093 8   1817377.77045  24165319.257    24165330.0424
 00  4 13 15 40  0.0000000  0  7 27 02 26 07 08 11 13
  22444969.141     1873521.111 8   1449678.39746  22444968.801    22444977.6094
  21189801.766     -323093.655 9   -251088.67747  21189801.106    21189807.3364
  22239884.974     -550353.638 8   -425782.58747  22239884.978    22239892.5814
  20503508.549    -1340090.623 9   -922709.16948  20503507.847    20503514.2564
  21672651.044     1585069.205 8   1224341.21047  21672650.496    21672657.7474
  24157975.893      270811.301 7    208735.02145  24157975.311    24157983.6414
  24185206.928     2454371.655 8   1898813.44445  24185207.158    24185217.9774
 00  4 13 15 40 30.0000000  0  7 27 02 26 07 08 11 13
  22461807.934     1962008.769 8   1518629.61746  22461807.634    22461816.4154
  21191905.189     -312040.233 9   -242475.62547  21191904.530    21191910.7754
  22241688.374     -540877.106 8   -418398.31947  22241688.379    22241695.9424
  20500019.074    -1358427.714 9   -936997.79748  20500018.363    20500024.7974
  21687658.981     1663936.174 8   1285795.88547  21687658.456    21687665.7514
  24164902.020      307208.613 7    237096.54445  24164901.586    24164909.8924
  24205099.942     2558908.408 8   1980270.30645  24205100.187    24205110.9654
 00  4 13 15 41  0.0000000  0  7 27 02 26 07 08 11 13
  22478717.644     2050869.214 8   1587871.32246  22478717.347    22478726.1754
  21194042.850     -300806.909 9   -233722.38647  21194042.190    21194048.4384
  22243598.165     -530841.365 8   -410578.29647  22243598.177    22243605.7384
  20496626.159    -1376257.798 9   -950891.35348  20496625.461    20496631.8724
  21702736.727     1743169.772 8   1347536.24847  21702736.178    21702743.5744
  24171927.424      344126.750 7    265863.89245  24171927.023    24171935.2384
  24224997.242     2663467.732 8   2061744.74745  24224997.553    24225008.2524
 00  4 13 15 41 30.0000000  0  7 27 02 26 07 08 11 13
  22495693.770     2140078.203 8   1657384.60746  22495693.455    22495702.2824
  21196212.663     -289404.668 9   -224837.52747  21196211.978    21196218.2264
  22245612.826     -520254.301 8   -402328.67247  22245612.813    22245620.4094
  20493325.792    -1393601.387 9   -964405.82448  20493325.096    20493331.4954
  21717885.247     1822775.265 8   1409566.40047  21717884.711    21717892.1584
  24179052.944      381570.869 7    295041.09645  24179052.500    24179060.6244
  24244898.452     2768047.863 8   2143235.40545  24244898.745    24244909.6154
 00  4 13 15 42  0.0000000  0  7 27 02 26 07 08 11 13
  22512733.612     2229621.860 8   1727158.67146  22512733.228    22512742.0524
  21198411.138     -277851.455 9   -215835.01947  21198410.446    21198416.7064
  22247730.810     -509124.296 8   -393655.98847  22247730.806    22247738.3564
  20490115.253    -1410472.914 9   -977552.45448  20490114.549    20490120.9494
  21733100.797     1902732.852 8   1471870.90147  21733100.248    21733107.7274
  24186276.456      419530.458 7    324619.94845  24186276.069    24186284.1904
  24264803.911     2872650.550 8   2224743.63345  24264804.195    24264815.1904
 00  4 13 15 42 30.0000000  0  8 27 02 26 07 08 09 11 13
  22529829.730     2319461.688 8   1797163.52146  22529829.363    22529838.2414
  21200633.235     -266174.225 9   -206735.85347  21200632.548    21200638.8474
  22249946.937     -497478.540 8   -384581.41947  22249946.912    22249954.4944
  20486983.789    -1426928.559 9   -990375.01748  20486983.097    20486989.4794
  21748376.970     1983009.140 8   1534423.73947  21748376.412    21748383.9424
  24465873.155    -1475267.718 7  -1122753.31045  24465873.049    24465883.9304
  24193591.390      457970.640 7    354573.28145  24193591.066    24193599.2364
  24284708.875     2977250.354 8   2306249.60445  24284709.075    24284720.1164
 00  4 13 15 43  0.0000000  0  8 27 02 26 07 08 09 11 13
  22546981.666     2409595.004 8   1867397.06246  22546981.309    22546990.2544
  21202879.301     -254371.214 9   -197538.68447  21202878.613    21202884.8934
  22252261.724     -485314.842 8   -375103.24747  22252261.689    22252269.2564
  20483928.636    -1442983.492 9  -1002885.33548  20483927.942    20483934.3444
  21763714.339     2063606.877 8   1597227.05747  21763713.784    21763721.3234
  24446799.288    -1575502.069 7  -1200858.06145  24446799.214    24446809.9854
  24200997.326      496889.198 7    384899.36045  24200996.999    24201005.2444
  24304613.830     3081849.894 8   2387755.36545  24304613.876    24304625.2074
 00  4 13 15 43 30.0000000  0  8 27 02 26 07 08 09 11 13
  22564189.068     2500019.994 8   1937857.86346  22564188.747    22564197.7614
  21205148.068     -242448.795 9   -188248.50047  21205147.392    21205153.6684
  22254674.454     -472635.715 8   -365223.44947  22254674.419    22254682.0704
  20480951.806    -1458626.902 9  -1015074.99048  20480951.103    20480957.4924
  21779109.053     2144505.882 8   1660265.12447  21779108.487    21779116.0164
  24427732.804    -1675697.397 7  -1278932.39845  24427732.532    24427743.5854
  24208487.327      536249.169 7    415569.42045  24208486.953    24208495.2744
  24324518.520     3186448.306 8   2469260.24945  24324518.605    24324529.9144
 00  4 13 15 44  0.0000000  0  8 27 02 26 07 08 09 11 13
  22581453.416     2590743.905 8   2008551.59146  22581453.105    22581462.2324
  21207441.675     -230395.908 9   -178856.64347  21207440.984    21207447.2714
  22257187.456     -459429.538 8   -354932.96947  22257187.460    22257195.2024
  20478056.506    -1473841.769 9  -1026930.71348  20478055.797    20478062.1804
  21794559.360     2225697.185 8   1723530.94947  21794558.790    21794566.3144
  24408670.362    -1775871.198 7  -1356989.96845  24408670.009    24408681.1364
  24216060.738      576047.142 7    446580.77845  24216060.359    24216068.6574
  24344423.194     3291046.708 8   2550765.13845  24344423.306    24344434.7074
 00  4 13 15 44 30.0000000  0  9 27 02 26 04 07 08 09 11 13
  22598773.780     2681762.412 8   2079474.88746  22598773.454    22598782.7434
  21209758.715     -218219.636 9   -169368.63347  21209758.030    21209764.3334
  22259798.506     -445708.487 8   -344241.29147  22259798.512    22259806.2764
  24306880.826    -1044756.495 7   -792803.94045  24306881.137    24306897.4234
  20475242.781    -1488627.919 9  -1038452.36748  20475242.105    20475248.4804
  21810066.776     2307188.559 8   1787030.60147  21810066.215    21810073.7344
  24389608.361    -1876042.734 7  -1435045.77745  24389608.155    24389619.1694
  24223714.594      616267.932 7    477921.60145  24223714.282    24223722.3414
  24364326.222     3395636.230 8   2632263.09545  24364326.317    24364337.7214
 00  4 13 15 45  0.0000000  0  9 27 02 26 04 07 08 09 11 13
  22616156.434     2773108.187 8   2150653.15846  22616156.090    22616165.5074
  21212104.393     -205892.978 9   -159763.47147  21212103.706    21212110.0154
  22262510.606     -431456.833 8   -333136.15747  22262510.595    22262518.3644
  24287244.086    -1147947.917 7   -873212.60545  24287244.171    24287260.5214
  20472520.511    -1502933.756 9  -1049599.75448  20472519.809    20472526.1464
  21825637.039     2389010.354 8   1850787.72447  21825636.486    21825644.0124
  24370550.668    -1976191.748 7  -1513084.03145  24370550.459    24370561.6374
  24231453.941      656938.020 7    509612.52845  24231453.604    24231461.5504
  24384231.059     3500235.343 7   2713768.52245  24384231.018    24384242.5964
 00  4 13 15 45 30.0000000  0  9 27 02 26 04 07 08 09 11 13
  22633601.181     2864780.495 8   2222085.88246  22633600.824    22633610.3904
  21214482.159     -193397.868 9   -150027.03547  21214481.470    21214487.7864
  22265326.340     -416660.503 8   -321606.60747  22265326.355    22265334.0294
  24267590.401    -1251227.492 7   -953689.94645  24267590.527    24267606.8614
  20469896.998    -1516720.469 9  -1060342.62848  20469896.276    20469902.6024
  21841272.756     2471176.039 8   1914812.80947  21841272.202    21841279.7354
  24351499.722    -2076304.877 7  -1591094.29645  24351499.597    24351510.9214
  24239282.502      698077.265 7    541669.05945  24239282.164    24239290.2254
  24404139.951     3604855.933 8   2795290.68845  24404139.886    24404151.5554
 00  4 13 15 46  0.0000000  0  9 27 02 26 04 07 08 09 11 13
  22651107.845     2956777.831 8   2293771.90546  22651107.454    22651117.1884
  21216893.821     -180724.413 9   -140151.62047  21216893.141    21216899.4784
  22268246.846     -401313.344 8   -309647.82647  22268246.853    22268254.4764
  24247926.007    -1354563.556 7  -1034211.30445  24247926.000    24247942.5804
  20467371.395    -1529992.549 9  -1070684.48748  20467370.694    20467377.0244
  21856977.564     2553704.867 8   1979120.85547  21856976.999    21856984.5634
  24332461.401    -2176351.804 7  -1669052.98345  24332461.247    24332472.7104
  24247207.239      739721.852 7    574119.33345  24247206.858    24247214.9264
  24424054.481     3709506.075 8   2876835.88245  24424054.398    24424066.2924
 00  4 13 15 46 30.0000000  0  9 27 02 26 04 07 08 09 11 13
  22668674.428     3049089.655 8   2365702.95846  22668673.983    22668683.8284
  21219338.233     -167879.090 9   -130142.28847  21219337.538    21219343.8514
  22271269.359     -385430.095 8   -297271.32747  22271269.381    22271276.9334
  24228255.054    -1457934.329 7  -1114759.73245  24228255.029    24228271.4774
  20464942.526    -1542756.320 9  -1080630.26848  20464941.816    20464948.1304
  21872751.676     2636598.027 8   2043712.79247  21872751.109    21872758.7044
  24313440.211    -2276308.732 7  -1746941.53545  24313440.075    24313451.5394
  24255227.449      781868.133 7    606960.57145  24255227.045    24255235.1544
  24443972.731     3814175.885 8   2958396.38645  24443972.749    24443984.7134
 00  4 13 15 47  0.0000000  0  9 27 02 26 04 07 08 09 11 13
  22686295.926     3141690.436 8   2437859.15946  22686295.474    22686305.4434
  21221814.119     -154868.154 9   -120003.90647  21221813.444    21221819.7504
  22274395.644     -369001.733 8   -284470.05947  22274395.676    22274403.1994
  24208579.399    -1561329.416 7  -1195327.09044  24208579.531    24208595.7344
  20462608.958    -1555019.186 9  -1090185.73148  20462608.261    20462614.5794
  21888591.145     2719834.475 8   2108572.22647  21888590.564    21888598.1774
  24294438.511    -2376163.333 7  -1824750.35245  24294438.390    24294449.7244
  24263345.653      824529.612 7    640203.25245  24263345.276    24263353.4594
  24463891.568     3918848.368 8   3039958.99645  24463891.649    24463903.5534
 00  4 13 15 47 30.0000000  0  9 27 02 26 04 07 08 09 11 13
  22703970.398     3234569.459 8   2510232.15246  22703969.948    22703979.9914
  21224319.803     -141701.103 9   -109743.87447  21224319.120    21224325.4034
  22277625.582     -352028.980 8   -271244.59547  22277625.620    22277633.1314
  24188900.703    -1664740.242 7  -1275906.68145  24188900.554    24188917.0644
  20460365.697    -1566807.515 9  -1099371.42848  20460365.024    20460371.3394
  21904493.798     2803403.078 8   2173690.48246  21904493.215    21904500.8604
  24275456.107    -2475916.487 7  -1902480.13845  24275455.982    24275467.0074
  24271560.533      867699.343 7    673841.96645  24271560.189    24271568.4664
  24483809.626     4023516.726 8   3121518.37145  24483809.621    24483821.6884
 00  4 13 15 48  0.0000000  0  9 27 02 26 04 07 08 09 11 13
  22721698.158     3327728.138 8   2582823.05846  22721697.715    22721707.7824
  21226851.971     -128394.652 9    -99375.20847  21226851.277    21226857.5474
  22280957.274     -334521.551 8   -257602.50047  22280957.284    22280964.8354
  24169217.415    -1768175.140 7  -1356505.07245  24169217.209    24169233.7314
  20458206.627    -1578153.525 9  -1108212.45848  20458205.939    20458212.2634
  21920457.646     2887293.254 8   2239059.31046  21920457.053    21920464.7884
  24256490.646    -2575580.845 7  -1980140.71845  24256490.541    24256501.5414
  24279870.749      911369.553 7    707870.66645  24279870.386    24279878.6524
  24503722.656     4128159.076 7   3203057.48145  24503722.666    24503734.8674
 00  4 13 15 48 30.0000000  0  9 27 02 26 04 07 08 09 11 13
  22739479.144     3421166.339 8   2655631.78446  22739478.686    22739488.7414
  21229409.166     -114956.602 9    -88903.99447  21229408.466    21229414.7344
  22284389.482     -316485.367 8   -243548.38547  22284389.498    22284397.1094
  24149523.447    -1871666.016 7  -1437147.06745  24149523.173    24149539.5784
  20456129.610    -1589068.256 9  -1116717.43448  20456128.917    20456135.2274
  21936480.550     2971493.760 8   2304669.94346  21936479.961    21936487.7624
  24237539.249    -2675171.408 7  -2057743.78245  24237539.051    24237550.1904
  24288272.237      955519.454 7    742273.16245  24288271.940    24288280.0304
  24523627.439     4232757.808 8   3284562.60045  24523627.495    24523639.7484
 00  4 13 15 49  0.0000000  0  9 27 02 26 04 07 08 09 11 13
  22757314.982     3514892.763 8   2728665.10346  22757314.499    22757324.5774
  21231992.767     -101379.458 9    -78324.38247  21231992.058    21231998.3294
  22287920.244     -297931.246 8   -229090.68547  22287920.254    22287927.9224
  24129815.674    -1975229.472 7  -1517845.59745  24129815.607    24129831.9874
  20454131.422    -1599568.842 9  -1124899.69548  20454130.730    20454137.0174
  21952560.368     3055993.675 8   2370513.88846  21952559.799    21952567.6644
  24218599.845    -2774698.808 7  -2135297.63345  24218599.602    24218610.8484
  24296763.055     1000139.103 7    777041.67445  24296762.791    24296770.9644
  24543522.843     4337307.193 8   3366029.25745  24543522.832    24543535.2454
 00  4 13 15 49 30.0000000  0  9 27 02 26 04 07 08 09 11 13
  22775209.305     3608926.936 8   2801938.21946  22775208.830    22775218.9294
  21234603.809      -87658.095 9    -67632.41147  21234603.120    21234609.4054
  22291545.316     -278881.288 8   -214246.61147  22291545.324    22291553.0824
  24110093.933    -2078866.050 7  -1598601.09945  24110093.900    24110110.4084
  20452211.809    -1609656.521 9  -1132760.20948  20452211.129    20452217.3904
  21968697.228     3140792.910 8   2436591.05946  21968696.678    21968704.5744
  24199672.081    -2874165.764 7  -2212804.35445  24199671.815    24199682.9644
  24305340.035     1045211.233 7    812162.74045  24305339.744    24305347.9964
  24563407.759     4441801.583 8   3447453.06445  24563407.656    24563420.2844
 00  4 13 15 50  0.0000000  0  9 27 02 26 04 07 08 09 11 13
  22793161.420     3703264.636 8   2875447.82546  22793160.943    22793171.0824
  21237242.529      -73791.604 9    -56827.36147  21237241.833    21237248.1114
  22295264.136     -259338.829 8   -199018.77147  22295264.180    22295271.9354
  24090359.911    -2182568.255 7  -1679407.74645  24090359.881    24090376.4724
  20450371.468    -1619327.626 9  -1140296.12048  20450370.773    20450377.0154
  21984891.586     3225894.257 8   2502903.64446  21984891.046    21984898.9664
  24180757.479    -2973563.601 7  -2290257.22045  24180757.200    24180768.3284
  24314002.352     1090731.790 7    847633.24845  24314001.917    24314010.1854
  24583281.017     4546234.894 8   3528829.28745  24583280.958    24583293.7604
 00  4 13 15 50 30.0000000  0  9 27 02 26 04 07 08 09 11 13
  22811171.325     3797906.293 8   2949194.26946  22811170.874    22811181.1044
  21239909.583      -59776.297 9    -45906.33147  21239908.887    21239915.1614
  22299075.095     -239312.489 8   -183413.87847  22299075.111    22299082.8414
  24070614.970    -2286328.010 7  -1760259.22845  24070614.990    24070631.4524
  20448612.623    -1628570.397 9  -1147498.26148  20448611.931    20448618.1584
  22001143.879     3311299.948 8   2569453.37046  22001143.365    22001151.2794
  24161855.933    -3072891.927 7  -2367655.89145  24161855.655    24161866.6694
  24322747.803     1136689.296 7    883444.24045  24322747.343    24322755.5704
  24603143.957     4650614.463 7   3610163.61545  24603143.897    24603157.0524
 00  4 13 15 51  0.0000000  0  9 27 02 26 04 07 08 09 11 13
  22829240.912     3892861.426 8   3023184.98446  22829240.465    22829250.7544
  21242604.207      -45615.991 9    -34872.31847  21242603.521    21242609.8204
  22302978.062     -218802.562 8   -167432.17647  22302978.070    22302985.8064
  24050863.427    -2390122.068 7  -1841137.42745  24050863.475    24050879.8654
  20446940.784    -1637355.897 9  -1154344.09348  20446940.078    20446946.3254
  22017454.415     3397011.880 8   2636241.72246  22017453.904    22017461.8164
  24142967.020    -3172154.200 7  -2445003.10745  24142966.712    24142977.7684
  24331577.575     1183089.860 7    919600.47745  24331577.090    24331585.2984
  24622997.062     4754941.995 7   3691457.38145  24622997.054    24623010.4034
 00  4 13 15 51 30.0000000  0  9 27 02 26 04 07 08 09 11 13
  22847370.196     3988130.039 8   3097419.98146  22847369.745    22847380.1024
  21245323.935      -31323.683 9    -23735.46047  21245323.249    21245329.5514
  22306979.928     -197772.870 8   -151045.46247  22306979.929    22306987.6584
  24031109.116    -2493930.641 7  -1922026.95145  24031109.110    24031125.5564
  20445359.953    -1645662.860 9  -1160817.03548  20445359.272    20445365.5254
  22033826.612     3483047.453 8   2703282.26446  22033826.099    22033834.0204
  24124089.720    -3271355.364 8  -2522302.67045  24124089.410    24124100.3794
  24340492.897     1229939.603 7    956106.70945  24340492.517    24340500.6184
  24642842.741     4859230.750 7   3772720.93645  24642842.665    24642856.2724
 00  4 13 15 52  0.0000000  0  9 27 02 26 04 07 08 09 11 13
  22865558.898     4083711.137 8   3171898.47546  22865558.503    22865568.8624
  21248067.795      -16904.445 9    -12499.68547  21248067.109    21248073.4074
  22311084.869     -176201.510 8   -134236.66746  22311084.887    22311092.6214
  24011352.934    -2597748.980 7  -2002924.05445  24011352.977    24011369.3544
  20443870.474    -1653490.237 9  -1166916.27448  20443869.793    20443876.0594
  22050261.927     3569414.663 8   2770581.22546  22050261.391    22050269.3404
  24105225.306    -3370488.757 8  -2599549.42545  24105224.930    24105235.9544
  24349494.608     1277243.681 7    992967.00345  24349494.136    24349502.3174
  24662683.608     4963493.934 7   3853964.55345  24662683.508    24662697.2934
 00  4 13 15 52 30.0000000  0  9 27 02 26 04 07 08 09 11 13
  22883806.849     4179603.569 8   3246619.59346  22883806.420    22883816.8604
  21250836.033       -2357.133 9     -1164.13147  21250835.373    21250841.6484
  22315292.595     -154089.959 8   -117006.95146  22315292.624    22315300.3664
  23991593.458    -2701585.022 7  -2083834.94145  23991593.486    23991609.7344
  20442473.900    -1660829.282 9  -1172634.99548  20442473.200    20442479.4724
  22066758.495     3656103.786 8   2838131.02946  22066757.961    22066765.9344
  24086375.148    -3469547.368 8  -2676737.90845  24086374.829    24086385.8554
  24358584.207     1325009.924 7   1030187.40245  24358583.773    24358592.0114
  24682520.248     5067734.787 7   3935190.77745  24682520.126    24682534.1044
 00  4 13 15 53  0.0000000  0  9 27 02 26 04 07 08 09 11 13
  22902111.373     4275793.366 8   3321572.41446  22902110.958    22902121.4314
  21253629.270       12321.307 9     10273.58747  21253628.609    21253634.8794
  22319605.290     -131426.707 8    -99347.33746  22319605.309    22319613.0654
  23971831.337    -2805434.592 7  -2164756.39145  23971831.417    23971847.5924
  20441168.988    -1667686.493 9  -1177978.26248  20441168.284    20441174.5574
  22083315.881     3743112.825 8   2905930.11346  22083315.349    22083323.3674
  24067543.609    -3568508.336 8  -2753850.29245  24067543.296    24067554.1764
  24367763.160     1373245.167 8   1067773.26645  24367762.799    24367770.9334
  24702351.250     5171946.081 7   4016393.96445  24702351.208    24702365.3134
 00  4 13 15 53 30.0000000  0  9 27 02 26 04 07 08 09 11 13
  22920466.173     4372247.326 8   3396731.07246  22920465.751    22920476.2574
  21256451.795       27153.567 9     21831.17747  21256451.125    21256457.3994
  22324021.383     -108220.141 8    -81264.35646  22324021.412    22324029.1614
  23952066.892    -2909296.104 7  -2245687.12445  23952067.009    23952083.1184
  20439949.381    -1674095.624 9  -1182972.37048  20439948.688    20439954.9434
  22099933.574     3830438.711 8   2973976.09246  22099933.054    22099941.1004
  24048732.867    -3667359.503 7  -2830877.10045  24048732.499    24048743.3804
  24377027.946     1421931.666 7   1105710.75545  24377027.465    24377035.8944
  24722177.302     5276131.100 7   4097576.67445  24722177.352    24722191.5404
 00  4 13 15 54  0.0000000  0  9 27 02 26 04 07 08 09 11 13
  22938868.167     4468949.259 8   3472082.94546  22938867.772    22938878.3134
  21259304.797       42145.933 9     33513.53247  21259304.120    21259310.3954
  22328533.654      -84508.370 8    -62787.71546  22328533.678    22328541.4164
  23932296.861    -3013187.314 7  -2326641.01845  23932296.986    23932312.9334
  20438813.454    -1680065.106 9  -1187623.89948  20438812.754    20438818.9754
  22116609.724     3918071.900 8   3042261.52746  22116609.220    22116617.3004
  24029944.876    -3766091.441 7  -2907811.00145  24029944.496    24029955.2914
  24386379.001     1471071.752 8   1144001.70045  24386378.511    24386387.0274
  24741996.128     5380277.935 7   4178729.64645  24741996.201    24742010.4154
 00  4 13 15 54 30.0000000  0  9 27 02 26 04 07 08 09 11 13
  22957314.654     4565884.785 8   3547616.84646  22957314.262    22957324.7694
  21262189.692       57306.187 9     45326.72647  21262189.023    21262195.3334
  22333139.907      -60302.671 8    -43926.18746  22333139.909    22333147.6494
  23912521.982    -3117103.987 7  -2407614.74345  23912522.196    23912537.9284
  20437762.823    -1685586.383 9  -1191926.17448  20437762.132    20437768.3324
  22133344.551     4006013.074 8   3110786.94846  22133344.065    22133352.1434
  24011177.816    -3864712.900 7  -2984658.81345  24011177.478    24011188.2734
  24395815.735     1520661.725 8   1182643.18845  24395815.228    24395823.7954
  24761806.044     5484378.188 7   4259846.29145  24761806.009    24761820.4224
 00  4 13 15 55  0.0000000  0  9 27 02 26 04 07 08 09 11 13
  22975806.905     4663061.152 8   3623338.38746  22975806.519    22975817.0014
  21265107.473       72639.250 9     57274.57247  21265106.813    21265113.1204
  22337840.728      -35599.707 8    -24677.18846  22337840.735    22337848.5694
  23892746.282    -3221025.053 7  -2488591.88845  23892746.426    23892762.0304
  20436795.758    -1690668.428 9  -1195886.19148  20436795.051    20436801.2604
  22150141.509     4094280.896 8   3179566.89946  22150140.996    22150149.1184
  23992429.196    -3963237.601 7  -3061431.23245  23992428.847    23992439.5804
  24405337.568     1570698.998 8   1221633.23845  24405337.016    24405345.6144
  24781607.835     5588435.486 7   4340929.48444  24781607.819    24781622.3434
 00  4 13 15 55 30.0000000  0  9 27 02 26 04 07 08 09 11 13
  22994348.481     4760496.428 8   3699261.68146  22994348.104    22994358.5684
  21268056.761       88137.674 9     69351.25747  21268056.071    21268062.3764
  22342634.289      -10409.470 8     -5048.49946  22342634.316    22342642.2234
  23872969.983    -3324949.079 7  -2569571.35845  23872970.207    23872985.4604
  20435913.857    -1695302.753 9  -1199497.34048  20435913.152    20435919.3714
  22166999.220     4182867.885 8   3248595.54946  22166998.676    22167006.8554
  23973696.356    -4061679.036 7  -3138138.77845  23973696.016    23973706.7214
  24414945.945     1621190.917 8   1260977.54845  24414945.415    24414953.9564
  24801401.972     5692452.741 7   4421981.47644  24801402.174    24801416.3574
 00  4 13 15 56  0.0000000  0  9 27 02 26 04 07 08 09 11 13
  23012945.053     4858220.808 8   3775410.22346  23012944.680    23012955.1834
  21271032.905      103777.508 9     81538.13247  21271032.231    21271038.5274
  22347522.373       15277.207 8     14967.02746  22347522.382    22347530.3004
  23853192.763    -3428877.788 7  -2650554.48145  23853192.948    23853208.2604
  20435121.141    -1699468.157 9  -1202743.09348  20435120.450    20435126.6774
  22183915.228     4271761.640 8   3317863.23846  22183914.695    22183922.9124
  23954980.178    -4160032.503 7  -3214777.78845  23954979.932    23954990.5784
  24424644.849     1672158.864 8   1300692.81245  24424644.301    24424652.9234
  24821187.379     5796423.444 7   4502997.15144  24821187.668    24821201.5114
 00  4 13 15 56 30.0000000  0  9 27 02 26 04 07 08 09 11 13
  23031599.939     4956251.731 8   3851797.62946  23031599.605    23031610.1034
  21274036.431      119561.162 9     93837.06747  21274035.762    21274042.0534
  22352506.344       41467.928 8     35375.31946  22352506.371    22352514.2094
  23833418.003    -3532793.917 7  -2731527.80845  23833418.009    23833433.3274
  20434416.245    -1703172.313 9  -1205629.43548  20434415.539    20434421.7814
  22200887.694     4360951.659 8   3387361.77346  22200887.145    22200895.4374
  23936282.059    -4258291.588 8  -3291343.25145  23936281.847    23936292.4254
  24434433.790     1723599.788 8   1340776.58945  24434433.303    24434441.8954
  24840961.955     5900337.204 7   4583968.48745  24840962.019    24840976.0994
 00  4 13 15 57  0.0000000  0  9 27 02 26 04 07 08 09 11 13
  23050313.925     5054593.330 8   3928427.10046  23050313.630    23050324.0784
  21277066.215      135482.764 9    106243.49547  21277065.534    21277071.8464
  22357585.340       68158.008 8     56172.72646  22357585.376    22357593.1264
  23813646.084    -3636695.180 7  -2812489.54645  23813646.056    23813661.2594
  20433795.473    -1706434.488 9  -1208171.37948  20433794.778    20433801.0214
  22217912.836     4450418.682 8   3457076.15846  22217912.319    22217920.6164
  23917605.192    -4356439.016 7  -3367821.69845  23917604.907    23917615.4694
  24444313.399     1775517.303 8   1381231.74845  24444312.964    24444321.4684
  24860725.009     6004190.048 7   4664892.36745  24860725.137    24860738.9964
 00  4 13 15 57 30.0000000  0  9 27 02 26 04 07 08 09 11 13
  23069083.714     5153228.167 8   4005285.07946  23069083.355    23069093.9504
  21280120.720      151534.176 9    118751.06547  21280120.049    21280126.3604
  22362757.748       95339.004 8     77352.66346  22362757.755    22362765.4904
  23793873.119    -3740601.697 7  -2893455.39445  23793873.085    23793887.9544
  20433259.732    -1709249.859 9  -1210365.16648  20433259.029    20433265.2664
  22234985.802     4540137.348 8   3526986.63346  22234985.260    22234993.6334
  23898951.019    -4454467.219 7  -3444207.23945  23898950.721    23898961.3194
  24454280.952     1827897.336 7   1422047.31345  24454280.513    24454289.0624
  24880472.598     6107962.424 7   4745753.53745  24880472.696    24880486.4684
 00  4 13 15 58  0.0000000  0  9 27 02 26 04 07 08 09 11 13
  23087906.654     5252142.343 8   4082360.72345  23087906.295    23087916.9214
  21283202.363      167728.109 9    131369.69547  21283201.686    21283208.0054
  22368023.613      123011.366 8     98915.48546  22368023.620    22368031.4014
  23774101.469    -3844501.298 7  -2974415.84845  23774101.322    23774116.3454
  20432806.568    -1711631.271 9  -1212220.80248  20432805.843    20432812.0674
  22252109.635     4630123.325 8   3597105.40346  22252109.125    22252117.5534
  23880319.672    -4552375.226 8  -3520499.10645  23880319.419    23880329.8334
  24464333.607     1880724.336 8   1463211.15645  24464333.274    24464341.6924
  24900203.732     6211647.845 7   4826546.93045  24900203.857    24900217.6554
 00  4 13 15 58 30.0000000  0  9 27 02 26 04 07 08 09 11 13
  23106778.306     5351312.348 8   4159635.71645  23106777.900    23106788.6554
  21286312.372      184071.098 9    144104.47547  21286311.683    21286317.9904
  22373381.681      151168.083 8    120855.73246  22373381.730    22373389.5784
  23754333.571    -3948381.762 7  -3055361.38245  23754333.437    23754348.1044
  20432433.528    -1713591.434 9  -1213748.18848  20432432.811    20432439.0424
  22269286.951     4720390.380 8   3667443.20046  22269286.454    22269294.9634
  23861710.785    -4650165.257 8  -3596699.02945  23861710.492    23861721.0454
  24474468.699     1933984.308 7   1504712.37645  24474468.328    24474476.7704
  24919915.999     6315234.341 7   4907263.23045  24919915.990    24919929.9854
 00  4 13 15 59  0.0000000  0  8 27 02 26 04 07 08 09 11
  23125695.176     5450720.242 8   4237096.05945  23125694.775    23125705.6794
  21289451.334      200566.294 9    156957.85047  21289450.650    21289456.9314
  22378833.534      179817.160 8    143179.63946  22378833.566    22378841.4674
  23734569.252    -4052242.702 7  -3136291.70245  23734569.210    23734583.7734
  20432141.586    -1715125.414 9  -1214943.48948  20432140.883    20432147.1234
  22286518.951     4810944.533 8   3738004.68446  22286518.454    22286527.0404
  23843122.408    -4747847.797 8  -3672815.17645  23843122.040    23843132.5584
  24484684.421     1987667.599 8   1546543.48345  24484683.965    24484692.3554
 00  4 13 15 59 30.0000000  0  8 27 02 26 04 07 08 09 11
  23144656.566     5550362.456 8   4314738.99245  23144656.208    23144667.2704
  21292620.473      217220.267 9    169934.94947  21292619.776    21292626.0504
  22384379.602      208961.303 8    165889.31046  22384379.636    22384387.5264
  23714808.746    -4156083.882 8  -3217206.62445  23714808.729    23714823.1434
  20431932.188    -1716225.846 9  -1215800.95448  20431931.488    20431937.7054
  22303809.870     4901808.275 8   3808807.41746  22303809.324    22303817.9964
  23824552.497    -4845432.839 8  -3748855.35445  23824552.176    23824562.6254
  24494978.462     2041762.592 8   1588695.37645  24494977.960    24494986.4474
 00  4 13 16  0  0.0000000  0  8 27 02 26 04 07 08 09 11
  23163663.470     5650243.819 8   4392568.27045  23163663.140    23163674.3794
  21295819.340      234030.226 9    183033.60847  21295818.642    21295824.9444
  22390019.146      238596.839 8    188981.88146  22390019.162    22390027.0524
  23695053.588    -4259897.224 8  -3298099.85645  23695053.715    23695067.7984
  20431803.048    -1716904.560 9  -1216329.80848  20431802.348    20431808.5744
  22321163.286     4993000.478 8   3879866.08346  22321162.740    22321171.4184
  23806002.487    -4942912.947 7  -3824813.73745  23806002.158    23806012.7104
  24505353.226     2096282.174 8   1631178.12845  24505352.647    24505361.3484
 00  4 13 16  0 30.0000000  0  8 27 02 26 04 07 08 09 11
  23182715.067     5750359.784 8   4470580.35945  23182714.730    23182726.2154
  21299046.641      250989.751 9    196248.79647  21299045.947    21299052.2744
  22395750.906      268717.088 8    212452.16046  22395750.904    22395758.8034
  23675301.204    -4363696.270 8  -3378981.94245  23675301.300    23675315.2104
  20431755.552    -1717154.116 9  -1216524.25548  20431754.840    20431761.0704
  22338576.426     5084506.095 8   3951168.96946  22338575.895    22338584.5764
  23787473.259    -5040283.599 7  -3900686.85445  23787473.036    23787483.5664
  24515809.845     2151232.241 8   1673996.31645  24515809.398    24515818.1294
 00  4 13 16  1  0.0000000  0  8 27 02 26 04 07 08 09 11
  23201812.545     5850716.649 8   4548780.16245  23201812.219    23201823.9034
  21302303.990      268107.023 9    209586.91247  21302303.302    21302309.6334
  22401575.636      299326.171 8    236303.34546  22401575.642    22401583.5434
  23655549.583    -4467491.213 8  -3459860.81445  23655549.624    23655563.5404
  20431790.165    -1716972.292 9  -1216382.56448  20431789.486    20431795.6924
  22356049.485     5176326.569 8   4022717.19546  22356048.969    22356057.6234
  23768965.116    -5137543.282 7  -3976473.48845  23768964.779    23768975.5224
  24526349.170     2206616.803 7   1717153.05845  24526348.792    24526357.3864
 00  4 13 16  1 30.0000000  0  8 27 02 26 04 07 08 09 11
  23220956.935     5951319.597 8   4627171.71145  23220956.596    23220968.3364
  21305590.999      285380.040 9    223046.39447  21305590.307    21305596.6104
  22407489.897      330405.503 8    260520.96046  22407489.878    22407497.7864
  23635798.423    -4571283.297 8  -3540737.45945  23635798.527    23635812.3254
  20431907.281    -1716356.673 9  -1215902.85348  20431906.595    20431912.7974
  22373583.052     5268465.052 8   4094513.20846  22373582.531    22373591.1754
  23750480.117    -5234681.569 7  -4052165.53745  23750479.725    23750490.6024
  24536973.853     2262450.048 8   1760659.44845  24536973.397    24536982.1194
 00  4 13 16  2  0.0000000  0  8 27 02 26 04 07 08 09 11
  23240148.999     6052172.929 8   4705758.34645  23240148.719    23240160.4984
  21308908.252      302812.239 9    236629.91347  21308907.540    21308913.8334
  22413493.950      361956.923 8    285106.39646  22413493.951    22413501.8684
  23616047.913    -4675072.123 8  -3621611.55345  23616048.041    23616061.6914
  20432108.729    -1715297.957 9  -1215077.87048  20432108.046    20432114.2734
  22391172.636     5360898.070 8   4166538.73946  22391172.104    22391180.8054
  23732018.297    -5331697.963 7  -4127762.60045  23732017.976    23732028.8244
  24547684.354     2318733.998 7   1804517.03145  24547683.993    24547692.6124
 00  4 13 16  2 30.0000000  0  8 27 02 26 04 07 08 09 11
  23259389.121     6153278.219 8   4784541.33145  23259388.799    23259400.6454
  21312258.946      320420.272 9    250350.43947  21312258.251    21312264.5444
  22419590.831      393996.059 8    310071.88446  22419590.820    22419598.8244
  23596300.832    -4778842.810 8  -3702471.51045  23596300.901    23596314.5404
  20432396.408    -1713786.150 9  -1213899.82948  20432395.717    20432401.9454
  22408815.248     5453609.893 8   4238781.51946  22408814.740    22408823.4644
  23713579.393    -5428594.526 8  -4203266.30445  23713579.111    23713590.0134
  24558477.778     2375453.267 7   1848713.81945  24558477.479    24558485.8974
 00  4 13 16  3  0.0000000  0  8 27 02 26 04 07 08 09 11
  23278680.610     6254653.498 8   4863534.66845  23278680.334    23278692.1074
  21315643.861      338207.986 9    264210.97047  21315643.177    21315649.4794
  22425781.146      426526.389 8    335420.13346  22425781.155    22425789.1814
  23576559.088    -4882585.570 8  -3783309.70645  23576559.128    23576572.7594
  20432770.636    -1711819.544 9  -1212367.40148  20432769.948    20432776.1704
  22426512.325     5546607.690 8   4311247.12546  22426511.789    22426520.5674
  23695164.581    -5525364.866 8  -4278671.65045  23695164.319    23695175.1524
  24569354.057     2432608.043 7   1893249.95545  24569353.750    24569362.1714
 00  4 13 16  3 30.0000000  0  8 27 02 26 04 07 08 09 11
  23298024.619     6356304.913 8   4942743.18145  23298024.302    23298036.0904
  21319064.285      356182.331 9    278216.93747  21319063.609    21319069.9244
  22432064.225      459543.830 8    361147.93846  22432064.245    22432072.3074
  23556824.107    -4986292.787 8  -3864120.21345  23556824.081    23556837.7114
  20433232.732    -1709391.201 9  -1210475.17748  20433232.058    20433238.2794
  22444260.915     5639876.439 8   4383923.86646  22444260.372    22444269.2024
  23676775.722    -5621998.785 8  -4353970.69745  23676775.460    23676786.2024
  24580310.887     2490186.374 7   1938116.14945  24580310.585    24580319.0454
 00  4 13 16  4  0.0000000  0  8 27 02 26 04 07 08 09 11
  23317421.601     6458234.766 8   5022168.64845  23317421.304    23317433.1014
  21322520.581      374345.256 9    292369.85647  21322519.897    21322526.2514
  22438443.429      493066.362 8    387269.32846  22438443.458    22438451.5034
  23537099.543    -5089944.843 8  -3944887.72445  23537099.485    23537113.1744
  20433783.092    -1706499.103 9  -1208221.58548  20433782.417    20433788.6074
  22462059.096     5733405.564 8   4456803.49046  22462058.510    22462067.3864
  23658416.423    -5718477.160 8  -4429148.53145  23658416.169    23658426.9294
  24591345.595     2548174.137 7   1983301.36745  24591345.256    24591353.8814
 00  4 13 16  4 30.0000000  0  8 27 02 26 04 07 08 09 11
  23336869.410     6560431.695 8   5101802.21445  23336869.121    23336880.9704
  21326010.722      392685.982 9    306661.30747  21326010.050    21326016.3994
  22444916.966      527084.461 8    413776.87146  22444916.957    22444925.0764
  23517387.363    -5193531.724 8  -4025604.48445  23517387.332    23517400.9494
  20434418.630    -1703159.489 9  -1205619.27948  20434417.947    20434424.1084
  22479907.631     5827199.242 8   4529889.24846  22479907.034    22479915.9384
  23640089.779    -5814784.094 8  -4504192.79345  23640089.587    23640100.3064
  24602458.814     2606574.101 7   2028807.78445  24602458.273    24602467.0874
 00  4 13 16  5  0.0000000  0  8 27 02 26 04 07 08 09 11
  23356366.056     6662885.329 8   5181635.82745  23356365.734    23356377.6424
  21329532.359      411192.132 9    321081.64747  21329531.682    21329538.0384
  22451481.790      561582.652 8    440658.51146  22451481.813    22451489.9724
  23497686.773    -5297057.876 8  -4106273.91045  23497686.700    23497700.2704
  20435138.940    -1699374.496 9  -1202669.92448  20435138.238    20435144.3664
  22497804.862     5921248.953 8   4603174.51646  22497804.244    22497813.1684
  23621795.954    -5910918.572 8  -4579102.66045  23621795.671    23621806.3944
  24613650.328     2665385.554 7   2074634.82745  24613649.725    24613658.5014
 00  4 13 16  5 30.0000000  0  8 27 02 26 04 07 08 09 11
  23375906.490     6765569.349 8   5261648.93645  23375906.177    23375918.1674
  21333084.553      429859.074 9    335627.29047  21333083.883    21333090.2464
  22458138.517      596563.745 8    467916.43746  22458138.544    22458146.7444
  23478000.984    -5400506.142 8  -4186882.65845  23478000.999    23478014.5244
  20435943.506    -1695146.335 9  -1199375.24348  20435942.801    20435948.9444
  22515748.170     6015540.791 8   4676648.44746  22515747.592    22515756.5204
  23603534.760    -6006881.088 8  -4653878.52645  23603534.513    23603545.2894
  24624920.570     2724611.367 7   2120784.75545  24624919.943    24624928.7494
 00  4 13 16  6  0.0000000  0  8 27 02 26 04 07 08 09 11
  23395489.821     6868478.481 8   5341837.46645  23395489.479    23395501.6074
  21336663.479      448666.279 9    350282.23147  21336662.796    21336669.1614
  22464886.709      632025.517 8    495548.92746  22464886.732    22464894.9514
  23458333.049    -5503860.653 8  -4267418.36645  23458333.025    23458346.4504
  20436830.749    -1690483.659 9  -1195741.97948  20436830.057    20436836.2064
  22533738.963     6110082.031 8   4750316.72146  22533738.367    22533747.3094
  23585304.968    -6102678.714 8  -4728525.92045  23585304.773    23585315.5304
  24636273.529     2784271.769 7   2167273.33145  24636273.023    24636281.7984
 00  4 13 16  6 30.0000000  0  7 27 02 26 04 07 08 09
  23415102.206     6971540.139 8   5422144.82645  23415101.762    23415113.9864
  21340254.612      467537.893 9    364987.37847  21340253.950    21340260.3274
  22471711.880      667891.971 8    523496.74746  22471711.897    22471720.0974
  23438666.711    -5607206.105 8  -4347947.02445  23438666.750    23438680.1064
  20437787.806    -1685454.418 9  -1191823.07948  20437787.095    20437793.2414
  22551764.864     6204807.683 8   4824128.69546  22551764.258    22551773.2244
  23567088.034    -6198408.900 8  -4803120.75545  23567087.874    23567098.5844
 00  4 13 16  7  0.0000000  0  7 27 02 26 04 07 08 09
  23434759.789     7074840.195 8   5502637.93745  23434759.413    23434771.7564
  21343874.111      486558.306 9    379808.45247  21343873.444    21343879.8284
  22478631.144      704252.730 8    551829.73246  22478631.177    22478639.3494
  23419016.451    -5710467.583 8  -4428410.25545  23419016.443    23419029.8474
  20438830.450    -1679975.249 9  -1187553.58948  20438829.743    20438835.8764
  22569841.593     6299800.662 8   4898148.96546  22569840.954    22569849.9764
  23548896.343    -6294006.377 8  -4877612.16345  23548896.209    23548906.8274
 00  4 13 16  7 30.0000000  0  7 27 02 26 04 07 08 09
  23454469.001     7178411.673 8   5583342.54945  23454468.638    23454481.1184
  21347527.812      505758.493 9    394769.61647  21347527.134    21347533.5074
  22485651.176      741143.180 8    580575.48146  22485651.188    22485659.3804
  23399387.796    -5813615.230 8  -4508784.80445  23399387.762    23399401.2224
  20439962.290    -1674027.428 9  -1182918.91048  20439961.579    20439967.6934
  22587979.184     6395113.514 8   4972418.46646  22587978.577    22587987.6464
  23530737.410    -6389432.437 8  -4951970.01245  23530737.300    23530747.8074
 00  4 13 16  8  0.0000000  0  7 27 02 26 04 07 08 09
  23474229.120     7282249.863 8   5664254.97045  23474228.739    23474241.2624
  21351214.121      525130.007 9    409864.28347  21351213.442    21351219.8044
  22492769.677      778550.993 8    609724.35046  22492769.690    22492777.9444
  23379775.348    -5916677.721 8  -4589093.00845  23379775.358    23379788.8724
  20441179.168    -1667632.432 9  -1177935.78848  20441178.447    20441184.5544
  22606178.708     6490751.864 8   5046941.61246  22606178.068    22606187.2574
  23512607.006    -6484708.303 8  -5026210.81045  23512606.880    23512617.3004
 00  4 13 16  8 30.0000000  0  7 27 02 26 04 07 08 09
  23494035.667     7386332.578 8   5745357.94545  23494035.287    23494048.0274
  21354933.884      544677.363 9    425095.98847  21354933.197    21354939.5794
  22499983.860      816461.439 8    639264.88046  22499983.885    22499992.1424
  23360176.066    -6019671.688 8  -4669347.82145  23360176.087    23360189.5014
  20442476.720    -1660813.562 9  -1172622.36948  20442476.008    20442482.1014
  22624439.233     6586710.827 8   5121714.58346  22624438.567    22624447.8484
  23494505.204    -6579833.622 8  -5100334.29945  23494505.013    23494515.3784
 00  4 13 16  9  0.0000000  0  7 27 02 26 04 07 08 09
  23513883.634     7490632.706 7   5826630.31945  23513883.217    23513896.1064
  21358685.024      564389.684 9    440456.23047  21358684.350    21358690.7394
  22507286.547      854836.894 8    669167.74846  22507286.580    22507294.8274
  23340590.429    -6122593.736 8  -4749546.61045  23340590.516    23340603.7924
  20443847.934    -1653607.660 9  -1167007.36948  20443847.219    20443853.3094
  22642759.325     6682982.723 8   5196731.40746  22642758.694    22642768.0324
  23476432.983    -6674803.636 8  -5174336.77845  23476432.794    23476443.0064
 00  4 13 16  9 30.0000000  0  7 27 02 26 04 07 08 09
  23533768.236     7595125.412 7   5908052.73045  23533767.831    23533780.7744
  21362463.945      584247.932 9    455930.16047  21362463.264    21362469.6544
  22514669.524      893634.444 8    699399.53046  22514669.578    22514677.8104
  23321017.296    -6225449.993 8  -4829694.13145  23321017.436    23321030.7054
  20445289.490    -1646032.268 9  -1161104.46048  20445288.801    20445294.8874
  22661134.889     6779546.554 8   5271975.68046  22661134.313    22661143.6874
  23458387.537    -6769632.468 8  -5248229.21845  23458387.307    23458397.6034
 00  4 13 16 10  0.0000000  0  7 27 02 26 04 07 08 09
  23553689.609     7699811.491 7   5989625.83945  23553689.219    23553702.3294
  21366270.546      604251.780 9    471517.55147  21366269.859    21366276.2304
  22522126.227      932819.080 8    729932.94046  22522126.246    22522134.4384
  23301458.646    -6328230.383 8  -4909782.54945  23301458.746    23301471.9954
  20446802.859    -1638079.626 9  -1154907.58548  20446802.153    20446808.2314
  22679562.192     6876382.131 8   5347431.70346  22679561.636    22679571.0614
  23440367.274    -6864329.239 8  -5322018.77245  23440367.052    23440377.2764
 00  4 13 16 10 30.0000000  0  7 27 02 26 04 07 08 09
  23573650.060     7804702.756 7   6071358.81645  23573649.731    23573662.9224
  21370106.057      624407.322 9    487223.14547  21370105.364    21370111.7364
  22529654.311      972379.013 8    760758.78546  22529654.344    22529662.5224
  23281917.549    -6430918.326 8  -4989798.93445  23281917.644    23281930.8514
  20448392.047    -1629728.292 9  -1148400.04148  20448391.353    20448397.4144
  22698037.928     6973471.829 8   5423085.75546  22698037.335    22698046.8804
  23422374.621    -6958881.129 8  -5395695.41845  23422374.328    23422384.5654
 00  4 13 16 11  0.0000000  0  7 27 02 26 04 07 08 09
  23593651.783     7909810.630 7   6153260.59345  23593651.364    23593664.8014
  21373970.386      644714.444 9    503046.88347  21373969.689    21373976.0754
  22537254.796     1012319.473 8    791881.15446  22537254.863    22537263.0604
  23262393.208    -6533518.135 8  -5069746.64345  23262393.361    23262406.5304
  20450061.480    -1620955.552 9  -1141564.12848  20450060.787    20450066.8524
  22716557.687     7070792.742 8   5498919.95746  22716557.124    22716566.7314
  23404408.440    -7053293.787 8  -5469263.57345  23404408.096    23404418.2344
 00  4 13 16 11 30.0000000  0  7 27 02 26 04 07 08 09
  23613700.000     8015162.706 7   6235352.63645  23613699.595    23613712.9974
  21377868.896      665201.284 9    519010.64347  21377868.200    21377874.6204
  22544935.003     1052678.599 8    823329.75746  22544935.006    22544943.2644
  23242885.861    -6636028.825 8  -5149624.90745  23242886.005    23242899.2064
  20451817.468    -1611727.867 9  -1134373.71248  20451816.752    20451822.8194
  22735122.874     7168352.106 8   5574939.97546  22735122.292    22735131.9944
  23386473.510    -7147542.075 8  -5542703.66045  23386473.112    23386483.2434
 00  4 13 16 12  0.0000000  0  7 27 02 26 04 07 08 09
  23633797.194     8120771.796 8   6317644.95145  23633796.702    23633810.2534
  21381803.799      685879.415 9    535123.45647  21381803.126    21381809.5574
  22552701.814     1093493.420 8    855133.42546  22552701.849    22552710.1584
  23223395.873    -6738448.197 8  -5229432.02345  23223395.998    23223409.2074
  20453660.499    -1602042.418 9  -1126826.60048  20453659.786    20453665.8314
  22753733.722     7266151.366 8   5651146.91946  22753733.158    22753742.8694
  23368573.858    -7241604.680 8  -5615999.05045  23368573.533    23368583.5694
 00  4 13 16 12 30.0000000  0  7 27 02 26 04 07 08 09
  23653941.123     8226626.480 7   6400128.63045  23653940.617    23653954.1164
  21385774.865      706747.417 9    551384.21147  21385774.167    21385780.6044
  22560563.326     1134805.746 8    887324.77046  22560563.357    22560571.6954
  23203922.263    -6840781.776 8  -5309172.28445  23203922.339    23203935.6334
  20455586.889    -1591919.191 9  -1118938.36748  20455586.202    20455592.2244
  22772386.982     7364173.496 8   5727527.54046  22772386.424    22772396.1494
  23350711.905    -7335469.169 8  -5689140.06645  23350711.589    23350721.5904
 00  4 13 16 13  0.0000000  0  7 27 02 26 04 07 08 09
  23674127.868     8332706.366 8   6482787.79445  23674127.412    23674141.0284
  21389780.560      727797.360 9    567786.74047  21389779.883    21389786.3244
  22568519.886     1176617.341 8    919905.15046  22568519.928    22568528.2564
  23184462.900    -6943040.173 8  -5388853.94845  23184463.041    23184476.2894
  20457590.499    -1581390.259 9  -1110733.99548  20457589.795    20457595.8284
  22791082.163     7462415.688 8   5804079.65746  22791081.572    22791091.3284
  23332888.125    -7429133.308 8  -5762124.97345  23332887.798    23332897.7834
 00  4 13 16 13 30.0000000  0  7 27 02 26 04 07 08 09
  23694354.057     8438993.714 8   6565608.59645  23694353.630    23694367.3884
  21393816.654      749006.873 9    584313.61347  21393815.959    21393822.3804
  22576567.173     1218905.726 8    952857.06646  22576567.188    22576575.5954
  23165016.887    -7045228.924 8  -5468481.34245  23165016.993    23165030.1954
  20459665.058    -1570488.483 9  -1102239.09748  20459664.369    20459670.3614
  22809819.024     7560877.060 8   5880802.54846  22809818.451    22809828.1564
  23315100.234    -7522608.715 8  -5834962.80446  23315099.952    23315109.8164
 00  4 13 16 14  0.0000000  0  7 27 02 26 04 07 08 09
  23714617.089     8545474.229 7   6648579.91745  23714616.662    23714630.4684
  21397878.791      770353.360 9    600947.21747  21397878.097    21397884.5254
  22584701.591     1261652.416 8    986166.09846  22584701.627    22584710.0534
  23145587.408    -7147330.908 8  -5548041.11345  23145587.473    23145600.6694
  20461808.054    -1559226.925 9  -1093463.85048  20461807.346    20461813.3394
  22828593.529     7659536.170 8   5957679.52946  22828592.944    22828602.6824
  23297345.259    -7615911.224 8  -5907665.92046  23297345.003    23297354.8824
 00  4 13 16 14 30.0000000  0  7 27 02 26 04 07 08 09
  23734914.392     8652134.993 8   6731691.67345  23734913.989    23734928.0164
  21401966.720      791835.357 9    617686.41347  21401966.027    21401972.4574
  22592916.730     1304822.926 8   1019805.36946  22592916.759    22592925.2264
  23126173.320    -7249352.154 8  -5627537.97645  23126173.443    23126186.4854
  20464019.932    -1547603.558 9  -1084406.67548  20464019.214    20464025.2204
  22847406.734     7758399.268 8   6034715.43846  22847406.159    22847415.9404
  23279621.909    -7709047.414 8  -5980239.43046  23279621.664    23279631.4854
 00  4 13 16 15  0.0000000  0  7 27 02 26 04 07 08 09
  23755244.599     8758968.864 7   6814938.32245  23755244.256    23755258.3644
  21406081.638      813459.273 9    634536.19947  21406080.948    21406087.3854
  22601206.853     1348387.495 8   1053751.69946  22601206.870    22601215.3614
  23106774.543    -7351293.247 8  -5706972.37645  23106774.633    23106787.5024
  20466304.897    -1535596.035 9  -1075050.15948  20466304.172    20466310.1974
  22866266.866     7857508.746 8   6111943.32746  22866266.303    22866276.1024
  23261930.276    -7802016.826 8  -6052682.98146  23261930.001    23261939.7514
 00  4 13 16 15 30.0000000  0  7 27 02 26 04 07 08 09
  23775607.652     8865974.954 7   6898319.17145  23775607.269    23775621.5124
  21410223.629      835225.358 9    651496.76147  21410222.931    21410229.3544
  22609571.615     1392344.296 8   1088003.66446  22609571.649    22609580.0604
  23087395.323    -7453131.060 8  -5786326.29245  23087395.450    23087408.2344
  20468667.335    -1523181.073 9  -1065376.16148  20468666.617    20468672.6484
  22885176.297     7956877.158 8   6189372.95246  22885175.722    22885185.5954
  23244271.806    -7894812.027 8  -6124990.78746  23244271.546    23244281.2734
 00  4 13 16 16  0.0000000  0  7 27 02 26 04 07 08 09
  23796003.793     8973155.591 8   6981835.99145  23796003.469    23796017.6834
  21414396.375      857153.324 9    668583.46647  21414395.682    21414402.1224
  22618012.664     1436701.773 8   1122567.84346  22618012.665    22618021.0734
  23068038.943    -7554848.810 8  -5865586.65045  23068039.099    23068051.7654
  20471111.788    -1510335.381 9  -1055366.52848  20471111.085    20471117.1364
  22904135.880     8056509.078 8   6267007.92746  22904135.297    22904145.2634
  23226650.072    -7987414.288 8  -6197148.23546  23226649.815    23226659.4954
 00  4 13 16 16 30.0000000  0  7 27 02 26 04 07 08 09
  23816432.984     9080509.443 7   7065487.79845  23816432.556    23816447.0054
  21418604.329      879266.242 9    685814.28747  21418603.639    21418610.0734
  22626531.767     1481469.610 8   1157451.78146  22626531.768    22626540.2234
  23048704.504    -7656451.745 8  -5944757.54445  23048704.634    23048717.1924
  20473640.461    -1497047.090 9  -1045012.01148  20473639.744    20473645.8154
  22923148.190     8156418.578 8   6344859.17446  22923147.675    22923157.7044
  23209066.233    -8079817.502 8  -6269150.58746  23209065.978    23209075.6184
 00  4 13 16 17  0.0000000  0  7 27 02 26 04 07 08 09
  23836897.541     9188049.419 8   7149284.62945  23836897.109    23836911.7124
  21422847.941      901566.458 9    703191.05747  21422847.261    21422853.6784
  22635134.186     1526675.614 8   1192677.14246  22635134.232    22635142.7774
  23029398.048    -7757907.200 8  -6023813.50946  23029398.160    23029410.6574
  20476254.729    -1483308.714 9  -1034306.77848  20476254.034    20476260.0874
  22942210.416     8256590.281 8   6422914.72646  22942209.859    22942219.9654
  23191522.641    -8172009.104 8  -6340988.03946  23191522.383    23191532.0284
 00  4 13 16 17 30.0000000  0  7 27 02 26 04 07 08 09
  23857403.087     9295805.045 8   7233249.48845  23857402.623    23857417.4504
  21427128.982      924063.534 9    720721.23847  21427128.278    21427134.7004
  22643824.667     1572344.005 8   1228262.81346  22643824.736    22643833.3384
  23010124.150    -7859191.494 8  -6102736.10846  23010124.283    23010136.7594
  20478954.056    -1469123.776 9  -1023253.57248  20478953.355    20478959.3904
  22961316.263     8356991.219 8   6501148.91246  22961315.672    22961325.8654
  23174019.321    -8263989.149 8  -6412660.63146  23174019.111    23174028.7344
 00  4 13 16 18  0.0000000  0  7 27 02 26 04 07 08 09
  23877951.033     9403783.387 7   7317387.88845  23877950.588    23877965.6954
  21431450.326      946772.338 9    738416.39547  21431449.626    21431456.0304
  22652605.247     1618485.746 8   1264217.33046  22652605.318    22652613.9534
  22990881.346    -7960312.596 8  -6181531.55146  22990881.475    22990893.8594
  20481735.284    -1454508.538 9  -1011865.06648  20481734.580    20481740.5844
  22980464.102     8457612.682 8   6579554.92946  22980463.515    22980473.7694
  23156555.016    -8355763.908 8  -6484173.27146  23156554.811    23156564.4544
 00  4 13 16 18 30.0000000  0  7 27 02 26 04 07 08 09
  23898541.026     9511982.883 8   7401698.61045  23898540.663    23898555.9694
  21435809.646      969680.662 9    756267.01547  21435808.958    21435815.3694
  22661476.872     1665105.711 8   1300544.47946  22661476.936    22661485.5734
  22971669.188    -8061272.145 8  -6260201.09546  22971669.294    22971681.6794
  20484594.261    -1439484.248 9  -1000157.82348  20484593.571    20484599.5614
  22999656.734     8558469.561 8   6658144.36646  22999656.149    22999666.5354
  23139127.595    -8447344.793 8  -6555534.84446  23139127.366    23139136.9804
 00  4 13 16 19  0.0000000  0  7 27 02 26 04 07 08 09
  23919174.164     9620408.424 7   7486185.46645  23919173.730    23919189.1464
  21440202.820      992766.973 9    774256.32547  21440202.107    21440208.5614
  22670436.131     1712186.515 8   1337230.72546  22670436.204    22670444.7724
  22952488.443    -8162066.836 8  -6338742.20146  22952488.573    22952500.8304
  20487527.520    -1424069.843 9   -988146.58748  20487526.840    20487532.8194
  23018896.271     8659572.989 8   6736925.93546  23018895.660    23018906.1404
  23121736.426    -8538735.477 8  -6626748.20346  23121736.205    23121745.7814
 00  4 13 16 19 30.0000000  0  7 27 02 26 04 07 08 09
  23939847.768     9729046.717 7   7570838.09445  23939847.407    23939862.9164
  21444628.393     1016023.427 9    792378.21347  21444627.693    21444634.1654
  22679477.008     1759696.650 8   1374251.51546  22679477.115    22679485.6784
  22933335.420    -8262716.069 8  -6417169.95246  22933335.453    22933347.6934
  20490532.140    -1408280.741 9   -975843.37648  20490531.440    20490537.4414
  23038184.670     8760932.931 8   6815907.34746  23038184.047    23038194.6374
  23104379.614    -8629945.576 8  -6697820.85046  23104379.371    23104388.9394
 00  4 13 16 20  0.0000000  0  7 27 02 26 04 07 08 09
  23960556.747     9837870.851 7   7655635.52445  23960556.351    23960571.9054
  21449083.862     1039437.056 9    810622.57847  21449083.169    21449089.6824
  22688594.746     1807610.371 8   1411586.79446  22688594.833    22688603.4334
  22914206.751    -8363236.982 8  -6495497.72046  22914206.815    22914218.9944
  20493607.318    -1392120.475 9   -963250.95148  20493606.621    20493612.6184
  23057523.888     8862559.873 8   6895096.80946  23057523.249    23057533.9004
  23087058.247    -8720969.672 8  -6768748.57246  23087057.973    23087067.4504
 00  4 13 16 20 30.0000000  0  7 27 02 26 04 07 08 09
  23981301.280     9946882.034 7   7740578.70145  23981300.790    23981316.5734
  21453566.456     1062993.075 9    828977.90147  21453565.765    21453572.2744
  22697784.896     1855904.417 8   1449218.42346  22697784.920    22697793.6084
  22895102.782    -8463628.193 8  -6573724.43046  22895102.851    22895115.0034
  20496755.396    -1375577.205 9   -950360.08348  20496754.692    20496760.6984
  23076911.428     8964441.254 8   6974484.55346  23076910.816    23076921.6114
  23069775.024    -8811793.179 8  -6839519.99146  23069774.727    23069784.1774
 00  4 13 16 21  0.0000000  0  7 27 02 26 04 07 08 09
  24002080.273    10056074.194 7   7825662.89345  24002079.884    24002095.6514
  21458078.094     1086701.809 9    847452.22147  21458077.412    21458083.8984
  22707043.594     1904558.847 8   1487130.86446  22707043.601    22707052.3194
  22876024.009    -8563887.293 8  -6651848.18746  22876024.069    22876036.0454
  20499979.589    -1358633.857 9   -937157.46348  20499978.890    20499984.8984
  23096340.685     9066541.435 8   7054042.77646  23096340.086    23096350.9534
  23052534.707    -8902391.321 8  -6910115.79446  23052534.433    23052543.7834
 00  4 13 16 21 30.0000000  0  7 27 02 26 04 07 08 09
  24022890.945    10165433.068 7   7910876.96745  24022890.597    24022906.4234
  21462620.686     1110572.941 9    866053.07747  21462619.997    21462626.4704
  22716374.255     1953591.432 8   1525337.98046  22716374.261    22716382.9854
  22856972.261    -8664003.913 8  -6729860.93346  22856972.307    22856984.2194
  20503280.734    -1341286.368 9   -923639.93548  20503280.025    20503286.0264
  23115808.473     9168843.971 8   7133758.67446  23115807.908    23115818.8154
  23035339.095    -8992754.107 8  -6980528.22546  23035338.847    23035348.1474
 00  4 13 16 22  0.0000000  0  7 27 02 26 04 07 08 09
  24043732.243    10274952.687 7   7996216.29445  24043731.860    24043747.7304
  21467195.025     1134611.284 9    884784.22247  21467194.341    21467200.8154
  22725780.472     2003021.002 8   1563854.42546  22725780.499    22725789.2414
  22837949.461    -8763968.592 8  -6807755.27446  22837949.517    22837961.3634
  20506657.862    -1323539.388 9   -909811.11548  20506657.157    20506663.1714
  23135313.584     9271343.106 8   7213627.77046  23135313.116    23135324.1434
  23018189.756    -9082874.034 8  -7050751.40846  23018189.500    23018198.7444
 00  4 13 16 22 30.0000000  0  7 27 02 26 04 07 08 09
  24064603.961    10384631.803 7   8081679.90845  24064603.511    24064619.5434
  21471800.064     1158810.852 9    903641.00747  21471799.383    21471805.8734
  22735261.864     2052845.888 8   1602678.90746  22735261.876    22735270.6924
  22818960.259    -8863756.896 8  -6885512.17546  22818960.233    22818972.0294
  20510110.390    -1305395.971 9   -895673.38248  20510109.697    20510115.7104
  23154853.151     9374023.095 8   7293637.78846  23154852.739    23154863.8544
  23001088.192    -9172742.754 8  -7120778.84346  23001087.918    23001097.1934
 00  4 13 16 23  0.0000000  0  7 27 02 26 04 07 08 09
  24085502.504    10494452.041 7   8167253.46745  24085501.943    24085518.1434
  21476436.990     1183178.073 9    922628.42547  21476436.313    21476442.8174
  22744820.481     2103076.422 8   1641819.48746  22744820.488    22744829.2804
  22800006.985    -8963356.552 8  -6963122.09046  22800006.974    22800018.5514
  20513634.750    -1286875.392 9   -881241.76648  20513634.067    20513640.0834
  23174430.652     9476901.905 8   7373802.72546  23174430.166    23174441.4564
  22984031.218    -9262377.323 8  -7190623.82446  22984030.927    22984040.2154
 00  4 13 16 23 30.0000000  0  7 27 02 26 04 07 08 09
  24106427.619    10604412.106 7   8252935.96745  24106427.077    24106443.3204
  21481105.410     1207710.815 9    941744.81147  21481104.731    21481111.2544
  22754457.510     2153719.022 8   1681281.15446  22754457.536    22754466.3134
  22781089.182    -9062769.440 8  -7040586.47146  22781089.200    22781100.6644
  20517228.784    -1267988.904 9   -866525.02348  20517228.089    20517234.1004
  23194049.986     9580000.707 8   7454139.08846  23194049.473    23194060.8654
  22967015.474    -9351794.690 8  -7260299.57546  22967015.216    22967024.4524
 00  4 13 16 24  0.0000000  0  7 27 02 26 04 07 08 09
  24127379.609    10714513.141 7   8338728.31245  24127378.953    24127395.5254
  21485806.158     1232413.252 9    960993.41747  21485805.486    21485812.0124
  22764168.512     2204750.240 8   1721045.64946  22764168.564    22764177.3324
  22762205.540    -9162002.802 8  -7117910.97146  22762205.593    22762216.9814
  20520891.558    -1248740.869 9   -851526.55248  20520890.873    20520896.8774
  23213709.374     9683310.106 8   7534639.53246  23213708.883    23213720.3344
  22950041.243    -9440994.336 8  -7329805.66446  22950040.958    22950050.2144
 00  4 13 16 24 30.0000000  0  7 27 02 26 04 07 08 09
  24148358.590    10824756.277 7   8424631.36845  24148358.009    24148374.5744
  21490540.688     1257293.146 9    980380.30947  21490540.019    21490546.5444
  22773950.229     2256153.163 8   1761099.77546  22773950.282    22773959.0944
  22743355.090    -9261061.372 8  -7195099.26046  22743355.173    22743366.4714
  20524623.075    -1229131.726 9   -836246.69948  20524622.370    20524628.3784
  23233409.686     9786834.429 8   7615307.44746  23233409.184    23233420.6744
  22933106.730    -9529985.275 8  -7399149.14046  22933106.461    22933115.6234
 00  4 13 16 25  0.0000000  0  7 27 02 26 04 07 08 09
  24169365.066    10935143.759 7   8510646.88545  24169364.496    24169381.2404
  21495312.672     1282369.731 9    999920.48247  21495311.985    21495318.5124
  22783803.544     2307931.867 8   1801446.71346  22783803.601    22783812.3814
  22724532.708    -9359972.550 8  -7272172.70346  22724532.774    22724544.1064
  20528422.970    -1209163.112 9   -820686.73848  20528422.269    20528428.2644
  23253154.404     9890591.462 8   7696156.70846  23253153.846    23253165.4214
  22916208.592    -9618784.967 8  -7468343.56546  22916208.339    22916217.4294
 00  4 13 16 25 30.0000000  0  7 27 02 26 04 07 08 09
  24190400.660    11045683.891 7   8596781.32845  24190400.174    24190417.0444
  21500121.718     1307641.315 9   1019612.58647  21500121.026    21500127.5494
  22793728.050     2360084.921 8   1842085.35746  22793728.080    22793736.9124
  22705738.330    -9458736.651 8  -7349131.53646  22705738.385    22705749.7614
  20532292.979    -1188826.246 9   -804839.82648  20532292.270    20532298.2534
  23272939.912     9994563.262 8   7777173.30946  23272939.338    23272950.9554
  22899349.342    -9707380.671 8  -7537379.05446  22899349.110    22899358.0924
 00  4 13 16 26  0.0000000  0  7 27 02 26 04 07 08 09
  24211467.467    11156388.970 7   8683044.32745  24211467.019    24211484.2074
  21504966.940     1333103.012 9   1039452.81447  21504966.252    21504972.7744
  22803724.235     2412614.808 8   1883017.63546  22803724.260    22803733.1784
  22686975.523    -9557334.432 8  -7425960.77046  22686975.615    22686987.0614
  20536234.088    -1168115.528 9   -788701.60348  20536233.391    20536239.3444
  23292763.731    10098736.603 8   7858346.95446  23292763.145    23292774.9364
  22882530.617    -9795763.345 8  -7606248.54046  22882530.354    22882539.3454
 00  4 13 16 26 30.0000000  0  7 27 02 26 04 07 08 09
  24232567.500    11267267.209 7   8769442.21745  24232566.972    24232584.3884
  21509848.086     1358753.498 9   1059440.15947  21509847.402    21509853.9324
  22813795.406     2465539.129 8   1924257.25246  22813795.388    22813804.4594
  22668245.763    -9655758.768 8  -7502654.85146  22668245.820    22668257.3874
  20540248.688    -1147018.697 9   -772262.51948  20540247.992    20540253.9304
  23312627.825    10203121.545 8   7939685.46845  23312627.233    23312639.1074
  22865752.740    -9883931.386 8  -7674950.79346  22865752.459    22865761.3744
 00  4 13 16 27  0.0000000  0  7 27 02 26 04 07 08 09
  24253703.070    11378333.168 7   8855986.36545  24253702.510    24253720.5154
  21514764.517     1384589.450 9   1079572.04247  21514763.829    21514770.3834
  22823944.288     2518871.857 8   1965815.12646  22823944.292    22823953.4424
  22649553.523    -9753985.930 8  -7579195.27746  22649553.621    22649565.2794
  20544338.279    -1125527.788 9   -755516.35548  20544337.581    20544343.5114
  23332530.403    10307708.719 8   8021181.56845  23332529.816    23332541.8314
  22849019.213    -9971866.360 8  -7743471.41746  22849018.963    22849027.7704
 00  4 13 16 27 30.0000000  0  7 27 02 26 04 07 08 09
  24274874.873    11489589.243 7   8942678.64245  24274874.444    24274892.4584
  21519714.605     1410602.103 9   1099841.60547  21519713.912    21519720.4744
  22834171.946     2572618.267 8   2007695.33546  22834171.951    22834181.0104
  22630903.493    -9851991.427 8  -7655562.98646  22630903.622    22630915.3084
  20548501.940    -1103647.787 9   -738467.00548  20548501.229    20548507.1444
  23352466.914    10412474.657 8   8102816.96345  23352466.353    23352478.4804
  22832334.669   -10059543.591 8  -7811791.20346  22832334.414    22832343.1484
 00  4 13 16 28  0.0000000  0  7 27 02 26 04 07 08 09
  24296081.481    11601027.739 7   9029513.10045  24296080.922    24296099.1734
  21524699.933     1436800.075 9   1120255.57347  21524699.251    21524705.8084
  22844475.809     2626764.975 8   2049887.46146  22844475.818    22844484.7444
  22612294.233    -9949782.789 8  -7731763.84646  22612294.355    22612306.0884
  20552739.884    -1081377.016 9   -721113.15748  20552739.175    20552745.1104
  23372438.116    10517422.458 8   8184594.05945  23372437.548    23372449.7604
  22815698.755   -10146965.624 8  -7879912.13446  22815698.491    22815707.1654
 00  4 13 16 28 30.0000000  0  6 02 26 04 07 08 09
  21529722.744     1463194.958 9   1140822.97947  21529722.063    21529728.6224
  22854853.784     2681301.050 8   2092382.99246  22854853.804    22854862.6534
  22593725.360   -10047361.892 8  -7807799.29746  22593725.460    22593737.1714
  20557050.890    -1058722.543 9   -703460.31648  20557050.170    20557056.1224
  23392445.601    10622560.644 8   8266519.51645  23392445.096    23392457.2684
  22799112.025   -10234128.774 8  -7947831.33746  22799111.734    22799120.4284
 00  4 13 16 29  0.0000000  0  6 02 26 04 07 08 09
  21534783.152     1489787.194 9   1161544.16047  21534782.450    21534789.0004
  22865303.223     2736212.896 8   2135171.33746  22865303.260    22865312.1674
  22575198.570   -10144719.750 8  -7883662.34946  22575198.675    22575210.3744
  20561431.328    -1035702.878 9   -685522.91648  20561430.638    20561436.5984
  23412488.471    10727884.967 8   8348590.00845  23412488.051    23412500.2434
  22782576.393   -10321023.376 8  -8015541.28746  22782576.151    22782584.8084
 00  4 13 16 29 30.0000000  0  6 02 26 04 07 08 09
  21539878.792     1516564.782 9   1182409.77547  21539878.103    21539884.6654
  22875820.032     2791478.880 8   2178235.62446  22875820.109    22875829.1104
  22556709.218   -10241880.918 8  -7959372.12946  22556709.335    22556721.0154
  20565878.867    -1012330.980 9   -667311.05048  20565878.179    20565884.1394
  23432565.398    10833388.381 8   8430800.03145  23432564.953    23432577.2454
  22766089.617   -10407661.565 8  -8083051.42546  22766089.344    22766097.9984
 00  4 13 16 30  0.0000000  0  6 02 26 04 07 08 09
  21545007.800     1543517.729 9   1203412.03847  21545007.112    21545013.6884
  22886399.949     2847075.813 8   2221557.78946  22886399.984    22886409.0334
  22538257.134   -10338846.300 8  -8034929.35946  22538257.240    22538268.8604
  20570392.898     -988609.694 9   -648826.93048  20570392.194    20570398.1514
  23452678.508    10939081.336 8   8513157.75845  23452677.949    23452690.3674
  22749649.989   -10494051.477 8  -8150368.09146  22749649.716    22749658.3944
 00  4 13 16 30 30.0000000  0  6 02 26 04 07 08 09
  21550166.152     1570624.880 9   1224534.43947  21550165.451    21550172.0374
  22897043.249     2903005.613 8   2265139.34046  22897043.216    22897052.2614
  22519842.886   -10435613.125 8  -8110331.87246  22519842.997    22519854.4894
  20574971.098     -964550.907 9   -630079.82848  20574970.404    20574976.3424
  23472825.808    11044954.510 8   8595655.90245  23472825.220    23472837.7514
  22733259.525   -10580183.193 8  -8217483.57546  22733259.282    22733267.9304
 00  4 13 16 31  0.0000000  0  6 02 26 04 07 08 09
  21555351.814     1597875.574 9   1245768.69947  21555351.121    21555357.7124
  22907750.865     2959274.369 8   2308985.00246  22907750.844    22907759.9004
  22501464.593   -10532191.018 8  -8185587.16246  22501464.691    22501476.0604
  20579615.242     -940145.927 9   -611062.96748  20579614.549    20579620.4664
  23493005.547    11150998.373 8   8678287.05345  23493004.910    23493017.5814
  22716918.942   -10666052.997 8  -8284394.96946  22716918.674    22716927.2864
 00  4 13 16 31 30.0000000  0  6 02 26 04 07 08 09
  21560565.628     1625274.215 9   1267118.24247  21560564.931    21560571.5384
  22918524.016     3015887.508 8   2353099.00846  22918524.036    22918533.1714
  22483123.991   -10628571.137 8  -8260688.35546  22483124.067    22483135.3164
  20584329.847     -915370.544 9   -591757.48048  20584329.135    20584335.0884
  23513220.155    11257225.638 8   8761061.11445  23513219.596    23513232.3304
  22700629.052   -10751656.365 8  -8351098.74746  22700628.772    22700637.3724
 00  4 13 16 32  0.0000000  0  6 02 26 04 07 08 09
  21565812.174     1652844.967 9   1288601.90147  21565811.479    21565818.0914
  22929366.283     3072863.572 8   2397495.81746  22929366.300    22929375.4974
  22464826.037   -10724727.221 8  -8335614.96546  22464826.125    22464837.2674
  20589118.381     -890206.505 9   -572149.14148  20589117.671    20589123.6434
  23533471.145    11363643.872 8   8843983.97545  23533470.566    23533483.5424
  22684391.814   -10836983.186 8  -8417587.03946  22684391.583    22684400.0844
 00  4 13 16 32 30.0000000  0  6 02 26 04 07 08 09
  21571096.228     1680612.740 9   1310239.10247  21571095.551    21571102.1784
  22940281.953     3130225.186 8   2442193.05346  22940281.973    22940291.2004
  22446573.974   -10820641.969 8  -8410353.52146  22446574.070    22446585.1164
  20593983.525     -864639.949 9   -552227.14948  20593982.812    20593988.8044
  23553758.121    11470251.229 8   8927054.21545  23553757.552    23553770.6524
  22668207.227   -10922033.374 8  -8483859.77046  22668206.987    22668215.4214
 00  4 13 16 33  0.0000000  0  6 02 26 04 07 08 09
  21576424.446     1708612.504 9   1332057.06647  21576423.773    21576430.4314
  22951271.411     3187974.737 8   2487192.56946  22951271.405    22951280.6764
  22428371.450   -10916296.649 8  -8484889.43546  22428371.531    22428382.4664
  20598924.881     -838673.144 9   -531993.27848  20598924.162    20598930.1804
  23574085.349    11577070.073 8   9010289.21845  23574084.810    23574098.0364
  22652075.727   -11006804.331 8  -8549914.93446  22652075.535    22652083.9074
 00  4 13 16 33 30.0000000  0  6 02 26 04 07 08 09
  21581796.078     1736840.540 9   1354052.90047  21581795.394    21581802.0604
  22962331.351     3246095.209 8   2532481.12146  22962331.348    22962340.7064
  22410220.801   -11011678.990 8  -8559213.13046  22410220.887    22410231.6504
  20603938.833     -812324.542 9   -511461.89948  20603938.111    20603944.1244
  23594451.804    11684094.936 8   9093684.76145  23594451.320    23594464.6754
  22635995.273   -11091307.429 8  -8615761.37446  22635995.047    22636003.3354
 00  4 13 16 34  0.0000000  0  6 02 26 04 07 08 09
  21587211.872     1765300.690 9   1376229.60647  21587211.175    21587217.8644
  22973461.024     3304581.763 8   2578054.92346  22973461.043    22973470.4064
  22392120.783   -11106794.826 8  -8633329.16946  22392120.818    22392131.4764
  20609022.593     -785608.958 9   -490644.56248  20609021.891    20609027.8934
  23614854.414    11791309.573 8   9177228.16945  23614853.925    23614867.4684
  22619966.502   -11175538.614 8  -8681395.92946  22619966.264    22619974.5464
 00  4 13 16 34 30.0000000  0  6 02 26 04 07 08 09
  21592667.786     1793971.721 9   1398570.63347  21592667.107    21592673.7724
  22984655.829     3363409.971 8   2623894.95246  22984655.834    22984665.1774
  22374068.500   -11201659.313 8  -8707249.35146  22374068.545    22374079.1174
  20614171.661     -758550.517 9   -469560.05648  20614170.956    20614176.9754
  23635292.603    11898711.271 8   9260917.34345  23635292.147    23635305.8254
  22603989.739   -11259496.710 8  -8746817.68246  22603989.524    22603997.7334
 00  4 13 16 35  0.0000000  0  6 02 26 04 07 08 09
  21598157.816     1822821.547 9   1421050.98547  21598157.127    21598163.7844
  22995909.867     3422549.656 8   2669977.67846  22995909.882    22995919.2134
  22356059.299   -11296297.411 8  -8780993.12846  22356059.382    22356069.9054
  20619382.065     -731169.769 9   -448224.39848  20619381.359    20619387.3874
  23655764.945    12006292.454 8   9344746.36445  23655764.514    23655778.3944
  22588065.236   -11343179.670 8  -8812025.05946  22588065.028    22588073.2494
 00  4 13 16 35 30.0000000  0  6 02 26 04 07 08 09
  21603677.965     1851829.938 9   1443654.89447  21603677.285    21603683.9584
  23007223.348     3482002.054 8   2716304.08946  23007223.410    23007232.7704
  22338092.217   -11390714.409 8  -8854564.62346  22338092.251    22338102.7544
  20624657.003     -703449.650 9   -426624.29248  20624656.288    20624662.3134
  23676266.786    12114028.912 7   9428696.37745  23676266.411    23676280.4414
  22572192.690   -11426589.773 8  -8877019.82246  22572192.457    22572200.6854
 00  4 13 16 36  0.0000000  0  6 02 26 04 07 08 09
  21609231.831     1881015.694 9   1466397.00447  21609231.151    21609237.8584
  23018599.648     3541784.291 8   2762887.50446  23018599.695    23018609.1404
  22320168.163   -11484905.112 8  -8927959.77246  22320168.209    22320178.6474
  20629997.893     -675383.093 9   -404754.24048  20629997.200    20630003.2234
  23696799.592    12221927.727 7   9512772.88845  23696799.167    23696813.3804
  22556375.225   -11509710.446 8  -8941789.04146  22556374.987    22556383.1904
 00  4 13 16 36 30.0000000  0  6 02 26 04 07 08 09
  21614818.379     1910373.174 9   1489272.93147  21614817.713    21614824.4394
  23030038.343     3601894.446 8   2809726.44246  23030038.366    23030047.8554
  22302289.275   -11578858.592 8  -9001170.08646  22302289.337    22302299.6884
  20635403.746     -646975.152 9   -382618.18448  20635403.038    20635409.0574
  23717364.718    12329996.747 7   9596982.01945  23717364.310    23717378.6744
  22540612.345   -11592544.215 8  -9006334.70246  22540612.090    22540620.2844
 00  4 13 16 37  0.0000000  0  6 02 26 04 07 08 09
  21620439.405     1939911.718 9   1512289.93847  21620438.742    21620445.5014
  23041541.102     3662340.794 8   2856827.34046  23041541.143    23041550.6734
  22284456.933   -11672567.239 8  -9074189.62146  22284456.972    22284467.3684
  20640875.527     -618220.917 9   -360212.30148  20640874.820    20640880.8244
  23737960.662    12438227.189 7   9681316.91445  23737960.122    23737974.7604
  22524904.266   -11675090.088 8  -9070656.03746  22524903.984    22524912.1364
 00  4 13 16 37 30.0000000  0  6 02 26 04 07 08 09
  21626098.890     1969652.484 9   1535464.51947  21626098.234    21626105.0084
  23053108.863     3723128.641 8   2904194.34346  23053108.865    23053118.4094
  22266673.081   -11766020.941 8  -9147010.49046  22266673.123    22266683.5574
  20646412.685     -589123.164 9   -337538.74148  20646411.956    20646417.9484
  23758585.820    12546610.858 7   9765771.20845  23758585.223    23758600.1104
  22509251.173   -11757347.032 8  -9134752.22746  22509250.890    22509259.0064
 00  4 13 16 38  0.0000000  0  6 02 26 04 07 08 09
  21631796.213     1999591.842 9   1558793.84947  21631795.549    21631802.3494
  23064737.264     3784235.783 8   2951810.14146  23064737.274    23064746.9184
  22248937.562   -11859220.699 8  -9219633.49546  22248937.622    22248948.0254
  20652011.483     -559701.182 9   -314612.53548  20652010.770    20652016.7604
  23779239.708    12655145.506 8   9850343.14545  23779239.104    23779253.9874
  22493653.915   -11839310.836 8  -9198620.00146  22493653.648    22493661.6974
 00  4 13 16 38 30.0000000  0  6 02 26 04 07 08 09
  21637528.826     2029716.722 9   1582267.74447  21637528.161    21637534.9844
  23076423.114     3845645.046 8   2999661.35746  23076423.145    23076432.8524
  22231247.058   -11952184.066 8  -9292072.28946  22231247.118    22231257.4984
  20657671.036     -529960.152 9   -291437.71848  20657670.332    20657676.3154
  23799919.886    12763818.178 8   9935022.61645  23799919.338    23799934.3464
  22478111.513   -11920986.468 8  -9262263.21846  22478111.267    22478119.2844
 00  4 13 16 39  0.0000000  0  6 02 26 04 07 08 09
  21643298.350     2060035.649 9   1605892.83647  21643297.687    21643304.5314
  23088166.445     3907355.657 8   3047747.37846  23088166.405    23088176.1204
  22213601.383   -12044911.603 8  -9364327.31846  22213601.474    22213611.8064
  20663392.558     -499893.319 9   -268009.03248  20663391.832    20663397.8374
  23820624.110    12872617.093 7  10019800.45645  23820623.594    23820638.6504
  22462624.102   -12002373.133 8  -9325681.27546  22462623.829    22462631.8574
 00  4 13 16 39 30.0000000  0  6 02 26 04 07 08 09
  21649104.360     2090546.192 9   1629667.23847  21649103.657    21649110.5234
  23099968.618     3969375.896 8   3096074.67546  23099968.594    23099978.2784
  22196003.153   -12137389.951 8  -9436388.17446  22196003.247    22196013.5674
  20669176.880     -469496.292 9   -244323.05748  20669176.167    20669182.1934
  23841353.592    12981548.363 7  10104681.43245  23841353.024    23841368.2514
  22447192.417   -12083466.418 8  -9388870.72746  22447192.162    22447200.1934
 00  4 13 16 40  0.0000000  0  6 02 26 04 07 08 09
  21654946.841     2121248.650 9   1653591.18847  21654946.163    21654953.0384
  23111830.976     4031712.517 8   3144648.50346  23111830.912    23111840.6254
  22178454.905   -12229605.828 8  -9508244.51146  22178454.946    22178465.2244
  20675025.428     -438761.898 9   -220374.19648  20675024.728    20675030.7554
  23862110.349    13090623.184 7  10189674.24345  23862109.675    23862125.0184
  22431817.137   -12164263.668 8  -9451829.49946  22431816.877    22431824.9134
 00  4 13 16 40 30.0000000  0  6 02 26 04 07 08 09
  21660828.749     2152158.061 9   1677676.39547  21660828.051    21660834.9294
  23123755.441     4094375.345 8   3193476.51246  23123755.377    23123765.1504
  22160959.323   -12321545.011 8  -9579885.24246  22160959.397    22160969.5944
  20680939.003     -407685.899 9   -196159.15548  20680938.314    20680944.3464
  23882895.829    13199849.427 8  10274785.03645  23882895.165    23882910.5754
  22416498.587   -12244762.716 8  -9514555.90446  22416498.351    22416506.4044
 00  4 13 16 41  0.0000000  0  6 02 26 04 07 08 09
  21666750.164     2183274.990 9   1701923.31347  21666749.471    21666756.3444
  23135739.957     4157353.677 8   3242550.36546  23135739.920    23135749.7474
  22143521.089   -12413183.044 8  -9651291.31146  22143521.160    22143531.2464
  20686916.221     -376275.597 9   -171683.60348  20686915.526    20686921.5564
  23903710.198    13309227.171 8  10360013.89245  23903709.535    23903724.9794
  22401237.244   -12324961.073 8  -9577048.01146  22401236.987    22401245.0474
 00  4 13 16 41 30.0000000  0  6 02 26 04 07 08 09
  21672709.807     2214593.104 9   1726326.99147  21672709.126    21672716.0104
  23147782.175     4220635.340 8   3291860.58346  23147782.213    23147792.0304
  22126140.780   -12504516.727 8  -9722460.22446  22126140.842    22126150.8054
  20692956.091     -344536.215 9   -146951.62948  20692955.395    20692961.4074
  23924555.353    13418766.639 8  10445368.75545  23924554.654    23924570.1114
  22386034.124   -12404853.525 8  -9639301.74546  22386033.861    22386041.9384
 00  4 13 16 42  0.0000000  0  6 02 26 04 07 08 09
  21678707.686     2246111.948 9   1750887.08447  21678707.013    21678713.8974
  23159877.784     4284197.411 8   3341389.30346  23159877.760    23159887.6414
  22108816.241   -12595557.066 8  -9793400.54546  22108816.275    22108826.1804
  20699057.355     -312473.823 9   -121967.95948  20699056.651    20699062.6794
  23945428.733    13528454.575 7  10530839.31945  23945428.124    23945443.6184
  22370889.059   -12484441.099 8  -9701317.92546  22370888.776    22370896.7934
 00  4 13 16 42 30.0000000  0  6 02 26 04 07 08 09
  21684742.833     2277826.591 9   1775599.74847  21684742.145    21684749.0414
  23172026.990     4348041.737 8   3391137.94746  23172026.950    23172036.9164
  22091547.848   -12686302.414 8  -9864111.00746  22091547.920    22091557.7694
  20705221.196     -280082.641 9    -96728.08748  20705220.494    20705226.5234
  23966330.316    13638290.487 8  10616425.16745  23966329.715    23966345.1664
  22355801.952   -12563724.072 8  -9763096.74146  22355801.661    22355809.6524
 00  4 13 16 43  0.0000000  0  6 02 26 04 07 08 09
  21690814.344     2309732.358 9   1800461.34047  21690813.632    21690820.5474
  23184231.226     4412175.091 8   3441111.81346  23184231.221    23184241.1954
  22074336.783   -12776746.424 8  -9934586.66246  22074336.854    22074346.6074
  20711449.306     -247353.666 9    -71225.00548  20711448.612    20711454.6364
  23987260.582    13748277.385 7  10702128.66545  23987260.005    23987275.4704
  22340776.032   -12642685.258 8  -9824624.83046  22340775.733    22340783.6884
 00  4 13 16 43 30.0000000  0  6 02 26 04 07 08 09
  21696923.125     2341833.928 9   1825475.49547  21696922.423    21696929.3184
  23196492.494     4476607.557 8   3491318.74946  23196492.472    23196502.4104
  22057182.858   -12866890.295 8 -10004828.44246  22057182.900    22057192.5974
  20717742.828     -214281.003 9    -45454.11748  20717742.136    20717748.1644
  24008220.295    13858418.910 8  10787952.63845  24008219.614    24008235.2454
  22325813.269   -12721314.814 8  -9885894.50546  22325812.961    22325820.8944
 00  4 13 16 44  0.0000000  0  6 02 26 04 07 08 09
  21703070.552     2374138.825 9   1850648.08347  21703069.847    21703076.7564
  23208812.144     4541346.491 8   3541764.49646  23208812.054    23208822.1054
  22040087.758   -12956725.103 8 -10074829.38946  22040087.775    22040097.3974
  20724100.227     -180872.734 9    -19421.71348  20724099.515    20724105.5734
  24029205.957    13968697.135 7  10873883.14145  24029205.286    24029221.0214
  22310914.676   -12799606.833 8  -9946901.16846  22310914.385    22310922.2444
 00  4 13 16 44 30.0000000  0  6 02 26 04 07 08 09
  21709256.658     2406647.053 9   1875979.12047  21709255.974    21709262.8844
  23221188.973     4606386.363 8   3592444.73446  23221188.875    23221199.0014
  22023051.771   -13046249.095 8 -10144588.14846  22023051.779    22023061.3324
  20730519.151     -147140.975 9      6862.76748  20730518.441    20730524.5234
  24050217.384    14079111.246 7  10959919.51545  24050216.801    24050232.5974
  22296081.029   -12877557.316 8 -10007641.69946  22296080.735    22296088.6154
 00  4 13 16 45  0.0000000  0  6 02 26 04 07 08 09
  21715479.501     2439347.953 9   1901460.28147  21715478.827    21715485.7214
  23233618.000     4671701.451 8   3643339.42346  23233617.951    23233628.1674
  22006071.457   -13135480.565 8 -10214118.96946  22006071.494    22006081.0124
  20736994.252     -113114.173 9     33377.14748  20736993.548    20736999.6214
  24071250.591    14189639.462 7  11046044.80545  24071249.980    24071266.0974
  22281313.030   -12955163.040 8 -10068113.59046  22281312.768    22281320.6184
 00  4 13 16 45 30.0000000  0  6 02 26 04 07 08 09
  21721736.739     2472229.595 9   1927082.29047  21721736.055    21721742.9254
  23246096.424     4737275.162 8   3694435.64746  23246096.362    23246106.6254
  21989145.037   -13224428.713 8 -10283429.01846  21989145.092    21989154.5794
  20743522.440      -78808.401 9     60108.90848  20743521.749    20743527.8274
  24092302.573    14300266.534 7  11132247.10945  24092301.965    24092318.3174
  22266606.394   -13032446.768 8 -10128334.56946  22266606.130    22266613.9604
 00  4 13 16 46  0.0000000  0  6 02 26 04 07 08 09
  21728027.293     2505286.487 9   1952840.85047  21728026.610    21728033.4774
  23258624.220     4803108.059 8   3745733.82246  23258624.129    23258634.4544
  21972273.302   -13313089.469 8 -10352515.12146  21972273.352    21972282.8464
  20750104.314      -44220.517 9     87060.49348  20750103.612    20750109.7014
  24113373.796    14410994.687 7  11218528.18245  24113373.268    24113389.5574
  22251959.386   -13109417.234 8 -10188311.46446  22251959.130    22251966.8934
 00  4 13 16 46 30.0000000  0  6 02 26 04 07 08 09
  21734352.583     2538525.862 9   1978741.60547  21734351.891    21734358.7854
  23271201.078     4869200.108 8   3797233.93646  23271201.122    23271211.5884
  21955459.416   -13401446.284 8 -10421364.40546  21955459.472    21955468.9514
  20756743.220       -9332.721 9    114245.77948  20756742.526    20756748.6054
  24134468.566    14521846.747 7  11304905.79345  24134468.094    24134484.4904
  22237371.387   -13186077.314 8 -10248046.49846  22237371.148    22237378.8624
 00  4 13 16 47  0.0000000  0  6 02 26 04 07 08 09
  21740714.697     2571958.601 9   2004793.03547  21740714.007    21740720.8784
  23283831.137     4935571.093 8   3848951.40846  23283831.189    23283841.7554
  21938708.850   -13489470.246 8 -10489954.31946  21938708.908    21938718.3924
  20763442.927       25874.237 9    141679.76248  20763442.248    20763448.2964
  24155589.506    14632835.264 7  11391389.74345  24155588.982    24155605.3994
  22222843.729   -13262420.124 8 -10307534.29546  22222843.496    22222851.1934
 00  4 13 16 47 30.0000000  0  6 02 26 04 07 08 09
  21747117.568     2605605.471 8   2031011.31047  21747116.864    21747123.7404
  23296518.521     5002243.087 8   3900903.41946  23296518.535    23296529.1624
  21922027.467   -13577130.686 8 -10558260.96946  21922027.517    21922036.9834
  20770206.837       61418.438 9    169376.53248  20770206.116    20770212.1534
  24176740.513    14743982.231 7  11477997.14145  24176739.940    24176756.4374
  22208378.582   -13338434.740 8 -10366766.36746  22208378.350    22208386.0024
 00  4 13 16 48  0.0000000  0  6 02 26 04 07 08 09
  21753564.217     2639482.853 8   2057409.21247  21753563.501    21753570.4244
  23309264.254     5069221.718 8   3953094.36446  23309264.272    23309274.8054
  21905416.039   -13664423.442 8 -10626281.11246  21905416.086    21905425.5494
  20777035.343       97302.660 9    197338.25348  20777034.618    20777040.6564
  24197922.447    14855292.159 7  11564731.52745  24197922.016    24197938.6134
  22193979.017   -13414104.621 8 -10425729.80746  22193978.768    22193986.4064
 00  4 13 16 48 30.0000000  0  6 02 26 04 07 08 09
  21760054.894     2673591.450 8   2083987.28547  21760054.198    21760061.1544
  23322066.072     5136494.481 8   4005514.50546  23322066.069    23322076.5164
  21888872.805   -13751357.800 8 -10694022.00346  21888872.829    21888882.2784
  20783926.205      133514.378 9    225555.15848  20783925.498    20783931.5494
  24219132.369    14966748.589 7  11651580.05045  24219131.903    24219148.6904
  22179647.492   -13489416.850 8 -10484414.56046  22179647.240    22179654.8694
 00  4 13 16 49  0.0000000  0  6 02 26 04 07 08 09
  21766585.835     2707911.543 9   2110730.16047  21766585.147    21766592.1124
  23334922.363     5204053.787 8   4058157.91746  23334922.389    23334932.8594
  21872391.628   -13837966.177 8 -10761508.88546  21872391.679    21872401.1044
  20790876.195      170036.851 9    254014.21348  20790875.486    20790881.5694
  24240366.499    15078332.161 7  11738527.66045  24240366.063    24240382.9034
  22165385.782   -13564362.268 8 -10542813.48847  22165385.533    22165393.1334
 00  4 13 16 49 30.0000000  0  6 02 26 04 07 08 09
  21773155.357     2742434.386 8   2137631.02347  21773154.659    21773161.6624
  23347828.065     5271872.629 8   4111003.57046  23347828.074    23347838.6274
  21855968.018   -13924272.101 8 -10828760.09746  21855968.088    21855977.4424
  20797882.512      206855.476 9    282704.03048  20797881.806    20797887.8954
  24261620.465    15190020.405 7  11825556.81845  24261620.089    24261637.0724
  22151192.029   -13638950.359 8 -10600933.97947  22151191.789    22151199.3934
 00  4 13 16 50  0.0000000  0  6 02 26 04 07 08 09
  21779763.243     2777158.913 8   2164689.04147  21779762.544    21779769.5884
  23360780.708     5339938.096 8   4164041.40046  23360780.738    23360791.2884
  21839599.580   -14010288.136 8 -10895785.42146  21839599.670    21839608.9694
  20804946.020      243974.274 9    311627.75248  20804945.306    20804951.4114
  24282890.328    15301791.714 7  11912650.68845  24282889.834    24282906.9124
  22137065.326   -13713186.386 8 -10658780.14047  22137065.079    22137072.6724
 00  4 13 16 50 30.0000000  0  6 02 26 04 07 08 09
  21786409.721     2812086.199 9   2191905.04747  21786409.023    21786416.0844
  23373778.991     5408243.704 8   4217266.34146  23373779.089    23373789.5934
  21823287.317   -14096009.060 8 -10962580.79946  21823287.413    21823296.6504
  20812068.496      281402.948 9    340792.93248  20812067.785    20812073.8704
  24304175.904    15413645.819 7  11999809.08745  24304175.458    24304192.8284
  22123006.248   -13787067.169 8 -10716349.49347  22123005.962    22123013.5774
 00  4 13 16 51  0.0000000  0  6 02 26 04 07 08 09
  21793097.596     2847230.822 8   2219290.40047  21793096.873    21793103.9624
  23386824.729     5476798.558 8   4270685.51046  23386824.808    23386835.2624
  21807034.904   -14181415.578 8 -11029131.18846  21807034.984    21807044.1764
  20819253.000      319157.613 9    370212.13648  20819252.272    20819258.3474
  24325479.930    15525596.522 7  12087042.75045  24325479.520    24325497.0294
  22109013.758   -13860597.629 8 -10773645.86447  22109013.459    22109021.0634
 00  4 13 16 51 30.0000000  0  6 02 26 04 07 08 09
  21799830.030     2882609.913 8   2246858.46547  21799829.322    21799836.4244
  23399919.041     5545608.887 8   4324303.73746  23399919.133    23399929.5334
  21790849.358   -14266470.398 8 -11095407.53547  21790849.449    21790858.5834
  20826501.875      357250.541 9    399894.91748  20826501.163    20826507.1974
  24346804.800    15637656.987 7  12174361.93645  24346804.307    24346822.0124
  22095089.019   -13933771.938 8 -10830664.71847  22095088.748    22095096.3494
 00  4 13 16 52  0.0000000  0  7 02 26 04 24 07 08 09
  21806611.920     2918248.800 8   2274628.97047  21806611.227    21806618.3384
  23413067.977     5614705.615 8   4378145.13346  23413068.019    23413078.4604
  21774738.318   -14351133.754 8 -11161378.84847  21774738.433    21774747.4794
  24351273.998    -5372400.422 7  -4157738.22145  24351273.695    24351294.6084
  20833820.696      395711.229 9    429864.26448  20833819.996    20833826.0304
  24368159.866    15749875.564 7  12261804.32645  24368159.283    24368177.0624
  22081239.837   -14006549.191 8 -10887374.18347  22081239.576    22081247.1854
 00  4 13 16 52 30.0000000  0  7 02 26 04 24 07 08 09
  21813433.264     2954094.933 8   2302560.96547  21813432.555    21813439.6864
  23426262.205     5684040.764 8   4432172.31446  23426262.255    23426272.7704
  21758697.830   -14435426.525 8 -11227061.39047  21758697.957    21758706.9364
  24330593.512    -5481076.382 7  -4242420.52945  24330593.151    24330614.0164
  20841198.520      434481.770 9    460075.05048  20841197.799    20841203.8454
  24389538.291    15862217.457 7  12349342.78845  24389537.703    24389555.6404
  22067459.023   -14078967.416 8 -10943803.88047  22067458.757    22067466.3254
 00  4 13 16 53  0.0000000  0  7 02 26 04 24 07 08 09
  21820294.075     2990148.134 8   2330654.31447  21820293.385    21820300.4654
  23439503.775     5753624.952 8   4486393.54546  23439503.839    23439514.3924
  21742731.944   -14519327.218 8 -11292438.40547  21742732.070    21742740.9934
  24309914.232    -5589745.884 7  -4327097.78245  24309913.847    24309934.7944
  20848632.832      473549.244 9    490517.20948  20848632.122    20848638.1524
  24410940.563    15974685.047 7  12436979.20045  24410940.117    24410958.1354
  22053748.814   -14151014.714 8 -10999944.55347  22053748.538    22053756.0854
 00  4 13 16 53 30.0000000  0  7 02 26 04 24 07 08 09
  21827193.799     3026405.998 8   2358907.14647  21827193.099    21827200.1664
  23452788.722     5823437.673 8   4540792.86146  23452788.742    23452799.5134
  21726839.835   -14602840.474 8 -11357513.53447  21726839.922    21726848.7764
  24289234.587    -5698417.294 7  -4411776.50445  24289234.024    24289255.0394
  20856118.715      512887.844 9    521170.63748  20856117.980    20856124.0414
  24432363.875    16087262.712 7  12524701.36045  24432363.425    24432381.5494
  22040112.593   -14222673.277 8 -11055782.30647  22040112.308    22040119.8504
 00  4 13 16 54  0.0000000  0  7 02 26 04 24 07 08 09
  21834131.105     3062861.809 8   2387314.21847  21834130.396    21834137.5224
  23466113.906     5893461.810 8   4595356.90746  23466113.907    23466124.9124
  21711016.890   -14685990.221 8 -11422305.41947  21711016.956    21711025.7824
  24268549.707    -5807115.933 7  -4496476.40945  24268549.244    24268569.9684
  20863652.058      552476.012 9    552018.53248  20863651.345    20863657.4284
  24453801.776    16199917.185 7  12612483.38145  24453801.244    24453819.8194
  22026548.762   -14293951.599 8 -11111323.78347  22026548.478    22026556.0254
 00  4 13 16 54 30.0000000  0  7 02 26 04 24 07 08 09
  21841106.164     3099515.825 8   2415875.73747  21841105.457    21841112.5644
  23479479.669     5963698.394 8   4650086.49246  23479479.664    23479490.6924
  21695262.231   -14768780.805 8 -11486817.45547  21695262.313    21695271.0814
  24247857.997    -5915850.292 7  -4581204.12445  24247857.488    24247878.2934
  20871231.195      592304.561 9    583053.73648  20871230.448    20871236.5654
  24475249.229    16312621.368 7  12700304.13345  24475248.707    24475267.3804
  22013056.463   -14364853.659 8 -11166572.05647  22013056.199    22013063.7344
 00  4 13 16 55  0.0000000  0  7 02 26 04 24 07 08 09
  21848119.425     3136370.561 8   2444593.66047  21848118.712    21848125.8504
  23492883.288     6034134.120 8   4704971.25746  23492883.305    23492894.3864
  21679569.741   -14851245.015 8 -11551075.14747  21679569.826    21679578.5364
  24227155.211    -6024642.860 7  -4665977.19845  24227154.980    24227175.4154
  20878855.410      632370.132 9    614273.63348  20878854.680    20878860.7954
  24496705.156    16425370.377 7  12788159.81645  24496704.624    24496723.5934
  21999635.714   -14435379.826 8 -11221527.43247  21999635.460    21999642.9544
 00  4 13 16 55 30.0000000  0  7 02 26 04 24 07 08 09
  21855169.976     3173421.263 8   2473464.26647  21855169.281    21855176.4404
  23506319.689     6104742.760 8   4759990.74546  23506319.723    23506330.9604
  21663935.874   -14933400.850 8 -11615092.57247  21663935.969    21663944.6424
  24206439.735    -6133501.816 7  -4750801.99545  24206439.501    24206459.8944
  20886524.743      672672.720 9    645678.21648  20886524.020    20886530.1544
  24518167.688    16538153.688 7  12876042.22145  24518167.084    24518186.2764
  21986282.234   -14505552.625 8 -11276207.45747  21986281.974    21986289.4484
 00  4 13 16 56  0.0000000  0  6 02 26 04 24 07 09
  21862261.895     3210689.184 8   2502504.15047  21862261.201    21862268.3554
  23519797.986     6175570.797 8   4815181.19346  23519797.983    23519809.3784
  21648367.026   -15015215.238 8 -11678843.94947  21648367.138    21648375.7764
  24185720.844    -6242379.162 7  -4835641.10145  24185720.505    24185740.8844
  20894247.130      713253.924 9    677299.90348  20894246.414    20894252.5664
  21972998.810   -14575357.238 8 -11330600.58747  21972998.560    21973006.0074
 00  4 13 16 56 30.0000000  0  6 02 26 04 24 07 09
  21869389.309     3248143.778 8   2531689.48747  21869388.597    21869395.7414
  23533314.307     6246598.527 8   4870527.22946  23533314.285    23533325.6764
  21632861.278   -15096698.167 8 -11742337.05647  21632861.362    21632869.9984
  24164997.196    -6351281.561 7  -4920499.75545  24164996.832    24165017.1284
  20902018.309      754091.497 9    709121.35848  20902017.594    20902023.7574
  21959781.091   -14644816.702 8 -11384724.76647  21959780.870    21959788.2284
 00  4 13 16 57  0.0000000  0  6 02 26 04 24 07 09
  21876547.947     3285762.568 8   2561002.75147  21876547.251    21876554.3914
  23546863.613     6317799.202 8   4926008.04246  23546863.605    23546874.9954
  21617416.258   -15177861.868 8 -11805581.41047  21617416.334    21617424.9634
  24144265.792    -6460224.497 7  -5005389.98645  24144265.553    24144285.6074
  20909833.146      795158.416 9    741121.52848  20909832.424    20909838.5934
  21946624.139   -14713956.668 8 -11438599.99147  21946623.899    21946631.2004
 00  4 13 16 57 30.0000000  0  6 02 26 04 24 07 09
  21883741.374     3323564.004 8   2590458.33447  21883740.681    21883747.8824
  23560453.045     6389211.172 8   4981653.48546  23560453.047    23560464.4834
  21602041.665   -15258655.286 8 -11868537.23547  21602041.738    21602050.3954
  24123536.770    -6569155.020 7  -5090270.55445  24123536.544    24123556.4154
  20917696.564      836481.001 9    773320.91648  20917695.831    20917702.0254
  21933531.637   -14782757.958 8 -11492211.31547  21933531.402    21933538.6444
 00  4 13 16 58  0.0000000  0  6 02 26 04 24 07 09
  21890972.100     3361561.635 8   2620066.80847  21890971.406    21890978.6544
  23574088.718     6460866.387 8   5037488.47446  23574088.758    23574100.2294
  21586742.769   -15339050.931 8 -11931183.09847  21586742.859    21586751.5134
  24102814.802    -6678048.078 7  -5175121.92345  24102814.479    24102834.3674
  20925611.617      878074.821 9    805731.66248  20925610.881    20925617.0784
  21920510.005   -14851186.642 8 -11545532.29447  21920509.767    21920516.9794
 00  4 13 16 58 30.0000000  0  6 02 26 04 24 07 09
  21898243.602     3399773.283 8   2649842.05347  21898242.902    21898250.1704
  23587770.941     6532765.725 8   5093513.67846  23587771.035    23587782.4844
  21571525.336   -15419018.417 8 -11993495.32047  21571525.414    21571534.1004
  24082103.630    -6786884.479 7  -5259929.15745  24082103.348    24082123.0554
  20933581.726      919957.959 9    838367.84648  20933581.023    20933587.2074
  21907563.106   -14919222.791 8 -11598547.41147  21907562.880    21907570.0894
 00  4 13 16 59  0.0000000  0  6 02 26 04 24 07 09
  21905560.707     3438224.780 8   2679804.18747  21905560.006    21905567.2984
  23601499.486     6604908.324 8   5149728.43546  23601499.551    23601510.9894
  21556393.488   -15498536.396 8 -12055457.29347  21556393.540    21556402.2094
  24061405.245    -6895654.142 7  -5344684.36545  24061404.966    24061424.5404
  20941610.401      962148.754 9    871243.76248  20941609.685    20941615.9004
  21894692.913   -14986855.856 8 -11651248.43447  21894692.690    21894699.9014
 00  4 13 16 59 30.0000000  0  6 02 26 04 24 07 09
  21912925.874     3476928.555 8   2709962.89547  21912925.148    21912932.4734
  23615273.563     6677290.776 8   5206130.08346  23615273.666    23615285.1414
  21541347.951   -15577600.729 8 -12117065.75047  21541348.005    21541356.6394
  24040719.721    -7004356.020 7  -5429386.76445  24040719.517    24040738.9404
  20949699.933     1004659.667 9    904369.12348  20949699.235    20949705.4334
  21881903.671   -15054063.410 8 -11703617.89847  21881903.434    21881910.6354
 00  4 13 17  0  0.0000000  0  6 02 26 04 24 07 09
  21920340.463     3515892.192 8   2740324.11547  21920339.765    21920347.0714
  23629089.534     6749893.012 8   5262702.99346  23629089.631    23629101.2014
  21526386.907   -15656221.078 8 -12178328.23947  21526386.983    21526395.5774
  24020042.665    -7113013.544 8  -5514054.58845  24020042.391    24020061.6864
  20957849.595     1047486.292 9    937740.49347  20957848.903    20957855.1264
  21869197.851   -15120832.736 8 -11755645.87947  21869197.610    21869204.8034
 00  4 13 17  0 30.0000000  0  6 02 26 04 24 07 09
  21927805.987     3555123.438 8   2770893.84947  21927805.266    21927812.6264
  23642944.767     6822701.854 8   5319436.90545  23642944.850    23642956.5444
  21511509.831   -15734400.591 8 -12239247.21347  21511509.902    21511518.4324
  23999371.844    -7221637.577 7  -5598696.31945  23999371.572    23999390.8764
  20966058.294     1090623.164 9    971353.61847  20966057.590    20966063.8334
  21856574.377   -15187169.405 8 -11807336.73147  21856574.129    21856581.3194
 00  4 13 17  1  0.0000000  0  6 02 26 04 24 07 09
  21935321.176     3594616.157 8   2801667.33147  21935320.454    21935327.8244
  23656836.925     6895704.604 8   5376321.89945  23656837.012    23656848.6914
  21496710.238   -15812172.795 8 -12299848.80247  21496710.287    21496718.7604
  23978702.212    -7330256.280 7  -5683333.89545  23978701.871    23978721.0514
  20974321.824     1134048.208 9   1005191.29247  20974321.120    20974327.3674
  21844031.621   -15253081.320 8 -11858696.60447  21844031.412    21844038.5994
 00  4 13 17  1 30.0000000  0  6 02 26 04 24 07 09
  21942880.063     3634338.127 8   2832619.45247  21942879.371    21942886.7064
  23670762.830     6968884.101 8   5433344.61245  23670762.851    23670774.3984
  21481981.517   -15889572.441 8 -12360160.08747  21481981.594    21481989.9774
  23958030.110    -7438887.586 7  -5767981.29345  23958029.712    23958048.8704
  20982635.487     1177736.539 9   1039234.12147  20982634.784    20982641.0274
  21831567.682   -15318579.589 8 -11909734.15947  21831567.490    21831574.6744
 00  4 13 17  2  0.0000000  0  6 02 26 04 24 07 09
  21950478.941     3674270.419 8   2863735.45347  21950478.280    21950485.5954
  23684722.367     7042240.938 8   5490505.50945  23684722.398    23684733.9224
  21467322.750   -15966604.529 8 -12420184.96747  21467322.812    21467331.1714
  23937355.903    -7547528.985 7  -5852636.54845  23937355.724    23937374.8734
  20990996.589     1221674.330 9   1073471.33947  20990995.886    20991002.1374
  21819178.316   -15383686.185 8 -11960466.51447  21819178.097    21819185.2764
 00  4 13 17  2 30.0000000  0  6 02 26 04 24 07 09
  21958116.575     3714406.060 8   2895009.90147  21958115.913    21958123.2554
  23698717.007     7115782.134 8   5547810.06145  23698717.039    23698728.5054
  21452735.886   -16043258.437 8 -12479915.17147  21452735.930    21452744.2644
  23916683.489    -7656161.805 7  -5937285.11845  23916683.296    23916702.3934
  20999404.424     1265857.610 9   1107899.84047  20999403.735    20999409.9824
  21806862.403   -15448406.576 8 -12010897.93347  21806862.174    21806869.3184
 00  4 13 17  3  0.0000000  0  6 02 26 04 24 07 09
  21965791.643     3754738.599 8   2926437.76647  21965790.979    21965798.3224
  23712746.523     7189506.386 8   5605257.26045  23712746.597    23712758.0634
  21438222.189   -16119528.005 8 -12539345.88147  21438222.228    21438230.5204
  23896013.730    -7764781.206 7  -6021923.22745  23896013.394    23896032.5434
  21007859.454     1310289.020 9   1142521.69147  21007858.752    21007865.0074
  21794622.558   -15512727.142 8 -12061017.79947  21794622.317    21794629.4344
 00  4 13 17  3 30.0000000  0  6 02 26 04 24 07 09
  21973504.516     3795269.612 8   2958020.31147  21973503.850    21973511.1514
  23726812.610     7263423.070 8   5662854.39145  23726812.668    23726824.2484
  21423786.226   -16195388.827 8 -12598458.08847  21423786.272    21423794.5534
  23875351.239    -7873362.270 7  -6106531.47745  23875350.829    23875369.9974
  21016362.600     1354973.448 9   1177340.69847  21016361.885    21016368.1514
  21782461.281   -15576634.638 8 -12110815.79147  21782461.036    21782468.1294
 00  4 13 17  4  0.0000000  0  6 02 26 04 24 07 09
  21981258.586     3836016.949 8   2989771.41047  21981257.882    21981265.2094
  23740917.146     7337541.732 8   5720608.90945  23740917.145    23740928.8604
  21409432.486   -16270817.479 8 -12657233.54247  21409432.558    21409440.8494
  23854698.403    -7981891.867 7  -6191099.61845  23854698.077    23854717.0834
  21024913.287     1399907.563 9   1212354.26947  21024912.596    21024918.8494
  21770379.563   -15640124.083 8 -12160288.02447  21770379.320    21770386.3784
 00  4 13 17  4 30.0000000  0  6 02 26 04 24 07 09
  21989056.091     3876992.749 8   3021700.51847  21989055.404    21989062.7454
  23755056.268     7411842.536 8   5778505.36645  23755056.246    23755068.1434
  21395163.341   -16345801.802 8 -12715662.77147  21395163.437    21395171.6814
  23834054.492    -8090374.645 7  -6275631.29445  23834054.138    23834073.1124
  21033511.199     1445089.738 9   1247561.13247  21033510.504    21033516.7824
  21758378.377   -15703190.252 8 -12209430.44047  21758378.129    21758385.1804
 00  4 13 17  5  0.0000000  0  7 02 26 04 24 05 07 09
  21996903.165     3918229.018 8   3053832.58147  21996902.471    21996909.8354
  23769231.754     7486334.587 8   5836550.83445  23769231.773    23769243.7794
  21380982.401   -16420322.706 8 -12773730.89947  21380982.474    21380990.6904
  23813424.211    -8198786.195 8  -6360107.47345  23813423.820    23813442.8054
  24573691.949    -6133241.235 7  -4765231.27645  24573691.448    24573706.1814
  21042160.679     1490543.050 9   1282979.26347  21042159.996    21042166.2524
  21746460.576   -15765818.468 8 -12258231.59047  21746460.329    21746467.3954
 00  4 13 17  5 30.0000000  0  7 02 26 04 24 05 07 09
  22004792.247     3959685.959 8   3086136.61047  22004791.520    22004798.9064
  23783435.117     7560972.660 8   5894710.08845  23783435.099    23783447.1594
  21366881.456   -16494423.206 8 -12831471.42847  21366881.536    21366889.7044
  23792801.831    -8307156.577 7  -6444551.55945  23792801.417    23792820.2684
  24557901.442    -6216219.429 7  -4829889.37945  24557901.109    24557915.8204
  21050852.920     1536221.068 9   1318572.49247  21050852.238    21050858.5014
  21734616.913   -15828057.429 9 -12306729.42647  21734616.688    21734623.6784
 00  4 13 17  6  0.0000000  0  7 02 26 04 24 05 07 09
  22012717.955     4001335.666 8   3118590.84647  22012717.253    22012724.6404
  23797657.358     7635710.100 8   5952946.76645  23797657.465    23797669.6104
  21352855.790   -16568128.248 8 -12888903.81147  21352855.886    21352863.9984
  23772181.219    -8415517.034 8  -6528987.90545  23772180.862    23772199.4624
  24542102.913    -6299239.984 7  -4894580.46445  24542102.467    24542117.3064
  21059584.433     1582104.989 9   1354326.15847  21059583.743    21059589.9994
  21722843.078   -15889929.305 9 -12354941.21547  21722842.819    21722849.7524
 00  4 13 17  6 30.0000000  0  7 02 26 04 24 05 07 09
  22020682.563     4043189.604 8   3151204.20447  22020681.859    22020689.2504
  23811898.200     7710545.305 8   6011259.61845  23811898.285    23811910.5264
  21338905.822   -16641435.410 9 -12946026.16347  21338905.923    21338914.0084
  23751565.760    -8523850.875 8  -6613403.51345  23751565.394    23751583.9204
  24526293.722    -6382316.930 7  -4959315.52445  24526293.171    24526308.0934
  21068359.979     1628220.471 9   1390260.26247  21068359.268    21068365.5244
  21711144.874   -15951403.535 9 -12402843.16347  21711144.637    21711151.5214
 00  4 13 17  7  0.0000000  0  7 02 26 04 24 05 07 09
  22028688.014     4085258.217 8   3183984.83747  22028687.297    22028694.7364
  23826162.743     7785504.891 8   6069669.39545  23826162.780    23826175.2004
  21325032.816   -16714338.173 9 -13002833.39147  21325032.897    21325040.9474
  23730960.578    -8632130.456 8  -6697776.83345  23730960.238    23730978.6254
  24510474.147    -6465448.246 7  -5024092.95645  24510473.573    24510488.3164
  21077181.550     1674578.138 9   1426383.08347  21077180.861    21077187.1364
  21699528.420   -16012448.353 9 -12450410.49947  21699528.189    21699535.0324
 00  4 13 17  7 30.0000000  0  7 02 26 04 24 05 07 09
  22036734.700     4127543.666 8   3216934.45147  22036733.976    22036741.4704
  23840454.896     7860609.064 8   6128191.82545  23840454.886    23840467.3594
  21311241.017   -16786813.968 9 -13059307.92847  21311241.105    21311249.1194
  23710367.702    -8740345.456 8  -6782099.81745  23710367.325    23710385.6484
  24494647.557    -6548617.294 7  -5088899.77445  24494647.098    24494661.5474
  21086051.364     1721189.012 9   1462703.21047  21086050.671    21086056.9304
  21688000.691   -16073027.102 9 -12497614.66047  21688000.460    21688007.2594
 00  4 13 17  8  0.0000000  0  7 02 26 04 24 05 07 09
  22044827.300     4170070.144 8   3250071.88847  22044826.584    22044834.1014
  23854777.569     7935873.652 8   6186839.24845  23854777.451    23854790.0034
  21297535.296   -16858837.587 9 -13115430.11647  21297535.393    21297543.3924
  23689790.502    -8848478.355 8  -6866358.81545  23689790.180    23689808.2884
  24478813.738    -6631823.637 7  -5153735.63145  24478813.281    24478827.6324
  21094971.797     1768065.998 9   1499230.69847  21094971.085    21094977.3824
  21676566.419   -16133114.543 9 -12544435.99747  21676566.146    21676572.9354
 00  4 13 17  8 30.0000000  0  7 02 26 04 24 05 07 09
  22052967.100     4212844.775 8   3283402.67747  22052966.389    22052973.9394
  23869136.367     8011328.587 8   6245634.99545  23869136.270    23869148.8084
  21283920.053   -16930385.714 9 -13171181.79247  21283920.139    21283928.1584
  23669232.840    -8956507.967 8  -6950537.30745  23669232.532    23669250.5154
  24462977.868    -6715040.138 7  -5218579.41945  24462977.493    24462991.9744
  21103942.981     1815209.757 9   1535966.06247  21103942.285    21103948.5684
  21665225.949   -16192708.573 9 -12590872.85247  21665225.706    21665232.5154
 00  4 13 17  9  0.0000000  0  7 02 26 04 24 05 07 09
  22061153.784     4255865.822 8   3316925.47647  22061153.091    22061160.6894
  23883533.802     8086986.987 8   6304589.27745  23883533.774    23883546.3584
  21270399.593   -17001435.798 9 -13226545.38547  21270399.679    21270407.6894
  23648695.591    -9064430.273 8  -7034632.19345  23648695.330    23648713.1714
  24447144.263    -6798245.465 7  -5283414.48045  24447143.765    24447158.2204
  21112964.123     1862615.960 9   1572905.92147  21112963.419    21112969.6914
  21653976.176   -16251826.500 9 -12636938.72347  21653975.944    21653982.7454
 00  4 13 17  9 30.0000000  0  7 02 26 04 24 05 07 09
  22069387.163     4299132.357 8   3350639.56947  22069386.491    22069394.1284
  23897969.624     8162846.316 8   6363700.11345  23897969.480    23897982.2614
  21256974.411   -17071985.369 9 -13281518.97047  21256974.473    21256982.4714
  23628178.687    -9172245.264 8  -7118643.43845  23628178.523    23628196.2224
  24431316.145    -6881421.738 7  -5348226.88445  24431315.583    24431330.0594
  21122035.859     1910288.171 9   1610053.06247  21122035.139    21122041.4404
  21642815.446   -16310476.345 9 -12682639.85347  21642815.181    21642821.9704
 00  4 13 17 10  0.0000000  0  7 02 26 04 24 05 07 09
  22077667.122     4342643.372 8   3384544.13747  22077666.429    22077674.1164
  23912439.916     8238886.910 8   6422952.19645  23912439.852    23912452.7164
  21243641.406   -17142050.064 9 -13336114.74447  21243641.503    21243649.4524
  23607682.262    -9279953.568 8  -7202571.57245  23607682.033    23607699.5514
  24415492.378    -6964575.342 7  -5413021.60745  24415491.857    24415506.1754
  21131156.073     1958215.407 9   1647398.92747  21131155.366    21131161.6744
  21631739.121   -16368682.698 9 -12727995.40747  21631738.849    21631745.6514
 00  4 13 17 10 30.0000000  0  7 02 26 04 24 05 07 09
  22085991.739     4386389.334 8   3418631.80647  22085991.056    22085998.8364
  23926941.160     8315091.172 8   6482331.80545  23926941.193    23926954.1724
  21230397.657   -17211646.177 9 -13390345.38447  21230397.732    21230405.6574
  23587202.296    -9387574.843 8  -7286431.87845  23587202.051    23587219.4944
  24399671.768    -7047712.357 7  -5477803.40645  24399671.250    24399685.3844
  21140321.652     2006380.783 9   1684930.35447  21140320.970    21140327.2774
  21620741.208   -16426476.849 9 -12773029.76647  21620740.953    21620747.7454
 00  4 13 17 11  0.0000000  0  7 02 26 04 24 05 07 09
  22094360.030     4430364.651 8   3452898.18847  22094359.313    22094367.1454
  23941467.891     8391428.602 8   6541815.17945  23941467.896    23941481.0804
  21217236.766   -17280806.880 9 -13444236.73947  21217236.813    21217244.7114
  23566733.377    -9495138.335 8  -7370247.15645  23566733.061    23566750.4054
  24383849.192    -7130859.385 7  -5542593.01345  24383848.673    24383862.7574
  21149529.134     2054765.970 9   1722633.06247  21149528.426    21149534.7384
  21609820.729   -16483864.378 9 -12817747.27647  21609820.493    21609827.2644
 00  4 13 17 11 30.0000000  0  7 02 26 04 24 05 07 09
  22102770.851     4474563.436 8   3487338.70947  22102770.150    22102777.9844
  23956015.421     8467875.038 8   6601383.49145  23956015.425    23956028.6184
  21204154.707   -17349553.003 9 -13497805.05047  21204154.779    21204162.6234
  23546272.465    -9602659.126 8  -7454029.16745  23546272.096    23546289.3314
  24368020.706    -7214037.281 7  -5607406.67945  24368020.241    24368034.3564
  21158775.544     2103355.971 9   1760495.36447  21158774.845    21158781.1534
  21598977.830   -16540843.948 9 -12862146.89847  21598977.579    21598984.3664
 00  4 13 17 12  0.0000000  0  7 02 26 04 24 05 07 09
  22111224.226     4518985.766 8   3521953.40547  22111223.518    22111231.3424
  23970580.369     8544413.035 8   6661023.12145  23970580.432    23970593.6314
  21191151.748   -17417883.671 9 -13551049.63647  21191151.811    21191159.6384
  23525816.167    -9710155.771 8  -7537792.37245  23525815.827    23525832.8544
  24352183.874    -7297259.008 7  -5672254.51245  24352183.465    24352197.5904
  21168060.269     2152147.408 9   1798514.63447  21168059.567    21168065.9004
  21588211.646   -16597420.388 9 -12906232.39447  21588211.422    21588218.1914
 00  4 13 17 12 30.0000000  0  7 02 26 04 24 05 07 09
  22119719.021     4563625.747 8   3556737.71147  22119718.338    22119726.1564
  23985163.353     8621045.342 8   6720736.24945  23985163.406    23985176.6194
  21178229.141   -17485792.184 9 -13603965.25947  21178229.197    21178236.9854
  23505363.809    -9817631.779 8  -7621539.51845  23505363.506    23505380.4414
  24336339.363    -7380521.455 7  -5737134.05845  24336339.013    24336353.0194
  21177384.084     2201144.070 9   1836693.81947  21177383.392    21177389.7224
  21577524.261   -16653582.735 9 -12949995.21747  21577524.011    21577530.7924
 00  4 13 17 13  0.0000000  0  7 02 26 04 24 05 07 09
  22128254.643     4608480.229 8   3591689.16046  22128253.958    22128261.7684
  23999764.152     8697770.885 8   6780522.01445  23999764.148    23999777.3164
  21165387.730   -17553273.709 9 -13656548.17447  21165387.797    21165395.5494
  23484918.824    -9925069.378 8  -7705256.73845  23484918.400    23484935.3114
  24320487.790    -7463821.129 7  -5802042.61645  24320487.317    24320501.3924
  21186751.853     2250371.968 9   1875053.19247  21186751.157    21186757.4884
  21566921.809   -16709298.662 9 -12993410.18847  21566921.581    21566928.3584
 00  4 13 17 13 30.0000000  0  7 02 26 04 24 05 07 09
  22136832.606     4653557.499 8   3626814.19846  22136831.940    22136839.7454
  24014384.086     8774597.816 8   6840386.79045  24014384.068    24014397.3874
  21152631.680   -17620306.949 9 -13708781.77547  21152631.748    21152639.4754
  23464487.596   -10032434.591 8  -7788917.56245  23464487.154    23464503.9654
  24304632.416    -7547141.142 7  -5866967.03245  24304631.924    24304645.8334
  21196167.609     2299852.129 9   1913609.13347  21196166.899    21196173.2394
  21556406.857   -16764555.192 9 -13036467.18647  21556406.630    21556413.3914
 00  4 13 17 14  0.0000000  0  7 02 26 04 24 05 07 09
  22145453.554     4698860.319 8   3662114.99346  22145452.862    22145460.6924
  24029025.021     8851534.649 8   6900337.20245  24029024.912    24029038.2384
  21139962.062   -17686885.783 9 -13760661.29847  21139962.119    21139969.8454
  23444073.999   -10139706.703 8  -7872505.85745  23444073.656    23444090.4164
  24288772.821    -7630482.953 7  -5931908.45445  24288772.343    24288786.1324
  21205632.671     2349591.286 9   1952366.89247  21205631.956    21205638.3244
  21545980.915   -16819343.860 9 -13079159.61647  21545980.668    21545987.4294
 00  4 13 17 14 30.0000000  0  7 02 26 04 24 05 07 09
  22154118.578     4744395.277 8   3697596.66946  22154117.893    22154125.7854
  24043690.047     8928598.072 8   6960386.24745  24043689.880    24043703.2834
  21127382.216   -17752993.027 9 -13812173.34947  21127382.278    21127389.9774
  23423684.762   -10246851.062 8  -7955994.61545  23423684.432    23423701.1434
  24272908.276    -7713851.006 7  -5996870.31745  24272907.826    24272921.4854
  21215145.756     2399582.760 9   1991321.26147  21215145.051    21215151.3984
  21535647.394   -16873646.751 9 -13121473.51847  21535647.152    21535653.9074
 00  4 13 17 15  0.0000000  0  7 02 26 04 24 05 07 09
  22162828.969     4790168.326 8   3733263.86846  22162828.333    22162836.2364
  24058379.626     9005791.212 7   7020536.37145  24058379.520    24058393.0414
  21114892.494   -17818626.607 9 -13863316.31547  21114892.554    21114900.1874
  23403323.731   -10353846.975 8  -8039367.71245  23403323.427    23403340.0954
  24257038.932    -7797243.935 7  -6061851.56145  24257038.502    24257052.0774
  21224704.347     2449813.263 9   2030461.88947  21224703.643    21224709.9964
  21525408.556   -16927452.069 9 -13163399.70547  21525408.330    21525415.0544
 00  4 13 17 15 30.0000000  0  7 02 26 04 24 05 07 09
  22171585.454     4836183.173 8   3769119.47646  22171584.811    22171592.6994
  24073094.459     9083117.113 8   7080789.92345  24073094.433    24073108.0094
  21102496.292   -17883768.707 9 -13914076.31447  21102496.346    21102503.9464
  23382992.120   -10460688.784 8  -8122620.73445  23382991.833    23383008.4224
  24241168.168    -7880644.444 7  -6126838.72545  24241167.589    24241181.1884
  21234302.205     2500250.345 9   2069763.48847  21234301.509    21234307.8734
  21515261.466   -16980775.036 9 -13204950.03447  21515261.225    21515267.9494
 00  4 13 17 16  0.0000000  0  7 02 26 04 24 05 07 09
  22180386.600     4882433.100 8   3805158.25746  22180385.968    22180393.8664
  24087834.492     9160574.191 8   7141145.70045  24087834.329    24087847.9574
  21090195.307   -17948410.540 9 -13964446.50047  21090195.372    21090202.9094
  23362686.975   -10567391.417 8  -8205765.31545  23362686.609    23362703.2154
  24225296.491    -7964049.455 7  -6191829.37145  24225296.057    24225309.5334
  21243934.074     2550866.066 9   2109204.28447  21243933.381    21243939.7344
  21505205.194   -17033620.723 9 -13246128.45547  21505204.966    21505211.6894
 00  4 13 17 16 30.0000000  0  7 02 26 04 24 05 07 09
  22189232.785     4928919.418 8   3841381.24246  22189232.134    22189240.0344
  24102596.949     9238149.976 8   7201593.98245  24102596.799    24102610.5494
  21077990.491   -18012546.762 9 -14014422.69947  21077990.561    21077998.0764
  23342407.999   -10673956.773 8  -8288802.93045  23342407.638    23342424.1334
  24209427.012    -8047442.760 7  -6256810.92545  24209426.444    24209439.9684
  21253598.081     2601650.479 9   2148776.52647  21253597.381    21253603.7354
  21495238.698   -17085994.962 9 -13286939.52047  21495238.456    21495245.1794
 00  4 13 17 17  0.0000000  0  7 02 26 04 24 05 07 09
  22198122.684     4975635.793 8   3877783.49646  22198122.030    22198129.9564
  24117377.465     9315821.522 8   7262116.87345  24117377.456    24117391.3674
  21065879.844   -18076188.350 9 -14064013.47347  21065879.925    21065887.4174
  23322151.843   -10780401.906 8  -8371746.88245  23322151.571    23322167.9204
  24193560.644    -8130820.199 7  -6321780.12245  24193560.117    24193573.4854
  21263294.894     2652607.263 9   2188483.08847  21263294.168    21263300.5244
  21485358.716   -17137914.655 9 -13327396.38647  21485358.456    21485365.1634
 00  4 13 17 17 30.0000000  0  7 02 26 04 24 05 07 09
  22207056.536     5022582.984 8   3914365.60446  22207055.885    22207063.8384
  24132174.382     9393578.137 8   7322706.04745  24132174.323    24132188.4774
  21053866.292   -18139319.487 9 -14113206.49247  21053866.372    21053873.8884
  23301915.153   -10886745.417 8  -8454611.63045  23301914.841    23301931.0764
  24177695.526    -8214190.862 7  -6386744.03345  24177695.001    24177708.3264
  21273025.657     2703742.765 9   2228328.90547  21273024.951    21273031.3054
  21475561.986   -17189396.622 9 -13367512.17247  21475561.728    21475568.3984
 00  4 13 17 18  0.0000000  0  7 02 26 04 24 05 07 09
  22216035.419     5069766.737 8   3951132.04946  22216034.779    22216042.7294
  24146987.206     9471418.255 8   7383360.28145  24146987.168    24147001.4084
  21041948.646   -18201946.799 9 -14162006.91347  21041948.722    21041956.2424
  23281698.637   -10992982.888 8  -8537393.75345  23281698.326    23281714.4234
  24161827.712    -8297575.974 7  -6451719.18345  24161827.146    24161840.3674
  21282793.988     2755075.817 9   2268328.65747  21282793.289    21282799.6654
  21465852.987   -17240417.518 9 -13407268.68447  21465852.740    21465859.3884
 00  4 13 17 18 30.0000000  0  7 02 26 04 24 05 07 09
  22225061.151     5117196.812 8   3988090.43646  22225060.491    22225068.5154
  24161815.613     9549340.497 8   7444078.50445  24161815.592    24161829.9204
  21030126.063   -18264074.543 9 -14210418.07647  21030126.157    21030133.6504
  23261505.778   -11099095.902 8  -8620078.91145  23261505.465    23261521.4734
  24145956.660    -8380977.811 7  -6516707.39545  24145956.063    24145969.3184
  21292604.231     2806628.725 9   2308499.72047  21292603.497    21292609.8634
  21456233.412   -17290968.461 9 -13446658.99947  21456233.179    21456239.8284
 00  4 13 17 19  0.0000000  0  7 02 26 04 24 05 07 09
  22234132.923     5164868.903 8   4025237.38646  22234132.260    22234140.2984
  24176661.258     9627353.545 8   7504867.49745  24176661.186    24176675.6754
  21018401.063   -18325689.479 9 -14258429.64147  21018401.164    21018408.6774
  23241335.324   -11205091.011 8  -8702672.16945  23241335.019    23241350.9534
  24130083.169    -8464392.647 7  -6581705.73745  24130082.582    24130095.8004
  21302458.646     2858414.061 9   2348851.89747  21302457.935    21302464.3134
  21446705.734   -17341036.698 9 -13485673.18047  21446705.495    21446712.1174
 00  4 13 17 19 30.0000000  0  7 02 26 04 24 05 07 09
  22243250.770     5212782.955 8   4062572.90046  22243250.078    22243258.1734
  24191526.408     9705469.316 7   7565736.53245  24191526.325    24191540.9404
  21006775.171   -18386783.595 9 -14306035.37247  21006775.272    21006782.7534
  23221190.108   -11310953.156 8  -8785161.83045  23221189.825    23221205.7414
  24114211.085    -8547800.203 7  -6646698.41845  24114210.540    24114223.5394
  21312358.846     2910439.748 9   2389391.36247  21312358.151    21312364.5204
  21437274.896   -17390596.071 9 -13524290.84047  21437274.654    21437281.2624
 00  4 13 17 20  0.0000000  0  7 02 26 04 24 05 07 09
  22252414.029     5260935.725 8   4100094.41646  22252413.365    22252421.4814
  24206411.705     9783690.573 8   7626687.76945  24206411.719    24206426.4944
  20995246.515   -18447366.897 9 -14353243.06647  20995246.613    20995254.0824
  23201073.045   -11416667.935 8  -8867536.63445  23201072.732    23201088.6274
  24098344.164    -8631179.944 7  -6711669.40845  24098343.645    24098356.7524
  21322305.874     2962711.445 9   2430122.52047  21322305.155    21322311.5504
  21427944.270   -17439628.862 9 -13562498.18247  21427944.003    21427950.6164
 00  4 13 17 20 30.0000000  0  7 02 26 04 24 05 07 09
  22261621.277     5309319.593 8   4137796.00146  22261620.621    22261628.7404
  24221315.376     9862008.330 7   7687714.18245  24221315.442    24221330.2994
  20983815.258   -18507438.264 9 -14400051.84247  20983815.347    20983822.8014
  23180983.600   -11522237.275 8  -8949798.11646  23180983.260    23180999.2034
  24082486.023    -8714513.902 7  -6776604.71345  24082485.472    24082498.4294
  21332298.898     3015225.178 9   2471042.28047  21332298.207    21332304.5924
  21418710.043   -17488154.477 9 -13600310.32147  21418709.796    21418716.4334
 00  4 13 17 21  0.0000000  0  7 02 26 04 24 05 07 09
  22270872.239     5357933.239 8   4175676.62046  22270871.586    22270879.7494
  24236235.221     9940411.904 7   7748807.47245  24236235.302    24236250.3644
  20972480.633   -18567002.047 9 -14446465.10447  20972480.714    20972488.1384
  23160919.933   -11627671.299 8  -9031954.14646  23160919.610    23160935.5824
  24066634.200    -8797814.765 7  -6841514.22645  24066633.676    24066646.5744
  21342336.095     3067970.573 9   2512142.55347  21342335.388    21342341.7624
  21409570.373   -17536183.655 9 -13637735.62647  21409570.133    21409576.7274
 00  4 13 17 21 30.0000000  0  7 02 26 04 24 05 07 09
  22280168.578     5406785.378 8   4213743.08846  22280167.931    22280176.1024
  24251168.698    10018886.420 7   7809956.05645  24251168.804    24251183.9734
  20961240.323   -18626070.000 9 -14492491.99947  20961240.406    20961247.8014
  23140885.053   -11732953.686 8  -9113992.01546  23140884.790    23140900.7204
  24050784.113    -8881106.338 7  -6906416.50545  24050783.619    24050796.5504
  21352412.743     3120923.427 9   2553404.48747  21352412.033    21352418.4014
  21400521.558   -17583735.563 9 -13674789.03347  21400521.318    21400527.8764
 00  4 13 17 22  0.0000000  0  7 02 26 04 24 05 07 09
  22289511.647     5455882.951 8   4252000.79446  22289511.003    22289519.1844
  24266111.169    10097407.752 7   7871141.11345  24266111.220    24266126.5444
  20950092.508   -18684651.560 9 -14538139.89847  20950092.593    20950099.9844
  23120875.047   -11838105.646 8  -9195928.25946  23120874.792    23120890.7004
  24034930.251    -8964418.069 7  -6971334.51745  24034929.775    24034942.4524
  21362524.455     3174060.734 9   2594810.14447  21362523.753    21362530.1174
  21391557.032   -17630844.488 9 -13711497.26547  21391556.783    21391563.3184
 00  4 13 17 22 30.0000000  0  7 02 26 04 24 05 07 09
  22298902.137     5505229.839 8   4290452.79346  22298901.472    22298909.6704
  24281060.529    10175966.115 7   7932355.01545  24281060.641    24281076.2724
  20939038.251   -18742741.856 9 -14583404.99747  20939038.335    20939045.7124
  23100887.481   -11943139.441 8  -9277772.42946  23100887.239    23100903.0744
  24019066.905    -9047779.626 7  -7036291.34845  24019066.457    24019079.0434
  21372668.422     3227367.547 9   2636347.88847  21372667.690    21372674.0834
  21382675.203   -17677518.717 9 -13747866.77247  21382674.962    21382681.4774
 00  4 13 17 23  0.0000000  0  7 02 26 04 24 05 07 09
  22308340.849     5554830.173 8   4329102.26546  22308340.207    22308348.4334
  24296016.770    10254560.331 7   7993596.85545  24296016.897    24296032.7564
  20928080.142   -18800326.701 9 -14628276.23947  20928080.242    20928087.6064
  23080922.131   -12048056.998 8  -9359526.01546  23080921.831    23080937.5674
  24003192.944    -9131196.683 7  -7101291.41445  24003192.486    24003205.1244
  21382843.169     3280836.348 9   2678011.85147  21382842.436    21382848.8584
  21373880.130   -17723737.090 9 -13783881.06747  21373879.901    21373886.4214
 00  4 13 17 23 30.0000000  0  7 02 26 04 24 05 07 09
  22317828.217     5604685.834 8   4367950.69046  22317827.539    22317835.7774
  24310981.244    10333197.343 7   8054872.05445  24310981.348    24310997.2924
  20917221.882   -18857387.130 9 -14672738.83747  20917221.959    20917229.3234
  23060980.246   -12152851.138 8  -9441183.44646  23060979.976    23060995.5824
  23987313.907    -9214641.102 7  -7166312.79845  23987313.369    23987325.9544
  21393050.872     3334478.346 9   2719810.77247  21393050.189    21393056.6334
  21365176.828   -17769472.935 9 -13819519.37047  21365176.606    21365183.1564
 00  4 13 17 24  0.0000000  0  7 02 26 04 24 05 07 09
  22327364.296     5654797.678 8   4406998.75446  22327363.618    22327371.9144
  24325954.181    10411879.814 7   8116182.64845  24325954.232    24325970.3964
  20906465.033   -18913914.433 9 -14716786.02147  20906465.105    20906472.4624
  23041060.652   -12257528.078 8  -9522749.55446  23041060.326    23041075.8544
  23971434.878    -9298085.168 8  -7231333.92445  23971434.412    23971446.9244
  21403295.404     3388313.687 9   2761760.35847  21403294.737    21403301.2044
  21356571.352   -17814694.994 9 -13854757.31647  21356571.114    21356577.6494
 00  4 13 17 24 30.0000000  0  7 02 26 04 24 05 07 09
  22336948.924     5705164.805 8   4446245.71946  22336948.252    22336956.5484
  24340938.996    10490624.815 7   8177541.97745  24340939.168    24340955.5494
  20895811.602   -18969898.296 9 -14760409.73647  20895811.691    20895819.0414
  23021170.280   -12362050.992 8  -9604195.63546  23021170.006    23021185.4524
  23955561.003    -9381502.451 8  -7296334.18545  23955560.441    23955572.8854
  21413577.796     3442347.809 9   2803864.83847  21413577.119    21413583.6204
  21348069.430   -17859372.724 9 -13889571.10747  21348069.209    21348075.7314
 00  4 13 17 25  0.0000000  0  7 02 26 04 24 05 07 09
  22346581.456     5755783.314 8   4485688.58046  22346580.764    22346589.0364
  24355936.161    10569433.174 7   8238950.67245  24355936.295    24355952.7654
  20885259.396   -19025350.264 9 -14803618.98947  20885259.486    20885266.8254
  23001313.299   -12466398.489 8  -9685505.04946  23001313.062    23001328.3894
  23939696.018    -9464873.210 7  -7361298.19145  23939695.364    23939707.7214
  21423897.874     3496579.950 9   2846123.60747  21423897.175    21423903.6834
  21339671.758   -17903502.858 9 -13923958.20347  21339671.513    21339678.0344
 00  4 13 17 25 30.0000000  0  7 02 26 04 24 05 07 09
  22356260.248     5806645.231 8   4525321.09046  22356259.573    22356267.8554
  24370943.305    10648294.282 7   8300400.45445  24370943.266    24370959.9054
  20874804.650   -19080290.006 9 -14846429.10947  20874804.733    20874812.0284
  22981491.138   -12570563.453 8  -9766672.22446  22981490.926    22981506.0704
  23923838.773    -9548202.798 7  -7426230.11945  23923838.152    23923850.6204
  21434254.907     3551006.316 9   2888533.72447  21434254.205    21434260.7314
  21331372.598   -17947115.126 9 -13957941.76447  21331372.348    21331378.9114
 00  4 13 17 26  0.0000000  0  7 02 26 04 24 05 07 09
  22365981.990     5857732.704 8   4565129.36446  22365981.303    22365989.6194
  24385959.916    10727206.350 7   8361889.94745  24385960.170    24385976.6664
  20864444.272   -19134734.044 9 -14888852.96447  20864444.356    20864451.6034
  22961705.429   -12674537.184 8  -9847690.40046  22961705.163    22961720.1354
  23907984.812    -9631515.162 7  -7491148.61745  23907984.147    23907996.4954
  21444643.654     3605599.457 9   2931073.79647  21444642.962    21444649.4924
  21323167.003   -17990235.482 9 -13991542.02547  21323166.759    21323173.3344
 00  4 13 17 26 30.0000000  0  7 02 26 04 24 05 07 09
  22375742.714     5909025.183 8   4605097.39146  22375742.046    22375750.4164
  24400987.052    10806172.564 7   8423421.62145  24400987.297    24401003.8024
  20854178.037   -19188683.299 9 -14930891.27447  20854178.103    20854185.3184
  22941957.596   -12778311.591 8  -9928553.25846  22941957.314    22941972.1214
  23892129.287    -9714835.366 7  -7556073.27145  23892128.554    23892140.9454
  21455061.315     3660344.380 9   2973732.13847  21455060.601    21455067.1514
  21315051.034   -18032884.841 9 -14024775.27247  21315050.837    21315057.3754
 00  4 13 17 27  0.0000000  0  7 02 26 04 24 05 07 09
  22385541.396     5960517.332 8   4645220.97846  22385540.752    22385549.1784
  24416023.927    10885189.243 7   8484992.60445  24416024.167    24416040.7024
  20844010.064   -19242116.170 9 -14972527.21547  20844010.122    20844017.2884
  22922244.041   -12881905.822 8 -10009275.71146  22922243.732    22922258.4304
  23876270.406    -9798173.624 7  -7621011.96245  23876269.633    23876281.9614
  21465510.663     3715255.791 9   3016520.20647  21465509.917    21465516.4894
  21307023.180   -18075071.547 9 -14057648.01447  21307022.935    21307029.4644
 00  4 13 17 27 30.0000000  0  7 02 26 04 24 05 07 09
  22395380.430     6012221.211 8   4685509.56346  22395379.771    22395388.2424
  24431071.554    10964263.451 7   8546608.43145  24431071.840    24431088.3424
  20833945.554   -19295005.222 9 -15013739.39247  20833945.630    20833952.7574
  22902563.511   -12985325.882 8 -10089862.46046  22902563.276    22902577.8924
  23860408.917    -9881525.318 7  -7685961.12745  23860408.154    23860420.5024
  21475993.584     3770343.965 9   3059446.01347  21475992.839    21475999.4264
  21299084.921   -18116787.241 9 -14090153.73147  21299084.661    21299091.2124
 00  4 13 17 28  0.0000000  0  7 02 26 04 24 05 07 09
  22405262.983     6064153.745 8   4725976.31346  22405262.319    22405270.8194
  24446131.453    11043402.161 7   8608274.52545  24446131.724    24446148.2574
  20823988.088   -19347331.790 9 -15054513.27147  20823988.163    20823995.2534
  22882915.928   -13088572.785 8 -10170314.27146  22882915.748    22882930.3064
  23844545.544    -9964887.219 8  -7750918.24445  23844544.726    23844557.0844
  21486512.510     3825621.075 9   3102519.04547  21486511.757    21486518.3484
  21291242.848   -18157997.574 9 -14122265.66447  21291242.610    21291249.1734
 00  4 13 17 28 30.0000000  0  7 02 26 04 24 05 07 09
  22415195.500     6116348.866 8   4766647.66746  22415194.853    22415203.3474
  24461201.296    11122592.243 7   8669980.62545  24461201.492    24461218.1284
  20814141.660   -19399074.900 9 -15094832.51747  20814141.720    20814148.8164
  22863298.969   -13191659.286 8 -10250641.11846  22863298.748    22863313.2264
  23828683.425   -10048242.472 8  -7815870.18345  23828682.666    23828695.0264
  21497071.067     3881106.536 9   3145754.42747  21497070.328    21497076.8954
  21283500.274   -18198684.828 9 -14153970.00147  21283500.049    21283506.6154
 00  4 13 17 29  0.0000000  0  7 02 26 04 24 05 07 09
  22425182.096     6168828.521 8   4807540.73446  22425181.450    22425190.0334
  24476279.648    11201827.707 7   8731722.09845  24476279.793    24476296.5604
  20804404.258   -19450245.152 9 -15134705.37547  20804404.311    20804411.3944
  22843711.176   -13294592.864 8 -10330848.79646  22843710.958    22843725.2814
  23812826.441   -10131570.730 7  -7880801.07145  23812825.824    23812837.9184
  21507669.346     3936800.512 9   3189152.29147  21507668.601    21507675.1564
  21275859.879   -18238835.157 9 -14185255.95947  21275859.649    21275866.2364
 00  4 13 17 29 30.0000000  0  7 02 26 04 24 05 07 09
  22435222.645     6221591.391 8   4848654.48546  22435221.989    22435230.6514
  24491365.765    11281104.669 7   8793495.91045  24491365.880    24491383.0304
  20794769.535   -19500875.609 9 -15174157.61747  20794769.591    20794776.6764
  22824153.837   -13397366.425 8 -10410931.80046  22824153.598    22824167.7864
  23796973.107   -10214879.781 7  -7945716.99145  23796972.449    23796984.5044
  21518303.098     3992681.216 9   3232695.65547  21518302.359    21518308.8944
  21268321.782   -18278448.298 9 -14216123.33047  21268321.557    21268328.1074
 00  4 13 17 30  0.0000000  0  7 02 26 04 24 05 07 09
  22445314.666     6274624.599 8   4889978.89146  22445313.982    22445322.6324
  24506456.465    11360405.205 7   8855288.08045  24506456.582    24506473.8424
  20785233.735   -19550986.282 9 -15213204.83247  20785233.792    20785240.8874
  22804627.909   -13499974.604 8 -10490885.94246  22804627.616    22804641.7744
  23781120.444   -10298184.922 7  -8010629.86645  23781119.754    23781131.8544
  21528970.264     4048737.349 9   3276375.72047  21528969.495    21528976.0344
  21260884.841   -18317529.933 9 -14246576.54147  21260884.596    21260891.1464
 00  4 13 17 30 30.0000000  0  7 02 26 04 24 05 07 09
  22455454.309     6327908.152 8   4931498.37446  22455453.603    22455462.2854
  24521551.101    11439725.957 7   8917096.01345  24521551.253    24521568.3584
  20775792.985   -19600597.460 9 -15251862.83347  20775793.058    20775800.1524
  22785135.273   -13602407.846 8 -10570703.75746  22785134.969    22785149.0764
  23765268.038   -10381489.278 8  -8075542.14445  23765267.328    23765279.2314
  21539667.952     4104954.124 9   3320180.95347  21539667.199    21539673.7474
  21253545.196   -18356099.801 9 -14276630.97647  21253544.957    21253551.4984
 00  4 13 17 31  0.0000000  0  7 02 26 04 24 05 07 09
  22465635.865     6381412.009 8   4973189.52946  22465635.194    22465643.8954
  24536648.904    11519063.732 7   8978917.21445  24536648.971    24536666.1204
  20766444.706   -19649722.851 9 -15290142.29347  20766444.789    20766451.8394
  22765678.325   -13704653.746 8 -10650375.60746  22765678.060    22765692.0844
  23749413.449   -10464804.864 8  -8140463.15245  23749412.694    23749424.5764
  21550394.606     4161322.876 9   3364104.61247  21550393.863    21550400.4454
  21246300.198   -18394172.296 9 -14306297.84647  21246299.963    21246306.4934
 00  4 13 17 31 30.0000000  0  7 02 26 04 24 05 07 09
  22475857.793     6435127.970 8   5015045.95146  22475857.108    22475865.9184
  24551745.153    11598393.484 7   9040732.15845  24551745.220    24551762.6524
  20757192.019   -19698346.054 9 -15328030.43647  20757192.075    20757199.0984
  22746258.545   -13806703.804 8 -10729894.85146  22746258.353    22746272.2994
  23733554.250   -10548144.423 8  -8205402.84645  23733553.543    23733565.3984
  21561151.656     4217851.361 9   3408152.73747  21561150.906    21561157.5094
  21239147.892   -18431757.865 9 -14335585.29647  21239147.674    21239154.1864
 00  4 13 17 32  0.0000000  0  7 02 26 04 24 05 07 09
  22486121.345     6489062.786 8   5057072.89746  22486120.713    22486129.5164
  24566836.460    11677696.499 7   9102526.25545  24566836.442    24566853.9384
  20748037.734   -19746451.927 9 -15365515.46647  20748037.793    20748044.8024
  22726877.615   -13908550.323 8 -10809255.50546  22726877.430    22726891.2414
  23717693.736   -10631490.725 8  -8270347.80445  23717693.093    23717704.8274
  21571939.133     4274540.140 9   3452325.76347  21571938.428    21571945.0534
  21232089.025   -18468852.440 9 -14364490.15447  21232088.791    21232095.3124
 00  4 13 17 32 30.0000000  0  7 02 26 04 24 05 07 09
  22496426.915     6543218.395 8   5099271.89546  22496426.268    22496435.1574
  24581922.946    11756974.499 7   9164300.85645  24581922.968    24581940.4154
  20738985.288   -19794022.549 9 -15402583.41547  20738985.349    20738992.3414
  22707534.766   -14010196.656 8 -10888460.17646  22707534.572    22707548.3684
  23701834.842   -10714828.777 7  -8335286.34045  23701834.272    23701845.8374
  21582756.109     4331383.367 9   3496619.13847  21582755.409    21582762.0284
  21225124.393   -18505451.968 9 -14393009.26347  21225124.152    21225130.6704
 00  4 13 17 33  0.0000000  0  7 02 26 04 24 05 07 09
  22506776.476     6597604.952 8   5141650.85246  22506775.833    22506784.8214
  24597002.649    11836217.615 7   9226048.28445  24597002.588    24597020.1934
  20730040.893   -19841025.431 9 -15439208.97047  20730040.951    20730047.9204
  22688231.572   -14111634.832 8 -10967502.64646  22688231.305    22688245.0524
  23685979.894   -10798146.041 7  -8400208.68145  23685979.298    23685990.8744
  21593602.748     4388382.780 9   3541034.22347  21593602.060    21593608.6704
  21218257.367   -18541538.273 9 -14421128.45547  21218257.136    21218263.6744
 00  4 13 17 33 30.0000000  0  7 02 26 04 24 05 07 09
  22517175.018     6652248.889 8   5184230.36746  22517174.344    22517183.3664
  24612078.395    11915439.035 7   9287778.80645  24612078.312    24612096.0474
  20721206.585   -19887449.718 9 -15475383.67747  20721206.647    20721213.5904
  22668971.853   -14212844.151 8 -11046366.79246  22668971.558    22668985.3064
  23670129.938   -10881436.434 7  -8465110.07845  23670129.451    23670141.0394
  21604478.811     4445536.651 9   3585569.67047  21604478.131    21604484.7254
  21211493.179   -18577084.230 9 -14448826.59547  21211492.959    21211499.5144
 00  4 13 17 34  0.0000000  0  7 02 26 04 24 05 07 09
  22527623.628     6707156.020 8   5227014.97746  22527622.971    22527631.9904
  24627156.046    11994670.527 7   9349517.15945  24627155.924    24627173.7394
  20712483.806   -19933287.720 9 -15511101.54447  20712483.886    20712490.8094
  22649757.276   -14313816.797 8 -11125046.52546  22649756.990    22649770.5734
  23654285.746   -10964696.841 7  -8529988.12145  23654285.319    23654296.8624
  21615383.506     4502840.660 9   3630222.09247  21615382.802    21615389.4154
  21204835.122   -18612072.534 9 -14476090.20847  21204834.908    21204841.4944
 00  4 13 17 34 30.0000000  0  7 02 26 04 24 05 07 09
  22538123.027     6762329.821 8   5270007.36446  22538122.352    22538131.4264
  24642238.540    12073928.450 7   9411276.13445  24642238.563    24642256.2944
  20703875.396   -19978524.820 9 -15546351.17047  20703875.485    20703882.3984
  22630587.076   -14414555.784 8 -11203544.18146  22630586.771    22630600.3104
  23638446.262   -11047932.831 7  -8594847.13845  23638445.895    23638457.3824
  21626320.345     4560314.043 9   3675006.50247  21626319.660    21626326.2864
  21198284.746   -18646495.052 9 -14502912.94747  21198284.513    21198291.0964
 00  4 13 17 35  0.0000000  0  7 02 26 04 24 05 07 09
  22548675.171     6817780.992 8   5313215.88946  22548674.497    22548683.5844
  24657327.786    12153221.008 7   9473062.09945  24657327.636    24657345.7614
  20695379.632   -20023170.087 9 -15581139.62947  20695379.727    20695386.6224
  22611462.739   -14515054.004 8 -11281854.23446  22611462.441    22611475.9384
  23622610.634   -11131148.967 8  -8659690.68845  23622610.198    23622621.5944
  21637291.996     4617970.189 9   3719933.32247  21637291.315    21637297.9604
  21191844.117   -18680340.690 9 -14529286.16647  21191843.892    21191850.4634
 00  4 13 17 35 30.0000000  0  7 02 26 04 24 05 07 09
  22559280.263     6873510.521 8   5356641.30546  22559279.605    22559288.7184
  24672424.454    12232552.292 7   9534878.21645  24672424.475    24672442.6094
  20686994.210   -20067235.527 9 -15615476.28047  20686994.292    20687001.1624
  22592381.507   -14615325.576 8 -11359987.67146  22592381.201    22592394.6284
  23606777.569   -11214351.863 8  -8724523.91745  23606777.009    23606788.4104
  21648299.205     4675813.298 9   3765005.82747  21648298.515    21648305.1994
  21185511.890   -18713616.888 9 -14555215.67047  21185511.666    21185518.2274
 00  4 13 17 36  0.0000000  0  7 02 26 04 24 05 07 09
  22569935.172     6929501.684 8   5400270.60546  22569934.529    22569943.6474
  24687525.922    12311909.965 7   9596714.92645  24687526.061    24687544.3884
  20678721.123   -20110710.745 9 -15649353.02247  20678721.219    20678728.0304
  22573339.166   -14715392.671 8 -11437961.78646  22573338.893    22573352.2364
  23590950.281   -11297523.890 8  -8789333.09645  23590949.826    23590961.0824
  21659342.802     4733847.786 9   3810227.45647  21659342.119    21659348.8384
  21179285.172   -18746338.431 9 -14580712.97347  21179284.956    21179291.5084
 00  4 13 17 36 30.0000000  0  7 02 26 04 24 05 07 09
  22580639.171     6985750.891 8   5444100.96846  22580638.549    22580647.7064
  24702628.842    12391275.303 7   9658557.58845  24702628.985    24702647.5234
  20670559.020   -20153602.611 9 -15682775.20247  20670559.130    20670565.9154
  22554335.783   -14815254.979 8 -11515776.33546  22554335.569    22554348.7954
  23575132.667   -11380645.012 8  -8854102.58645  23575132.196    23575143.4614
  21670421.121     4792064.821 9   3855591.32947  21670420.460    21670427.2104
  21173163.413   -18778508.709 9 -14605780.71647  21173163.194    21173169.7274
 00  4 13 17 37  0.0000000  0  7 02 26 04 24 05 07 09
  22591390.484     7042248.667 8   5488125.00246  22591389.866    22591399.0774
  24717731.324    12470636.739 7   9720397.20945  24717731.610    24717749.7324
  20662506.414   -20195919.141 9 -15715749.06647  20662506.524    20662513.3324
  22535374.864   -14914894.557 8 -11593417.31546  22535374.645    22535387.8154
  23559324.540   -11463716.731 8  -8918833.58645  23559324.130    23559335.2784
  21681528.352     4850433.621 9   3901073.46147  21681527.671    21681534.4644
  21167144.447   -18810138.540 9 -14630427.33747  21167144.231    21167150.7664
 00  4 13 17 37 30.0000000  0  7 02 26 04 24 05 07 09
  22602188.344     7098990.857 8   5532339.49546  22602187.721    22602196.9734
  24732829.373    12549976.330 7   9782219.83345  24732829.478    24732848.0384
  20654564.825   -20237652.260 9 -15748268.33147  20654564.922    20654571.7434
  22516457.502   -15014305.001 8 -11670879.75546  22516457.272    22516470.4314
  23543527.679   -11546729.536 8  -8983518.69145  23543527.166    23543538.2384
  21692661.602     4908939.278 8   3946662.23447  21692660.913    21692667.7364
  21161225.573   -18841242.306 9 -14654664.03547  21161225.368    21161231.8744
 00  4 13 17 38  0.0000000  0  7 02 26 04 24 05 07 09
  22613030.862     7155967.921 8   5576737.00846  22613030.205    22613039.5474
  24747921.881    12629286.090 7   9844019.22845  24747921.889    24747940.6364
  20646732.219   -20278812.606 9 -15780341.28347  20646732.305    20646739.1474
  22497585.241   -15113478.666 8 -11748157.68746  22497584.986    22497598.0434
  23527741.022   -11629688.232 8  -9048161.63145  23527740.554    23527751.5734
  21703818.847     4967571.088 9   3992349.31047  21703818.219    21703825.0564
  21155406.709   -18871820.600 9 -14678491.27347  21155406.487    21155412.9614
 00  4 13 17 38 30.0000000  0  7 02 26 04 24 05 07 09
  22623920.129     7213190.605 8   5621325.90446  22623919.466    22623928.8684
  24763009.374    12708568.639 7   9905797.39545  24763009.354    24763027.9894
  20639008.634   -20319399.953 9 -15811967.73947  20639008.722    20639015.5654
  22478760.690   -15212401.723 8 -11825240.35346  22478760.418    22478773.3984
  23511960.329   -11712615.596 8  -9112780.15745  23511959.869    23511970.8284
  21714998.866     5026322.043 9   4038129.22047  21714998.209    21715005.0344
  21149687.952   -18901872.883 9 -14701908.64147  21149687.746    21149694.1724
 00  4 13 17 39  0.0000000  0  7 02 26 04 24 05 07 09
  22634857.699     7270667.138 8   5666112.60146  22634857.044    22634866.5374
  24778090.952    12787820.223 7   9967551.44145  24778090.764    24778109.1634
  20631394.831   -20359410.472 9 -15843144.71747  20631394.923    20631401.7844
  22459983.234   -15311077.068 8 -11902129.99746  22459982.928    22459995.8184
  23496181.355   -11795534.001 8  -9177391.67545  23496180.873    23496191.6854
  21726203.416     5085202.183 9   4084009.79147  21726202.753    21726209.5754
  21144066.678   -18931412.977 9 -14724926.89947  21144066.477    21144072.8714
 00  4 13 17 39 30.0000000  0  7 02 26 04 24 05 07 09
  22645843.853     7328399.112 8   5711098.34446  22645843.209    22645852.7634
  24793167.162    12867044.227 7  10029284.01545  24793166.887    24793185.3784
  20623890.806   -20398844.079 9 -15873872.15247  20623890.908    20623897.7704
  22441247.929   -15409530.451 8 -11978846.67946  22441247.668    22441260.4964
  23480402.391   -11878452.544 8  -9242003.31145  23480401.936    23480412.5884
  21737436.672     5144232.970 9   4130007.75447  21737436.006    21737442.8134
  21138543.675   -18960436.681 9 -14747542.77247  21138543.481    21138549.8704
 00  4 13 17 40  0.0000000  0  7 02 26 04 24 05 07 09
  22656878.465     7386385.506 8   5756282.33946  22656877.809    22656887.4264
  24808241.160    12946256.723 7  10091007.63345  24808240.801    24808259.5464
  20616496.595   -20437700.547 9 -15904149.87147  20616496.706    20616503.5684
  22422554.712   -15507762.601 8 -12055390.97146  22422554.449    22422567.2724
  23464620.968   -11961383.614 8  -9306624.71445  23464620.552    23464631.1714
  21748700.849     5203426.384 8   4176132.43947  21748700.148    21748706.9584
  21133120.949   -18988933.237 9 -14769747.88347  21133120.745    21133127.1654
 00  4 13 17 40 30.0000000  0  7 02 26 04 24 05 07 09
  22667963.038     7444634.289 8   5801670.78746  22667962.366    22667972.0244
  24823311.935    13025451.794 7  10152717.66645  24823311.707    24823330.4324
  20609212.490   -20475978.755 9 -15933976.99747  20609212.599    20609219.4284
  22403905.214   -15605765.268 8 -12131756.44546  22403904.970    22403917.7034
  23448837.408   -12044325.868 8  -9371254.82545  23448837.018    23448847.5804
  21759997.268     5262789.349 8   4222389.24047  21759996.568    21760003.3954
  21127797.909   -19016906.062 9 -14791544.88847  21127797.700    21127804.0834
 00  4 13 17 41  0.0000000  0  7 02 26 04 24 05 07 09
  22679093.509     7503124.223 8   5847247.14946  22679092.810    22679102.5004
  24838378.303    13104625.045 7  10214410.69445  24838378.257    24838397.0484
  20602033.648   -20513703.532 9 -15963372.88447  20602033.769    20602040.5754
  22385300.716   -15703531.329 8 -12207937.55646  22385300.480    22385313.1874
  23433054.056   -12127267.238 8  -9435884.26545  23433053.695    23433064.2514
  21771325.361     5322319.123 8   4268776.01347  21771324.695    21771331.5504
  21122577.326   -19044340.353 9 -14812922.26547  21122577.134    21122583.5184
 00  4 13 17 41 30.0000000  0  7 02 26 04 24 05 07 09
  22690267.333     7561842.241 8   5893001.23646  22690266.645    22690276.3294
  24853439.760    13183771.883 7  10276083.15245  24853439.961    24853458.4804
  20594957.751   -20550887.453 9 -15992347.31447  20594957.867    20594964.6704
  22366742.297   -15801055.275 8 -12283929.99746  22366742.017    22366754.7134
  23417271.832   -12210202.879 8  -9500509.23945  23417271.391    23417281.8914
  21782682.782     5382002.507 8   4315282.49147  21782682.113    21782688.9974
  21117462.592   -19071218.560 9 -14833866.32047  21117462.385    21117468.7744
 00  4 13 17 42  0.0000000  0  7 02 26 04 24 05 07 09
  22701486.502     7620798.558 8   5938941.01046  22701485.858    22701495.5304
  24868493.834    13262879.281 7  10337724.88345  24868493.939    24868512.5014
  20587984.493   -20587531.919 9 -16020901.40047  20587984.615    20587991.3804
  22348235.029   -15898310.377 8 -12359712.96746  22348234.799    22348247.4324
  23401493.189   -12293119.699 8  -9565119.54745  23401492.794    23401503.2034
  21794064.935     5441816.040 8   4361890.37847  21794064.273    21794071.2294
  21112453.743   -19097540.170 9 -14854376.67247  21112453.552    21112459.9464
 00  4 13 17 42 30.0000000  0  7 02 26 04 24 05 07 09
  22712750.749     7679991.616 8   5985065.24946  22712750.060    22712759.8054
  24883536.624    13341927.549 7  10399320.54145  24883536.785    24883555.3494
  20581115.662   -20623627.843 9 -16049028.04947  20581115.780    20581122.5234
  22329779.504   -15995293.325 8 -12435283.86246  22329779.346    22329791.9414
  23385719.079   -12376012.659 8  -9629711.27645  23385718.644    23385729.0334
  21805467.308     5501735.870 8   4408581.09547  21805466.699    21805473.6704
  21107551.130   -19123303.255 9 -14874451.80747  21107550.947    21107557.3724
 00  4 13 17 43  0.0000000  0  7 02 26 04 24 05 07 09
  22724061.921     7739431.799 8   6031382.05646  22724061.280    22724071.0714
  24898569.123    13420921.523 7  10460873.89945  24898569.148    24898587.7764
  20574355.873   -20659150.409 9 -16076707.92847  20574356.000    20574362.7484
  22311375.305   -16092006.825 8 -12510644.79946  22311375.156    22311387.7054
  23369952.237   -12458867.316 8  -9694273.15945  23369951.710    23369962.1134
  21816887.916     5561751.172 8   4455346.20647  21816887.293    21816894.2974
  21102756.095   -19148501.117 9 -14894086.51247  21102755.926    21102762.3694
 00  4 13 17 43 30.0000000  0  6 02 04 24 05 07 09
  22735431.638     7799179.537 8   6077938.51646  22735431.018    22735440.8684
  20567718.056   -20694032.166 9 -16103888.47547  20567718.205    20567724.9454
  22293028.875   -16188417.014 8 -12585769.39846  22293028.698    22293041.1984
  23354199.144   -12541649.461 8  -9758778.55245  23354198.625    23354209.0114
  21828334.775     5621904.438 8   4502218.82047  21828334.119    21828341.1234
  21098072.277   -19173114.886 9 -14913266.08147  21098072.119    21098078.5754
 00  4 13 17 44  0.0000000  0  6 02 04 24 05 07 09
  22746856.535     7859216.986 8   6124720.72946  22746855.879    22746865.8084
  20561203.932   -20728263.690 9 -16130562.34347  20561204.085    20561210.8184
  22274738.876   -16284531.054 8 -12660663.23446  22274738.670    22274751.0634
  23338459.165   -12624362.367 8  -9823229.97145  23338458.642    23338469.0684
  21839805.427     5682182.700 8   4549188.83247  21839804.768    21839811.7554
  21093495.391   -19197166.595 9 -14932007.68047  21093495.237    21093501.7044
 00  4 13 17 44 30.0000000  0  6 02 04 24 05 07 09
  22758324.044     7919478.550 8   6171677.57046  22758323.430    22758333.4594
  20554803.946   -20761895.587 9 -16156768.96847  20554804.115    20554810.8254
  22256495.673   -16380398.686 8 -12735365.05746  22256495.489    22256507.8034
  23322723.827   -12707051.157 8  -9887662.61345  23322723.285    23322733.6954
  21851295.284     5742561.901 8   4596237.51047  21851294.603    21851301.6134
  21089017.509   -19220697.958 9 -14950343.81447  21089017.337    21089023.7884
 00  4 13 17 45  0.0000000  0  6 02 04 24 05 07 09
  22769836.537     7979976.162 8   6218818.33846  22769835.901    22769846.0444
  20548516.702   -20794935.185 9 -16182514.06347  20548516.878    20548523.5834
  22238302.191   -16476005.331 8 -12809863.52446  22238301.974    22238314.2504
  23306996.018   -12789700.451 8  -9952064.48745  23306995.484    23307005.9174
  21862810.963     5803077.015 8   4643392.08447  21862810.301    21862817.2994
  21084639.821   -19243702.957 9 -14968269.79647  21084639.667    21084646.0824
 00  4 13 17 45 30.0000000  0  6 02 04 24 05 07 09
  22781392.881     8040704.149 8   6266138.63446  22781392.230    22781402.4204
  20542341.152   -20827387.625 9 -16207801.63647  20542341.333    20542348.0174
  22220160.601   -16571339.341 8 -12884149.53646  22220160.373    22220172.6244
  23291274.262   -12872318.307 8 -10016441.85845  23291273.677    23291284.1254
  21874353.700     5863734.003 8   4690657.21147  21874353.030    21874360.0364
  21080364.597   -19266169.670 9 -14985776.33347  21080364.437    21080370.8504
 00  4 13 17 46  0.0000000  0  6 02 04 24 05 07 09
  22792992.171     8101657.658 8   6313634.64646  22792991.500    22793001.7394
  20536275.406   -20859263.486 9 -16232639.92347  20536275.552    20536282.2174
  22202072.189   -16666393.760 8 -12958217.68346  22202071.986    22202084.1834
  23275560.019   -12954896.618 8 -10080788.43045  23275559.455    23275569.8534
  21885924.489     5924538.767 8   4738037.49047  21885923.830    21885930.8354
  21076194.203   -19288085.361 9 -15002853.50547  21076194.024    21076200.4544
 00  4 13 17 46 30.0000000  0  6 02 04 24 05 07 09
  22804636.145     8162846.191 8   6361313.80146  22804635.439    22804645.7894
  20530315.586   -20890582.628 9 -16257044.40847  20530315.718    20530322.3614
  22184035.263   -16761177.806 8 -13032075.15046  22184035.073    22184047.2254
  23259852.271   -13037440.761 8 -10145108.38645  23259851.700    23259862.0754
  21897524.657     5985497.677 8   4785537.87547  21897523.989    21897530.9974
  21072128.829   -19309448.981 9 -15019500.49147  21072128.639    21072135.0864
 00  4 13 17 47  0.0000000  0  6 02 04 24 05 07 09
  22816326.067     8224276.309 8   6409181.18746  22816325.376    22816335.8174
  20524463.182   -20921337.272 9 -16281009.02947  20524463.310    20524469.9174
  22166047.294   -16855704.582 8 -13105732.15946  22166047.065    22166059.1794
  23244148.184   -13119965.695 8 -10209413.36045  23244147.632    23244157.9994
  21909150.877     6046593.396 8   4833144.86547  21909150.191    21909157.1894
  21068166.734   -19330270.133 9 -15035724.77347  21068166.562    21068172.9904
 00  4 13 17 47 30.0000000  0  6 02 04 24 05 07 09
  22828063.093     8285954.267 8   6457241.69446  22828062.470    22828072.9584
  20518722.116   -20951506.807 9 -16304517.71947  20518722.224    20518728.8124
  22148110.694   -16949961.263 8 -13179178.69646  22148110.473    22148122.4854
  23228448.128   -13202469.227 8 -10273701.66645  23228447.531    23228457.8244
  21920803.314     6107827.194 8   4880859.45847  21920802.654    21920809.6414
  21064310.584   -19350534.613 9 -15051515.28447  21064310.391    21064316.8124
 00  4 13 17 48  0.0000000  0  6 02 04 24 05 07 09
  22839847.549     8347881.202 8   6505496.20746  22839846.913    22839857.5094
  20513092.206   -20981091.968 9 -16327571.05447  20513092.322    20513098.8904
  22130226.317   -17043943.438 8 -13252411.34346  22130226.084    22130238.0204
  23212755.989   -13284931.519 8 -10337957.83645  23212755.384    23212765.6004
  21932481.825     6169197.876 8   4928680.70847  21932481.139    21932488.1274
  21060559.848   -19370245.010 9 -15066874.04447  21060559.648    21060566.0664
 00  4 13 17 48 30.0000000  0  6 02 04 24 05 07 09
  22851679.691     8410058.539 8   6553945.83846  22851679.041    22851689.7154
  20507575.495   -21010082.260 9 -16350160.85547  20507575.631    20507582.1524
  22112393.609   -17137654.188 8 -13325432.49346  22112393.369    22112405.2284
  23197071.761   -13367351.820 8 -10402181.29145  23197071.172    23197081.3684
  21944183.004     6230687.967 8   4976595.01247  21944182.339    21944189.3324
  21056917.053   -19389388.032 9 -15081790.68947  21056916.840    21056923.3214
 00  4 13 17 49  0.0000000  0  6 02 04 24 05 07 09
  22863561.707     8472498.133 8   6602599.81346  22863561.075    22863571.7764
  20502179.433   -21038438.584 9 -16372256.65647  20502179.537    20502186.0554
  22094615.574   -17231077.611 8 -13398229.74746  22094615.326    22094627.1634
  23181397.236   -13449721.066 8 -10466364.96745  23181396.643    23181406.8584
  21955905.551     6292290.134 8   5024596.64147  21955904.883    21955911.9114
  21053384.171   -19407953.136 9 -15096257.01347  21053383.976    21053390.4954
 00  4 13 17 49 30.0000000  0  6 02 04 24 05 07 09
  22875496.092     8535212.894 8   6651468.20546  22875495.444    22875506.2154
  20496906.043   -21066150.066 9 -16393849.97847  20496906.177    20496912.7014
  22076895.743   -17324195.257 8 -13470788.74046  22076895.474    22076907.2394
  23165736.542   -13532017.679 8 -10530492.03445  23165735.975    23165746.2114
  21967650.491     6354009.679 8   5072689.73647  21967649.792    21967656.8404
  21049963.500   -19425928.826 9 -15110264.05447  21049963.324    21049969.8344
 00  4 13 17 50  0.0000000  0  6 02 04 24 05 07 09
  22887483.817     8598207.821 8   6700554.89946  22887483.204    22887493.9784
  20491754.555   -21093221.251 9 -16414944.36847  20491754.693    20491761.1824
  22059232.838   -17417013.663 8 -13543114.55846  22059232.551    22059244.2484
  23150090.512   -13614237.285 8 -10594559.10245  23150089.917    23150100.2184
  21979417.756     6415847.018 8   5120874.61447  21979417.086    21979424.1724
  21046654.504   -19443317.938 9 -15123814.02047  21046654.314    21046660.7984
 00  4 13 17 50 30.0000000  0  6 02 04 24 05 07 09
  22899526.790     8661492.841 8   6749867.64146  22899526.168    22899536.9214
  20486723.809   -21119657.888 9 -16435544.31747  20486723.926    20486730.4134
  22041626.541   -17509534.330 8 -13615208.37846  22041626.310    22041637.9294
  23134456.482   -13696393.955 8 -10658577.14745  23134455.910    23134466.1764
  21991211.323     6477822.584 8   5169167.20347  21991210.642    21991217.7924
  21043458.064   -19460115.343 9 -15136902.92347  21043457.877    21043464.3514
 00  4 13 17 51  0.0000000  0  6 02 04 24 05 07 09
  22911624.990     8725068.404 8   6799406.77646  22911624.392    22911635.1954
  20481808.603   -21145487.149 9 -16455670.97247  20481808.729    20481815.2184
  22024078.114   -17601750.973 8 -13687065.29446  22024077.888    22024089.4754
  23118832.353   -13778498.259 8 -10722554.37945  23118831.846    23118842.0394
  22003033.284     6539946.974 8   5217575.75947  22003032.597    22003039.7674
  21040371.627   -19476334.622 9 -15149541.33747  21040371.454    21040377.9424
 00  4 13 17 51 30.0000000  0  6 02 04 24 05 07 09
  22923773.800     8788909.392 8   6849152.73646  22923773.132    22923784.0174
  20476999.332   -21170759.951 9 -16475364.02747  20476999.458    20477005.9524
  22006585.963   -17693672.117 8 -13758691.94646  22006585.738    22006597.2804
  23103216.191   -13860561.042 8 -10786499.25846  23103215.736    23103225.8294
  22014882.046     6602212.537 8   5266094.32147  22014881.365    22014888.5344
  21037393.569   -19491984.608 9 -15161736.14347  21037393.386    21037399.8534
 00  4 13 17 52  0.0000000  0  6 02 04 24 05 07 09
  22935966.961     8852983.981 8   6899080.72446  22935966.270    22935977.2414
  20472292.048   -21195496.598 9 -16494639.29947  20472292.177    20472298.6844
  21989148.695   -17785304.590 8 -13830093.66246  21989148.480    21989159.9974
  23087604.980   -13942598.309 8 -10850424.26346  23087604.504    23087614.5644
  22026752.702     6664593.103 8   5314702.49747  22026752.027    22026759.1884
  21034521.217   -19507079.041 9 -15173498.05647  21034521.014    21034527.4804
 00  4 13 17 52 30.0000000  0  6 02 04 24 05 07 09
  22948200.548     8917271.030 8   6949174.26046  22948199.861    22948210.9404
  20467688.922   -21219686.245 9 -16513488.33747  20467689.044    20467695.5474
  21971768.133   -17876638.920 8 -13901263.06246  21971767.952    21971779.4234
  23071998.637   -14024609.351 8 -10914328.82346  23071998.129    23072008.1514
  22038640.024     6727061.130 8   5363378.82547  22038639.337    22038646.5234
  21031753.194   -19521625.024 9 -15184832.60447  21031753.010    21031759.4664
 00  4 13 17 53  0.0000000  0  6 02 04 24 05 07 09
  22960472.733     8981760.850 8   6999425.80946  22960472.066    22960483.2054
  20463195.905   -21243297.053 9 -16531886.33447  20463196.024    20463202.5634
  21954448.219   -17967654.938 8 -13972184.41846  21954448.042    21954459.4824
  23056398.607   -14106587.557 8 -10978207.79846  23056398.078    23056408.0834
  22050539.951     6789595.549 8   5412106.88047  22050539.269    22050546.4884
  21029089.289   -19535624.069 9 -15195740.96847  21029089.104    21029095.5714
 00  4 13 17 53 30.0000000  0  6 02 04 24 05 07 09
  22972785.003     9046461.156 8   7049841.36846  22972784.362    22972795.4754
  20458820.350   -21266290.432 9 -16549803.21847  20458820.493    20458827.0244
  21937193.069   -18058330.691 8 -14042840.64547  21937192.898    21937204.2574
  23040808.080   -14188515.744 8 -11042047.79346  23040807.581    23040817.4934
  22062452.781     6852197.716 8   5460887.73047  22062452.112    22062459.3264
  21026530.941   -19549068.125 9 -15206216.87547  21026530.766    21026537.2514
 00  4 13 17 54  0.0000000  0  6 02 04 24 05 07 09
  22985141.837     9111395.998 8   7100439.68046  22985141.178    22985152.3624
  20454568.270   -21288635.167 9 -16567214.66447  20454568.397    20454574.9224
  21920005.566   -18148650.802 8 -14113219.74147  21920005.406    21920016.7174
  23025227.726   -14270390.717 8 -11105846.33446  23025227.257    23025237.0124
  22074381.041     6914881.026 8   5509731.81047  22074380.374    22074387.6204
  21024079.063   -19561953.052 9 -15216257.09247  21024078.873    21024085.3884
 00  4 13 17 54 30.0000000  0  6 02 04 24 05 07 09
  22997550.135     9176601.125 8   7151248.59046  22997549.487    22997560.7564
  20450442.476   -21310316.312 9 -16584109.03047  20450442.603    20450449.1394
  21902886.537   -18238611.067 8 -14183318.44347  21902886.348    21902897.6324
  23009657.334   -14352213.321 8 -11169604.06646  23009656.856    23009666.5204
  22086330.980     6977678.046 8   5558664.49647  22086330.302    22086337.5894
  21021735.685   -19574267.813 9 -15225853.02947  21021735.505    21021742.0234
 00  4 13 17 55  0.0000000  0  6 02 04 24 05 07 09
  23010014.212     9242099.261 8   7202285.82246  23010013.579    23010024.8874
  20446439.537   -21331351.517 9 -16600500.06647  20446439.664    20446446.1844
  21885835.570   -18328213.747 8 -14253138.50447  21885835.352    21885846.6004
  22994096.698   -14433984.655 8 -11233321.85146  22994096.189    22994105.7764
  22098306.478     7040609.769 8   5607702.14747  22098305.841    22098313.1634
  21019499.916   -19586016.998 9 -15235008.25147  21019499.713    21019506.2524
 00  4 13 17 55 30.0000000  0  6 02 04 24 05 07 09
  23022532.625     9307883.000 8   7253545.59546  23022531.963    23022543.3414
  20442553.273   -21351773.751 9 -16616413.46347  20442553.415    20442559.9384
  21868846.814   -18417489.358 8 -14322703.71247  21868846.573    21868857.8014
  22978545.780   -14515704.872 8 -11296999.79246  22978545.264    22978554.7624
  22110307.864     7103677.293 8   5656845.60747  22110307.223    22110314.5644
  21017368.724   -19597216.359 9 -15243735.04247  21017368.529    21017375.0794
 00  4 13 17 56  0.0000000  0  6 02 04 24 05 07 09
  23035102.114     9373935.173 8   7305014.53046  23035101.451    23035112.9274
  20438780.878   -21371597.818 9 -16631860.75847  20438781.016    20438787.5044
  21851915.390   -18506463.859 8 -14392034.28547  21851915.124    21851926.2874
  22963003.969   -14597377.273 8 -11360640.47946  22963003.494    22963012.9074
  22122333.286     7166870.916 8   5706087.33147  22122332.648    22122339.9824
  21015341.277   -19607870.607 9 -15252037.06747  21015341.112    21015347.6514
 00  4 13 17 56 30.0000000  0  6 02 04 24 05 07 09
  23047719.838     9440240.711 8   7356680.89446  23047719.245    23047730.6964
  20435121.700   -21390826.738 9 -16646844.30147  20435121.830    20435128.3374
  21835040.827   -18595139.213 8 -14461131.75747  21835040.596    21835051.7044
  22947474.029   -14678987.034 8 -11424232.35446  22947473.525    22947482.9944
  22134380.030     7230176.790 8   5755416.52647  22134379.398    22134386.7014
  21013416.500   -19617985.503 9 -15259918.81947  21013416.305    21013422.8404
 00  4 13 17 57  0.0000000  0  6 02 04 24 05 07 09
  23060380.928     9506773.884 8   7408524.64546  23060380.350    23060391.8454
  20431573.474   -21409472.641 9 -16661373.55147  20431573.606    20431580.1134
  21818222.673   -18683517.966 8 -14529998.12147  21818222.469    21818233.5114
  22931957.975   -14760523.910 8 -11487767.43746  22931957.467    22931966.9144
  22146444.654     7293576.486 8   5804818.82747  22146444.036    22146451.3064
  21011595.127   -19627556.842 9 -15267377.01947  21011594.935    21011601.4654
 00  4 13 17 57 30.0000000  0  6 02 04 24 05 07 09
  23073082.691     9573521.006 8   7460535.09146  23073082.087    23073093.7194
  20428139.583   -21427517.731 9 -16675434.63347  20428139.723    20428146.2284
  21801463.010   -18771589.666 8 -14598625.22747  21801462.812    21801473.8064
  22916454.812   -14841993.203 8 -11551249.86446  22916454.309    22916463.7004
  22158525.770     7357062.815 8   5854288.63947  22158525.132    22158532.4044
  21009882.474   -19636556.848 9 -15274390.02447  21009882.281    21009888.8294
 00  4 13 17 58  0.0000000  0  6 02 04 24 05 07 09
  23085829.352     9640503.895 8   7512729.24846  23085828.733    23085840.4584
  20424823.406   -21444944.419 9 -16689013.84647  20424823.529    20424830.0254
  21784769.133   -18859315.683 8 -14666982.97047  21784768.938    21784779.8744
  22900966.623   -14923383.734 8 -11614670.92046  22900966.061    22900975.4634
  22170623.308     7420635.270 8   5903825.55347  22170622.627    22170629.8864
  21008282.227   -19644966.227 9 -15280942.80547  21008282.049    21008288.5884
 00  4 13 17 58 30.0000000  0  6 02 04 24 05 07 09
  23098622.690     9707732.114 8   7565114.57246  23098622.076    23098633.9034
  20421625.069   -21461751.541 9 -16702110.28447  20421625.203    20421631.7054
  21768144.042   -18946680.397 8 -14735059.18347  21768143.858    21768154.7324
  22885490.883   -15004708.554 8 -11678040.76946  22885490.335    22885499.7574
  22182738.376     7484299.955 8   5953434.33447  22182737.710    22182744.9674
  21006796.233   -19652775.393 9 -15287027.88547  21006796.038    21006802.5734
 00  4 13 17 59  0.0000000  0  6 02 04 24 05 07 09
  23111465.090     9775218.084 8   7617700.73446  23111464.446    23111476.3904
  20418545.581   -21477934.158 9 -16714720.10247  20418545.715    20418552.2094
  21751590.100   -19033671.339 8 -14802844.14747  21751589.878    21751600.7024
  22870025.544   -15085978.602 8 -11741367.94646  22870025.042    22870034.4214
  22194873.380     7548069.612 8   6003124.90547  22194872.719    22194880.0044
  21005427.777   -19659966.815 9 -15292631.61047  21005427.585    21005434.1154
 00  4 13 17 59 30.0000000  0  6 02 04 24 05 07 09
  23124360.612     9842983.296 8   7670504.48746  23124359.958    23124371.9814
  20415589.219   -21493469.982 9 -16726825.91147  20415589.342    20415595.8134
  21735109.915   -19120274.863 8 -14870327.22647  21735109.657    21735120.3684
  22854570.734   -15167193.434 8 -11804652.10146  22854570.261    22854579.6314
  22207028.219     7611943.796 8   6052896.92947  22207027.575    22207034.8894
  21004177.072   -19666539.413 9 -15297753.13047  21004176.881    21004183.4254
 00  4 13 18  0  0.0000000  0  6 02 04 24 05 07 09
  23137312.075     9911042.343 8   7723537.20346  23137311.432    23137323.4724
  20412755.021   -21508363.631 9 -16738431.33447  20412755.154    20412761.5904
  21718703.863   -19206488.492 8 -14937506.49647  21718703.615    21718714.2344
  22839128.664   -15248341.603 8 -11867884.30646  22839128.190    22839137.5054
  22219203.290     7675923.985 8   6102751.55647  22219202.646    22219210.0084
  21003040.766   -19672510.865 9 -15302406.23047  21003040.578    21003047.1284
 00  4 13 18  0 30.0000000  0  6 02 04 24 05 07 09
  23150316.926     9979382.098 8   7776788.65446  23150316.289    23150328.4164
  20410042.006   -21522620.611 9 -16749540.64347  20410042.142    20410048.5344
  21702369.155   -19292327.510 8 -15004393.86247  21702368.913    21702379.4394
  22823697.880   -15329430.393 8 -11931070.24946  22823697.423    22823706.7084
  22231399.648     7740015.836 8   6152693.19247  22231398.993    22231406.3704
  21002020.428   -19677872.988 9 -15306584.52847  21002020.244    21002026.7834
 00  4 13 18  1  0.0000000  0  6 02 04 24 05 07 09
  23163375.301    10048002.873 8   7830259.07446  23163374.649    23163386.8934
  20407448.736   -21536248.409 9 -16760159.68547  20407448.867    20407455.2454
  21686104.994   -19377795.714 8 -15070992.29247  21686104.752    21686115.1504
  22808282.547   -15410437.854 8 -11994192.82646  22808282.055    22808291.3554
  22243615.257     7804208.938 8   6202713.71647  22243614.556    22243621.9724
  21001114.662   -19682633.076 9 -15310293.71047  21001114.471    21001121.0224
 00  4 13 18  1 30.0000000  0  6 02 04 24 05 07 09
  23176484.739    10116892.070 8   7883938.65246  23176484.123    23176496.3584
  20404972.382   -21549261.830 9 -16770299.98947  20404972.501    20404978.8544
  21669908.748   -19462907.101 8 -15137312.68147  21669908.485    21669918.7954
  22792885.036   -15491351.391 8 -12057242.20746  22792884.595    22792893.8504
  22255847.482     7868489.189 8   6252802.15246  22255846.768    22255854.1764
  21000320.065   -19686808.714 9 -15313547.47147  21000319.871    21000326.4324
 00  4 13 18  2  0.0000000  0  6 02 04 24 05 07 09
  23189639.965    10186022.007 8   7937805.81546  23189639.396    23189651.6444
  20402605.824   -21561698.110 9 -16779990.57147  20402605.950    20402612.2884
  21653776.560   -19547681.687 8 -15203370.62947  21653776.293    21653786.5514
  22777503.938   -15572178.871 8 -12120224.52246  22777503.543    22777512.7074
  22268096.382     7932857.218 8   6302958.99546  22268095.638    22268103.0644
  20999632.421   -19690422.405 9 -15316363.35047  20999632.217    20999638.7964
 00  4 13 18  2 30.0000000  0  6 02 04 24 05 07 09
  23202837.924    10255376.365 8   7991847.84646  23202837.349    23202849.6144
  20400347.767   -21573564.237 9 -16789236.87847  20400347.883    20400354.2404
  21637704.364   -19632141.227 8 -15269183.08247  21637704.090    21637714.3134
  22762138.063   -15652926.485 8 -12183144.61446  22762137.670    22762146.8434
  22280360.870     7997307.215 8   6353179.71146  22280360.157    22280367.6034
  20999050.237   -19693481.913 9 -15318747.39747  20999050.030    20999056.6004
 00  4 13 18  3  0.0000000  0  6 02 04 24 05 07 09
  23216077.369    10324948.740 8   8046059.74646  23216076.724    23216089.1384
  20398199.442   -21584853.719 9 -16798033.85247  20398199.560    20398205.9264
  21621691.294   -19716289.881 8 -15334753.29547  21621691.025    21621701.2254
  22746788.319   -15733589.493 8 -12245998.78446  22746787.917    22746797.1104
  22292639.881     8061833.578 8   6403459.91446  22292639.147    22292646.6374
  20998567.601   -19696018.230 9 -15320723.76447  20998567.384    20998573.9414
 00  4 13 18  3 30.0000000  0  6 02 04 24 05 07 09
  23229355.749    10394725.717 8   8100431.08246  23229355.061    23229367.5934
  20396163.186   -21595554.187 9 -16806371.85647  20396163.300    20396169.6734
  21605738.142   -19800123.345 8 -15400077.90047  21605737.879    21605748.0674
  22731453.025   -15814176.627 8 -12308793.82946  22731452.613    22731461.7344
  22304936.506     8126452.764 8   6453812.45246  22304935.774    22304943.3284
  20998183.754   -19698035.197 9 -15322295.44347  20998183.550    20998190.1244
 00  4 13 18  4  0.0000000  0  6 02 04 24 05 07 09
  23242673.360    10464708.885 8   8154963.07746  23242672.722    23242685.2574
  20394241.619   -21605651.756 9 -16814240.06747  20394241.730    20394248.0954
  21589848.526   -19883622.812 8 -15465142.25247  21589848.299    21589858.5024
  22716131.573   -15894690.646 8 -12371531.90246  22716131.160    22716140.2294
  22317254.271     8191183.110 8   6504251.61146  22317253.597    22317261.2034
  20997902.341   -19699513.718 9 -15323447.55347  20997902.155    20997908.7404
 00  4 13 18  4 30.0000000  0  6 02 04 24 05 07 09
  23256033.124    10534913.974 8   8209667.99346  23256032.533    23256045.1624
  20392441.063   -21615113.516 9 -16821612.84347  20392441.187    20392447.5334
  21574026.089   -19966769.435 8 -15529931.66847  21574025.853    21574036.0564
  22700827.515   -15975113.656 8 -12434199.06046  22700827.075    22700836.1084
  22329592.330     8256019.866 8   6554773.67946  22329591.635    22329599.2734
  20997728.672   -19700426.225 9 -15324158.61647  20997728.495    20997735.1184
 00  4 13 18  5  0.0000000  0  6 02 04 24 05 07 09
  23269438.064    10605356.001 8   8264557.53546  23269437.523    23269450.1484
  20390762.399   -21623934.657 9 -16828486.43847  20390762.549    20390768.8954
  21558277.593   -20049527.760 8 -15594418.51147  21558277.356    21558287.5414
  22685542.030   -16055438.933 8 -12496790.07046  22685541.576    22685550.5674
  22341952.462     8320972.574 8   6605386.11246  22341951.769    22341959.3994
  20997666.180   -19700754.754 9 -15324414.62947  20997666.008    20997672.6624
 00  4 13 18  5 30.0000000  0  6 02 04 24 05 07 09
  23282889.940    10676044.526 8   8319639.15146  23282889.381    23282901.9804
  20389202.058   -21632134.237 9 -16834875.69647  20389202.209    20389208.5364
  21542605.529   -20131884.183 8 -15658592.18147  21542605.315    21542615.4814
  22670273.112   -16135677.294 8 -12559313.34446  22670272.587    22670281.5654
  22354331.333     8386023.566 8   6656075.12846  22354330.649    22354338.2874
  20997719.905   -19700472.571 9 -15324194.76547  20997719.721    20997726.3994
 00  4 13 18  6  0.0000000  0  6 02 04 24 05 07 09
  23296392.105    10746997.520 8   8374926.83346  23296391.594    23296404.2374
  20387759.077   -21639717.319 9 -16840784.56947  20387759.228    20387765.5334
  21527010.343   -20213836.703 8 -15722451.12147  21527010.141    21527020.2694
  22655019.948   -16215833.102 8 -12621772.30746  22655019.406    22655028.3914
  22366723.327     8451143.650 8   6706817.97446  22366722.620    22366730.2714
  20997891.290   -19699571.935 9 -15323492.99047  20997891.103    20997897.7944
 00  4 13 18  6 30.0000000  0  6 02 04 24 05 07 09
  23309945.963    10818222.411 8   8430426.37645  23309945.469    23309958.2184
  20386433.335   -21646684.014 9 -16846213.13647  20386433.476    20386439.8024
  21511491.836   -20295386.705 8 -15785996.41147  21511491.625    21511501.7204
  22639781.261   -16295912.602 8 -12684171.80046  22639780.676    22639789.6124
  22379126.239     8516321.221 8   6757605.61346  22379125.574    22379133.2064
  20998175.662   -19698077.613 9 -15322328.60547  20998175.495    20998182.1814
 00  4 13 18  7  0.0000000  0  6 02 04 24 05 07 09
  23323550.423    10889712.682 8   8486132.71945  23323549.922    23323562.7314
  20385222.199   -21653048.472 9 -16851172.42647  20385222.354    20385228.6724
  21496050.678   -20376529.862 8 -15849224.67747  21496050.444    21496060.5144
  22624554.672   -16375928.652 8 -12746521.86146  22624554.057    22624562.9304
  22391540.305     8581557.381 8   6808438.91046  22391539.640    22391547.3114
  20998568.523   -19696013.377 9 -15320720.13247  20998568.343    20998575.0184
 00  4 13 18  7 30.0000000  0  6 02 04 24 05 07 09
  23337202.192    10961451.635 8   8542032.82845  23337201.600    23337214.6104
  20384125.257   -21658812.894 9 -16855664.16047  20384125.394    20384131.7324
  21480684.176   -20457280.820 8 -15912147.33847  21480683.932    21480694.0164
  22609339.639   -16455883.466 8 -12808824.20346  22609339.080    22609347.9564
  22403963.660     8646842.465 8   6859310.33146  22403963.009    22403970.7084
  20999067.786   -19693389.940 9 -15318675.92147  20999067.618    20999074.2604
 00  4 13 18  8  0.0000000  0  6 02 04 24 05 07 09
  23350900.912    11033437.539 8   8598125.36545  23350900.268    23350913.4014
  20383146.035   -21663958.775 9 -16859673.91547  20383146.182    20383152.5224
  21465390.860   -20537647.029 8 -15974770.19347  21465390.600    21465400.6914
  22594138.753   -16535764.191 8 -12871068.81046  22594138.224    22594147.0514
  22416402.041     8712206.304 8   6910243.11346  22416401.398    22416409.0554
  20999670.578   -19690222.409 9 -15316207.74047  20999670.411    20999677.0054
 00  4 13 18  8 30.0000000  0  6 02 04 24 05 07 09
  23364645.520    11105664.570 8   8654405.80445  23364644.893    23364658.0434
  20382283.031   -21668493.755 9 -16863207.64147  20382283.169    20382289.4974
  21450170.982   -20617627.173 8 -16037092.21947  21450170.726    21450180.8064
  22578952.008   -16615570.722 8 -12933255.61446  22578951.468    22578960.2494
  22428859.207     8777668.731 8   6961252.72146  22428858.574    22428866.1794
  21000376.094   -19686515.016 9 -15313318.88847  21000375.922    21000382.5164
 00  4 13 18  9  0.0000000  0  6 02 04 24 05 07 09
  23378435.615    11178131.126 8   8710872.86045  23378434.995    23378448.2944
  20381535.060   -21672424.282 9 -16866270.36647  20381535.197    20381541.5374
  21435025.046   -20697218.503 8 -16099111.27947  21435024.832    21435034.8954
  22563779.535   -16695301.977 8 -12995383.75146  22563779.041    22563787.7754
  22441333.484     8843221.190 8   7012332.47746  22441332.858    22441340.4694
  21001188.391   -19682246.490 9 -15309992.79547  21001188.220    21001194.7894
 00  4 13 18  9 30.0000000  0  6 02 04 24 05 07 09
  23392272.162    11250841.379 8   8767529.81945  23392271.647    23392284.9784
  20380903.071   -21675745.287 9 -16868858.14147  20380903.194    20380909.5084
  21419951.875   -20776427.955 8 -16160832.76847  21419951.666    21419961.6884
  22548621.167   -16774959.622 8 -13057454.54146  22548620.645    22548629.3134
  22453824.647     8908862.484 8   7063481.45346  22453824.031    22453831.6844
  21002108.922   -19677409.270 9 -15306223.56547  21002108.743    21002115.2934
 00  4 13 18 10  0.0000000  0  6 02 04 24 05 07 09
  23406158.700    11323814.296 8   8824391.43345  23406158.183    23406171.5834
  20380389.489   -21678443.782 9 -16870960.84047  20380389.640    20380395.9394
  21404952.963   -20855247.005 9 -16222250.05147  21404952.770    21404962.7364
  22533476.930   -16854542.334 8 -13119466.93146  22533476.449    22533485.0914
  22466333.884     8974598.535 8   7114704.27046  22466333.261    22466340.9494
  21003139.236   -19671994.814 9 -15302004.54147  21003139.079    21003145.6364
 00  4 13 18 10 30.0000000  0  6 02 04 24 05 07 09
  23420094.484    11397045.889 8   8881454.61445  23420093.976    23420107.4744
  20379996.529   -21680508.596 9 -16872569.76247  20379996.692    20380002.9874
  21390032.324   -20933654.956 9 -16283347.00547  21390032.149    21390042.0544
  22518347.780   -16934046.177 8 -13181417.86646  22518347.322    22518355.9394
  22478857.363     9040409.215 8   7165985.24046  22478856.731    22478864.4534
  21004281.952   -19665989.916 9 -15297325.43247  21004281.788    21004288.3934
 00  4 13 18 11  0.0000000  0  6 02 04 24 05 07 09
  23434080.356    11470540.652 8   8938722.88745  23434079.873    23434093.3884
  20379729.322   -21681912.808 9 -16873663.93347  20379729.467    20379735.7564
  21375191.805   -21011641.931 9 -16344115.93147  21375191.623    21375201.4654
  22503239.021   -17013442.753 8 -13243285.21646  22503238.552    22503247.1354
  22491395.688     9106298.023 8   7217327.07346  22491395.021    22491402.7814
  21005539.804   -19659379.887 9 -15292174.79547  21005539.658    21005546.3034
 00  4 13 18 11 30.0000000  0  6 02 04 24 05 07 09
  23448117.607    11544305.476 8   8996201.57745  23448117.146    23448130.7124
  20379591.080   -21682639.266 9 -16874229.98247  20379591.233    20379597.4844
  21360431.745   -21089206.156 9 -16404555.44547  21360431.541    21360441.3124
  22488155.007   -17092709.497 8 -13305051.39146  22488154.505    22488163.0324
  22503952.865     9172285.986 8   7268746.17946  22503952.208    22503959.9634
  21006914.730   -19652154.801 9 -15286544.88647  21006914.576    21006921.2684
 00  4 13 18 12  0.0000000  0  6 02 04 24 05 07 09
  23462204.441    11618330.716 8   9053883.17845  23462203.913    23462217.6114
  20379582.051   -21682686.679 9 -16874266.91147  20379582.209    20379588.4564
  21345755.437   -21166330.083 9 -16464651.87547  21345755.241    21345764.9624
  22473100.886   -17171819.130 8 -13366695.15446  22473100.387    22473108.8704
  22516530.048     9238379.196 8   7320247.28746  22516529.391    22516537.1144
  21008408.842   -19644303.260 9 -15280426.83547  21008408.671    21008415.4524
 00  4 13 18 12 30.0000000  0  6 02 04 24 05 07 09
  23476339.594    11692609.827 8   9111762.60745  23476339.028    23476352.7534
  20379699.034   -21682071.861 9 -16873787.80547  20379699.198    20379705.4504
  21331162.457   -21243016.132 9 -16524407.10247  21331162.244    21331171.9214
  22458079.224   -17250758.082 8 -13428205.91046  22458078.746    22458087.2154
  22529127.118     9304577.364 8   7371830.19046  22529126.480    22529134.2304
  21010020.185   -19635835.506 9 -15273828.61447  21010020.016    21010026.8704
 00  4 13 18 13  0.0000000  0  6 02 04 24 05 07 09
  23490523.292    11767144.292 8   9169840.99845  23490522.649    23490536.5154
  20379934.539   -21680834.246 9 -16872823.40947  20379934.695    20379940.9484
  21316649.042   -21319284.168 9 -16583836.61347  21316648.841    21316658.4834
  22443087.437   -17329540.030 8 -13489594.32946  22443086.934    22443095.4184
  22541742.998     9370874.063 8   7423489.86646  22541742.366    22541750.1644
  21011743.831   -19626777.737 9 -15266770.65047  21011743.682    21011750.5084
 00  4 13 18 13 30.0000000  0  6 02 04 24 05 07 09
  23504751.800    11841913.739 8   9228102.49845  23504751.129    23504765.1204
  20380280.805   -21679014.624 9 -16871405.50547  20380280.935    20380287.2044
  21302212.422   -21395148.501 9 -16642951.54947  21302212.206    21302221.8404
  22428117.785   -17408205.609 8 -13550892.08046  22428117.288    22428125.7464
  22554372.711     9437243.243 8   7475206.02046  22554372.083    22554379.9184
  21013574.661   -19617157.251 9 -15259274.21147  21013574.485    21013581.2884
 00  4 13 18 14  0.0000000  0  6 02 04 24 05 07 09
  23519023.601    11916910.845 8   9286541.37745  23519022.938    23519037.0604
  20380732.465   -21676640.968 9 -16869555.88547  20380732.602    20380738.8504
  21287851.316   -21470615.953 9 -16701757.22447  21287851.107    21287860.7274
  22413165.512   -17486779.990 8 -13612118.75846  22413165.029    22413173.4524
  22567012.275     9503664.139 8   7526962.47846  22567011.643    22567019.5244
  21015507.233   -19607001.719 9 -15251360.84447  21015507.047    21015513.8554
 00  4 13 18 14 30.0000000  0  6 02 04 24 05 07 09
  23533339.712    11992140.904 8   9345161.79745  23533339.147    23533353.2644
  20381285.016   -21673737.043 9 -16867293.06947  20381285.160    20381291.4144
  21273561.144   -21545710.850 9 -16760272.60447  21273560.930    21273570.4964
  22398223.625   -17565299.908 8 -13673303.00046  22398223.113    22398231.5234
  22579656.440     9570109.269 8   7578737.81446  22579655.809    22579663.7394
  21017538.186   -19596329.196 9 -15243044.63647  21017538.011    21017544.7844
 00  4 13 18 15  0.0000000  0  6 02 04 24 05 07 09
  23547696.257    12067583.395 8   9403947.72945  23547695.619    23547709.9664
  20381939.776   -21670296.310 9 -16864611.96347  20381939.917    20381946.1664
  21259340.759   -21620439.080 9 -16818502.27347  21259340.535    21259350.0524
  22383289.483   -17643779.126 8 -13734455.53246  22383288.922    22383297.2984
  22592301.967     9636561.604 8   7630518.76346  22592301.305    22592309.2444
  21019669.837   -19585127.249 9 -15234315.89147  21019669.656    21019676.4134
 00  4 13 18 15 30.0000000  0  6 02 04 24 05 07 09
  23562092.318    12143233.268 8   9462895.23245  23562091.633    23562106.1404
  20382702.418   -21666288.496 9 -16861488.98447  20382702.549    20382708.7844
  21245193.664   -21694782.079 9 -16876431.76547  21245193.439    21245202.8984
  22368365.264   -17722205.920 8 -13795567.22646  22368364.734    22368373.1174
  22604950.409     9703028.996 8   7682311.45246  22604949.739    22604957.6844
  21021905.616   -19573378.180 9 -15225160.82147  21021905.458    21021912.1954
 00  4 13 18 16  0.0000000  0  6 02 04 24 05 07 09
  23576531.535    12219109.892 8   9522019.44345  23576530.896    23576545.4424
  20383579.104   -21661681.486 9 -16857899.09547  20383579.232    20383585.4454
  21231124.330   -21768716.574 9 -16934042.94447  21231124.099    21231133.4924
  22353457.369   -17800546.974 8 -13856612.10646  22353456.834    22353465.1864
  22617606.051     9769534.386 8   7734133.74546  22617605.358    22617613.3144
  21024250.352   -19561056.767 9 -15215559.76647  21024250.174    21024256.9124
 00  4 13 18 16 30.0000000  0  6 02 04 24 05 07 09
  23591014.520    12295216.570 8   9581322.90645  23591013.890    23591028.5784
  20384575.160   -21656447.196 9 -16853820.42147  20384575.302    20384581.5024
  21217136.418   -21842223.128 9 -16991320.66047  21217136.182    21217145.5164
  22338570.108   -17878779.677 8 -13917572.55146  22338569.610    22338577.9154
  22630271.749     9836092.644 8   7785997.23246  22630271.069    22630279.0514
  21026709.162   -19548136.213 9 -15205491.85147  21026708.972    21026715.6844
 00  4 13 18 17  0.0000000  0  6 02 04 24 05 07 09
  23605541.499    12371554.515 8   9640806.56145  23605540.784    23605555.6274
  20385695.500   -21650559.674 9 -16849232.73647  20385695.637    20385701.8484
  21203235.896   -21915270.434 9 -17048240.52547  21203235.666    21203244.9284
  22323707.239   -17956884.205 8 -13978433.14146  22323706.760    22323715.0074
  22642953.566     9902735.704 8   7837926.79546  22642952.919    22642960.8764
  21029284.023   -19534605.323 9 -15194948.34847  21029283.830    21029290.5404
 00  4 13 18 17 30.0000000  0  6 02 04 24 05 07 09
  23620118.135    12448153.584 7   9700493.70245  23620117.412    23620132.3924
  20386939.743   -21644021.104 9 -16844137.74247  20386939.905    20386946.1164
  21189426.817   -21987837.207 9 -17104785.94647  21189426.585    21189435.7784
  22308870.841   -18034849.575 8 -14039185.28646  22308870.340    22308878.5574
  22655654.571     9969479.625 8   7889934.95946  22655653.897    22655661.8864
  21031972.271   -19520478.788 9 -15183940.70647  21031972.089    21031978.8204
 00  4 13 18 18  0.0000000  0  6 02 04 24 05 07 09
  23634744.097    12525011.743 7   9760382.74145  23634743.457    23634758.3744
  20388303.442   -21636854.764 9 -16838553.56947  20388303.581    20388309.7884
  21175705.710   -22059941.623 9 -17160971.08947  21175705.494    21175714.6144
  22294059.543   -18112683.135 8 -14099834.72946  22294058.995    22294067.2394
  22668372.220    10036310.995 8   7942011.25346  22668371.592    22668379.5814
  21034769.933   -19505777.227 9 -15172484.99547  21034769.742    21034776.5024
 00  4 13 18 18 30.0000000  0  6 02 04 24 05 07 09
  23649419.126    12602128.168 7   9820473.02145  23649418.498    23649433.5064
  20389783.938   -21629074.718 9 -16832491.18947  20389784.086    20389790.2974
  21162071.135   -22131591.183 9 -17216801.79947  21162070.913    21162080.0124
  22279271.029   -18190396.658 8 -14160390.63546  22279270.502    22279278.7384
  22681104.479    10103219.015 8   7994147.27446  22681103.838    22681111.8604
  21037672.070   -19490526.590 9 -15160601.43247  21037671.883    21037678.6594
 00  4 13 18 19  0.0000000  0  6 02 04 24 05 07 09
  23664143.462    12679503.320 7   9880764.90845  23664142.804    23664158.0234
  20391379.846   -21620688.191 9 -16825956.22747  20391379.991    20391386.1944
  21148519.758   -22202803.438 9 -17272291.75347  21148519.545    21148528.6374
  22264504.026   -18267997.463 8 -14220858.71446  22264503.485    22264511.7194
  22693848.238    10170187.649 8   8046330.53646  22693847.576    22693855.6314
  21040673.314   -19474754.918 9 -15148311.86647  21040673.135    21040679.9524
 00  4 13 18 19 30.0000000  0  6 02 04 24 05 07 09
  23678917.826    12757142.051 7   9941262.14945  23678917.217    23678932.6794
  20393090.891   -21611696.830 9 -16818949.96647  20393091.027    20393097.2024
  21135048.568   -22273594.370 9 -17327453.40647  21135048.371    21135057.4614
  22249758.736   -18345484.091 8 -14281237.82546  22249758.223    22249766.4194
  22706599.598    10237196.342 8   8098545.01846  22706598.988    22706607.0644
  21043772.295   -19458469.693 9 -15135622.13047  21043772.119    21043778.9514
 00  4 13 18 20  0.0000000  0  6 02 04 24 05 07 09
  23693738.751    12835025.020 7  10001949.71445  23693738.126    23693753.7504
  20394920.605   -21602081.630 9 -16811457.58947  20394920.720    20394926.9064
  21121656.594   -22343969.126 9 -17382290.76647  21121656.392    21121665.4864
  22235035.694   -18422853.783 8 -14341525.81246  22235035.176    22235043.3624
  22719360.174    10304253.309 8   8150797.10146  22719359.544    22719367.7394
  21046972.584   -19441652.218 9 -15122517.65347  21046972.414    21046979.2674
 00  4 13 18 20 30.0000000  0  6 02 04 24 05 07 09
  23708606.728    12913155.181 7  10062829.89345  23708606.093    23708621.8284
  20396872.734   -21591822.975 9 -16803463.81947  20396872.839    20396879.0424
  21108346.330   -22413914.532 9 -17436793.56947  21108346.116    21108355.2074
  22220337.933   -18500090.597 8 -14401710.26146  22220337.421    22220345.6014
  22732134.456    10371382.000 8   8203105.07346  22732133.831    22732142.0194
  21050280.758   -19424267.796 9 -15108971.40447  21050280.594    21050287.4724
 00  4 13 18 21  0.0000000  0  6 02 04 24 05 07 09
  23723522.500    12991536.292 7  10123905.59845  23723521.827    23723537.7064
  20398950.553   -21580903.708 9 -16794955.28947  20398950.670    20398956.8874
  21095122.072   -22483407.973 9 -17490944.19247  21095121.851    21095130.9524
  22205670.089   -18577170.345 8 -14461772.31246  22205669.585    22205677.7454
  22744925.694    10438599.918 8   8255482.59146  22744925.046    22744933.2344
  21053703.773   -19406279.913 9 -15094954.92447  21053703.594    21053710.4824
 00  4 13 18 21 30.0000000  0  6 02 04 24 05 07 09
  23738483.635    13070155.602 8  10185166.88645  23738483.039    23738498.9974
  20401151.972   -21569335.186 9 -16785940.84747  20401152.106    20401158.3064
  21081987.674   -22552429.295 9 -17544726.93347  21081987.454    21081996.5274
  22191033.894   -18654083.576 8 -14521704.61246  22191033.427    22191041.5814
  22757736.758    10505922.086 8   8307941.33346  22757736.077    22757744.2904
  21057243.339   -19387679.342 9 -15080461.02947  21057243.194    21057250.1054
 00  4 13 18 22  0.0000000  0  6 02 04 24 05 07 09
  23753488.209    13149003.113 7  10246606.00345  23753487.632    23753503.7214
  20403471.815   -21557144.084 9 -16776441.27547  20403471.960    20403478.1684
  21068942.911   -22620979.679 9 -17598142.71347  21068942.695    21068951.7374
  22176429.998   -18730827.280 8 -14581504.81446  22176429.518    22176437.6704
  22770568.163    10573351.473 8   8360483.61446  22770567.504    22770575.7634
  21060901.130   -19368458.004 9 -15065483.41647  21060900.981    21060907.8984
 00  4 13 18 22 30.0000000  0  6 02 04 24 05 07 09
  23768535.560    13228075.293 8  10308220.21245  23768534.965    23768551.1744
  20405901.391   -21544376.692 9 -16766492.64747  20405901.548    20405907.7354
  21055985.321   -22689072.032 9 -17651201.58547  21055985.095    21055994.1104
  22161855.222   -18807417.984 8 -14641185.79946  22161854.747    22161862.8694
  22783413.859    10640855.703 8   8413084.22746  22783413.221    22783421.4984
  21064672.647   -19348639.058 9 -15050040.13847  21064672.490    21064679.3864
 00  4 13 18 23  0.0000000  0  6 02 04 24 05 07 09
  23783623.418    13307360.068 7  10370000.05845  23783622.720    23783639.0644
  20408434.981   -21531062.712 9 -16756118.10347  20408435.104    20408441.3074
  21043112.295   -22756719.909 9 -17703914.11047  21043112.097    21043121.0724
  22147303.827   -18883885.602 8 -14700770.86446  22147303.351    22147311.4694
  22796268.066    10708404.848 8   8465719.84146  22796267.443    22796275.7424
  21068550.618   -19328260.736 9 -15034160.97647  21068550.456    21068557.3284
 00  4 13 18 23 30.0000000  0  6 02 04 24 05 07 09
  23798747.868    13386837.362 7  10431929.93645  23798747.159    23798763.6454
  20411067.517   -21517228.549 9 -16745338.22747  20411067.662    20411073.8554
  21030318.687   -22823950.580 9 -17756301.54547  21030318.464    21030327.4044
  22132772.391   -18960248.540 8 -14760274.36746  22132771.901    22132780.0054
  22809128.152    10775984.735 8   8518379.38746  22809127.540    22809135.8434
  21072531.688   -19307340.499 9 -15017859.54947  21072531.530    21072538.3974
 00  4 13 18 24  0.0000000  0  6 02 04 24 05 07 09
  23813909.661    13466511.128 7  10494012.89245  23813909.083    23813925.6204
  20413797.294   -21502883.464 9 -16734160.22847  20413797.422    20413803.6134
  21017601.154   -22890781.207 9 -17808377.25247  21017600.928    21017609.8534
  22118255.653   -19036534.261 8 -14819717.70146  22118255.101    22118263.2294
  22821990.753    10843577.511 8   8571048.99346  22821990.125    22821998.3934
  21076615.842   -19285878.288 9 -15001135.80247  21076615.673    21076622.5624
 00  4 13 18 24 30.0000000  0  6 02 04 24 05 07 09
  23829109.262    13546383.521 7  10556250.62145  23829108.660    23829125.3684
  20416628.498   -21488005.367 9 -16722566.89547  20416628.622    20416634.8034
  21004962.191   -22957199.108 9 -17860131.35647  21004961.977    21004970.8664
  22103752.226   -19112749.985 8 -14879106.49646  22103751.671    22103759.8094
  22834854.660    10911177.592 8   8623724.28946  22834854.029    22834862.3214
  21080800.181   -19263889.649 9 -14984001.84747  21080800.006    21080806.9224
 00  4 13 18 25  0.0000000  0  6 02 04 24 05 07 09
  23844347.888    13626460.979 7  10618648.12045  23844347.271    23844364.1744
  20419568.754   -21472554.025 9 -16710526.87747  20419568.877    20419575.0574
  20992404.273   -23023190.907 9 -17911553.43147  20992404.051    20992412.9204
  22089267.200   -19188868.895 8 -14938419.84446  22089266.659    22089274.7764
  22847723.740    10978804.561 8   8676420.53146  22847723.070    22847731.3864
  21085084.884   -19241373.512 9 -14966456.85847  21085084.680    21085091.5994
 00  4 13 18 25 30.0000000  0  6 02 04 24 05 07 09
  23859629.287    13706763.364 7  10681220.88145  23859628.512    23859645.5734
  20422624.171   -21456497.755 9 -16698015.49247  20422624.311    20422630.4434
  20979931.211   -23088736.803 9 -17962628.05047  20979930.976    20979939.8314
  22074804.946   -19264868.185 8 -14997639.99246  22074804.391    22074812.4984
  22860601.022    11046474.820 8   8729150.50846  22860600.356    22860608.7174
  21089472.887   -19218314.429 9 -14948488.79547  21089472.692    21089479.6354
 00  4 13 18 26  0.0000000  0  6 02 04 24 05 07 09
  23874959.577    13787322.924 7  10743994.03745  23874958.929    23874975.9764
  20425801.260   -21439802.115 9 -16685005.89847  20425801.392    20425807.5244
  20967548.132   -23153809.727 9 -18013334.12347  20967547.919    20967556.7444
  22060368.991   -19340729.215 8 -15056752.40446  22060368.465    22060376.4904
  22873487.064    11114191.467 8   8781916.62046  22873486.455    22873494.8344
  21093964.813   -19194709.361 9 -14930095.28747  21093964.622    21093971.5944
 00  4 13 18 26 30.0000000  0  6 02 04 24 05 07 09
  23890340.611    13868148.975 7  10806974.85345  23890339.821    23890357.0984
  20429106.086   -21422434.926 9 -16671473.01647  20429106.214    20429112.3274
  20955259.605   -23218386.005 9 -18063653.19847  20955259.386    20955268.2014
  22045966.354   -19416415.297 8 -15115728.49346  22045965.825    22045973.8304
  22886385.518    11181972.852 8   8834733.18246  22886384.885    22886393.3454
  21098561.734   -19170552.587 9 -14911271.88247  21098561.560    21098568.5464
 00  4 13 18 27  0.0000000  0  6 02 04 24 05 07 09
  23905773.799    13949249.033 7  10870169.14845  23905772.956    23905790.5144
  20432537.684   -21404401.851 9 -16657421.27347  20432537.808    20432543.9274
  20943067.739   -23282454.227 9 -18113576.39447  20943067.526    20943076.3104
  22031599.085   -19491915.608 8 -15174559.82846  22031598.542    22031606.5064
  22899299.309    11249834.841 8   8887612.55546  22899298.695    22899307.1824
  21103267.553   -19145823.479 9 -14892002.50847  21103267.382    21103274.3704
 00  4 13 18 27 30.0000000  0  6 02 04 24 05 07 09
  23921258.572    14030620.168 7  10933574.67645  23921257.827    23921275.4094
  20436092.752   -21385719.871 9 -16642863.88547  20436092.867    20436099.0044
  20930974.168   -23346005.814 9 -18163097.00647  20930973.968    20930982.7304
  22017265.105   -19567240.658 8 -15233254.59046  22017264.575    22017272.5384
  22912226.793    11317768.404 8   8940547.70146  22912226.146    22912234.6144
  21108084.615   -19120509.773 9 -14872277.59347  21108084.437    21108091.4094
 00  4 13 18 28  0.0000000  0  6 02 04 24 05 07 09
  23936792.467    14112249.822 7  10997181.62545  23936791.723    23936809.3084
  20439766.753   -21366412.722 9 -16627819.35947  20439766.894    20439773.0524
  20918977.048   -23409050.576 9 -18212222.69847  20918976.864    20918985.5804
  22002965.506   -19642385.188 8 -15291808.69646  22002964.994    22002972.9404
  22925166.005    11385764.123 8   8993531.27446  22925165.348    22925173.8354
  21113013.418   -19094608.832 9 -14852095.10147  21113013.235    21113020.2394
 00  4 13 18 28 30.0000000  0  6 02 04 24 05 07 09
  23952370.255    14194109.151 7  11060967.53645  23952369.558    23952387.1134
  20443554.993   -21346505.427 9 -16612307.18447  20443555.121    20443561.2874
  20907074.813   -23471596.962 9 -18260960.04547  20907074.634    20907083.3004
  21988698.698   -19717357.519 8 -15350228.61946  21988698.201    21988706.0924
  22938117.174    11453822.776 8   9046563.89846  22938116.493    22938125.0174
  21118052.578   -19068127.970 9 -14831460.72347  21118052.387    21118059.4064
 00  4 13 18 29  0.0000000  0  6 02 04 24 05 07 09
  23967990.554    14276191.650 8  11124927.35845  23967989.864    23968007.4814
  20447452.415   -21326024.242 9 -16596347.81747  20447452.553    20447458.7084
  20895264.154   -23533662.006 9 -18309322.31747  20895263.970    20895272.5914
  21974462.886   -19792166.924 8 -15408521.58746  21974462.376    21974470.2714
  22951077.982    11521932.278 8   9099636.13746  22951077.310    22951085.9244
  21123199.141   -19041082.653 9 -14810386.50647  21123198.954    21123205.9824
 00  4 13 18 29 30.0000000  0  6 02 04 24 05 07 09
  23983652.400    14358492.654 8  11189057.41445  23983651.732    23983669.3594
  20451460.204   -21304963.426 9 -16579936.79247  20451460.329    20451466.4714
  20883540.810   -23595268.389 9 -18357327.19947  20883540.606    20883549.2074
  21960258.131   -19866813.051 8 -15466687.32746  21960257.630    21960265.5594
  22964045.913    11590078.928 8   9152737.31746  22964045.262    22964053.9224
  21128449.692   -19013491.185 9 -14788886.72647  21128449.499    21128456.5334
 00  4 13 18 30  0.0000000  0  6 02 04 24 05 07 09
  23999357.552    14441021.073 8  11253364.69845  23999356.960    23999374.6074
  20455577.130   -21283328.900 9 -16563078.72247  20455577.248    20455583.3774
  20871902.940   -23656425.695 9 -18404982.15147  20871902.732    20871911.3124
  21946084.005   -19941298.377 8 -15524727.77046  21946083.512    21946091.4184
  22977022.103    11658268.575 8   9205872.00246  22977021.459    22977030.1244
  21133800.842   -18985371.156 9 -14766975.07647  21133800.654    21133807.6554
 00  4 13 18 30 30.0000000  0  6 02 04 24 05 07 09
  24015104.992    14523771.779 8  11317845.16945  24015104.418    24015122.0604
  20459803.735   -21261118.060 9 -16545771.57947  20459803.843    20459809.9584
  20860351.171   -23717130.223 9 -18452284.29747  20860350.950    20860359.5294
  21931939.455   -20015628.407 8 -15582647.21046  21931938.955    21931946.8354
  22990007.634    11726507.484 8   9259045.06846  22990006.949    22990015.6914
  21139249.950   -18956736.348 9 -14744662.30647  21139249.772    21139256.7704
 00  4 13 18 31  0.0000000  0  7 16 02 04 24 05 07 09
  24544186.260    -6807540.963 7  -3700809.73845  24544185.824    24544199.1134
  24030901.268    14606779.362 8  11382525.79945  24030900.702    24030918.4244
  20464143.546   -21238312.076 9 -16528000.68647  20464143.658    20464149.7664
  20848888.243   -23777367.796 9 -18499222.57647  20848888.025    20848896.6134
  21917827.835   -20089784.922 8 -15640431.43546  21917827.334    21917835.2194
  23003004.182    11794804.391 8   9312263.33146  23003003.542    23003012.2164
  21144802.185   -18927559.709 9 -14721927.33147  21144801.998    21144809.0174
 00  4 13 18 31 30.0000000  0  7 16 02 04 24 05 07 09
  24541931.435    -6819388.867 7  -3710041.76045  24541931.185    24541944.2994
  24046742.204    14690020.864 7  11447388.72045  24046741.626    24046759.3994
  20468594.798   -21214920.526 9 -16509773.51147  20468594.907    20468600.9974
  20837514.012   -23837139.434 9 -18545797.79947  20837513.800    20837522.3654
  21903746.510   -20163782.576 8 -15698091.88046  21903745.982    21903753.8354
  23016009.395    11863146.564 8   9365516.86146  23016008.728    23016017.3974
  21150459.153   -18897832.287 9 -14698763.17647  21150458.962    21150466.0094
 00  4 13 18 32  0.0000000  0  7 16 02 04 24 05 07 09
  24539768.682    -6830753.963 7  -3718897.56945  24539768.412    24539781.4624
  24062621.123    14773462.604 7  11512407.63645  24062620.484    24062638.5174
  20473151.830   -21190973.128 9 -16491113.20947  20473151.952    20473158.0474
  20826228.564   -23896444.490 9 -18592009.45047  20826228.352    20826236.9144
  21889690.004   -20237649.665 8 -15755650.58846  21889689.483    21889697.3004
  23029018.956    11931511.868 8   9418788.41946  23029018.272    23029026.9484
  21156219.274   -18867563.115 9 -14675176.88447  21156219.094    21156226.1494
 00  4 13 18 32 30.0000000  0  7 16 02 04 24 05 07 09
  24537701.517    -6841616.776 7  -3727362.00945  24537701.223    24537714.1214
  24078535.099    14857088.470 7  11577570.06045  24078534.406    24078552.5114
  20477816.526   -21166459.951 9 -16472012.03847  20477816.653    20477822.7714
  20815034.769   -23955267.927 9 -18637845.81047  20815034.552    20815043.1154
  21875659.635   -20311379.356 8 -15813102.23146  21875659.136    21875666.9184
  23042031.216    11999891.484 8   9472071.12846  23042030.524    23042039.2374
  21162086.316   -18836731.859 9 -14651152.59647  21162086.142    21162093.2074
 00  4 13 18 33  0.0000000  0  7 16 02 04 24 05 07 09
  24535732.885    -6851962.689 7  -3735423.67045  24535732.416    24535745.2754
  24094484.656    14940901.783 7  11642878.50845  24094483.925    24094502.3004
  20482590.370   -21141373.234 9 -16452463.95847  20482590.508    20482596.6474
  20803934.593   -24013599.418 9 -18683298.83147  20803934.366    20803942.9024
  21861657.214   -20384962.218 8 -15870439.45946  21861656.710    21861664.4824
  23055045.812    12068283.159 8   9525363.23546  23055045.144    23055053.8254
  21168062.087   -18805329.275 9 -14626683.12147  21168061.916    21168068.9984
 00  4 13 18 33 30.0000000  0  7 16 02 04 24 05 07 09
  24533863.666    -6861783.209 7  -3743075.91445  24533863.351    24533876.4374
  24110469.573    15024901.182 7  11708331.97945  24110468.948    24110487.4004
  20487475.036   -21115704.139 9 -16432462.07147  20487475.156    20487481.3034
  20792930.664   -24071425.431 9 -18728357.97547  20792930.454    20792938.9134
  21847686.554   -20458378.418 8 -15927646.82246  21847686.042    21847693.7984
  23068066.355    12136705.873 8   9578679.53446  23068065.641    23068074.3294
  21174144.871   -18773364.199 9 -14601775.33647  21174144.675    21174151.7814
 00  4 13 18 34  0.0000000  0  7 16 02 04 24 05 07 09
  24532094.197    -6871081.157 7  -3750320.96145  24532093.865    24532107.0294
  24126493.786    15109107.095 7  11773946.33145  24126493.215    24126511.9504
  20492470.482   -21089452.826 9 -16412006.51147  20492470.618    20492476.7654
  20782023.562   -24128742.503 9 -18773020.54947  20782023.335    20782031.7384
  21833750.119   -20531614.802 8 -15984714.06547  21833749.580    21833757.3184
  23081095.137    12205172.415 8   9632029.97146  23081094.480    23081103.1754
  21180330.944   -18740856.317 9 -14576444.59147  21180330.772    21180337.9164
 00  4 13 18 34 30.0000000  0  7 16 02 04 24 05 07 09
  24530420.728    -6879875.914 7  -3757173.91945  24530420.304    24530433.4174
  24142559.026    15193528.727 7  11839728.78045  24142558.353    24142577.2954
  20497577.487   -21062615.437 9 -16391094.26547  20497577.632    20497583.7634
  20771210.096   -24185567.286 9 -18817299.52347  20771209.871    20771218.2504
  21819850.458   -20604657.613 8 -16041630.47347  21819849.952    21819857.6584
  23094135.768    12273700.918 8   9685428.69346  23094135.093    23094143.8454
  21186618.589   -18707814.483 9 -14550697.77947  21186618.429    21186625.6174
 00  4 13 18 35  0.0000000  0  7 16 02 04 24 05 07 09
  24528841.730    -6888173.469 7  -3763639.44245  24528841.227    24528854.2694
  24158668.923    15278185.001 7  11905694.06945  24158668.221    24158687.4614
  20502794.393   -21035200.310 9 -16369731.83447  20502794.531    20502800.6904
  20760488.338   -24241909.896 9 -18861202.77847  20760488.124    20760496.5034
  21805987.755   -20677506.676 8 -16098395.90747  21805987.229    21805994.9204
  23107190.790    12342305.527 8   9738886.70546  23107190.135    23107199.0034
  21193004.772   -18674255.051 9 -14524547.64747  21193004.598    21193011.8274
 00  4 13 18 35 30.0000000  0  7 16 02 04 24 05 07 09
  24527355.659    -6895981.317 7  -3769723.36745  24527355.316    24527368.3744
  24174823.217    15363073.910 7  11971840.64945  24174822.588    24174841.7034
  20508118.676   -21007220.940 9 -16347929.73347  20508118.815    20508124.9884
  20749857.431   -24297775.037 9 -18904733.98147  20749857.233    20749865.5984
  21792159.121   -20750176.431 8 -16155021.62047  21792158.583    21792166.2604
  23120258.841    12410978.037 8   9792397.63846  23120258.188    23120267.1224
  21199488.590   -18640182.536 9 -14497997.71247  21199488.420    21199495.7054
 00  4 13 18 36  0.0000000  0  7 16 02 04 24 05 07 09
  24525962.213    -6903302.919 7  -3775428.42245  24525961.850    24525974.8524
  24191020.915    15448191.400 7  12038165.29645  24191020.294    24191039.5524
  20513549.675   -20978681.021 9 -16325690.83847  20513549.825    20513555.9824
  20739317.726   -24353161.035 9 -18947891.83547  20739317.529    20739325.8944
  21778360.264   -20822689.621 8 -16211525.32947  21778359.735    21778367.4134
  23133337.270    12479705.034 8   9845951.03346  23133336.604    23133345.5704
  21206071.102   -18605591.473 9 -14471043.71647  21206070.942    21206078.2174
 00  4 13 18 36 30.0000000  0  7 16 02 04 24 05 07 09
  24524664.079    -6910124.134 7  -3780743.54445  24524663.719    24524676.6594
  24207260.106    15533526.882 7  12104659.84845  24207259.372    24207279.0514
  20519089.627   -20949568.372 9 -16303005.65747  20519089.780    20519095.9004
  20728871.356   -24408056.821 9 -18990667.69647  20728871.171    20728879.5084
  21764591.400   -20895045.352 8 -16267906.34447  21764590.867    21764598.4754
  23146423.659    12548473.622 8   9899536.81746  23146422.994    23146431.9304
  21212754.276   -18570471.664 9 -14443677.71347  21212754.106    21212761.3804
 00  4 13 18 37  0.0000000  0  7 16 02 04 24 05 07 09
  24523463.252    -6916435.286 7  -3785661.24045  24523462.670    24523475.5314
  24223541.631    15619083.896 7  12171327.00444  24223541.040    24223560.4674
  20524736.882   -20919892.012 9 -16279881.22447  20524737.010    20524743.1394
  20718524.162   -24462431.501 9 -19033037.50147  20718523.964    20718532.2454
  21750853.569   -20967237.984 8 -16324160.27447  21750853.038    21750860.6114
  23159514.508    12617265.993 8   9953141.13746  23159513.792    23159522.7804
  21219537.712   -18534824.812 9 -14415901.03447  21219537.540    21219544.8134
 00  4 13 18 37 30.0000000  0  7 16 02 04 24 05 07 09
  24522360.041    -6922232.150 7  -3790178.15245  24522359.354    24522372.3674
  24239863.478    15704853.132 7  12238159.54344  24239862.760    24239882.5504
  20530494.687   -20889634.708 9 -16256304.10347  20530494.814    20530500.9324
  20708279.387   -24516268.078 9 -19074988.00747  20708279.197    20708287.4304
  21737148.284   -21039259.487 8 -16380280.85447  21737147.746    21737155.2754
  23172608.653    12686076.084 8  10006759.27246  23172607.947    23172616.9594
  21226423.087   -18498642.510 9 -14387707.11747  21226422.883    21226430.1414
 00  4 13 18 38  0.0000000  0  7 16 02 04 24 05 07 09
  24521359.453    -6927490.084 7  -3794275.14145  24521358.836    24521371.7804
  24256226.735    15790840.397 7  12305161.95044  24256226.054    24256245.8834
  20536366.723   -20858777.071 9 -16232259.19447  20536366.849    20536372.9414
  20698137.866   -24569561.896 9 -19116515.58047  20698137.678    20698145.8884
  21723482.082   -21111075.655 8 -16436241.44147  21723481.567    21723489.0284
  23185711.394    12754930.976 8  10060412.30946  23185710.696    23185719.7694
  21233410.270   -18461925.231 9 -14359096.34247  21233410.066    21233417.2894
 00  4 13 18 38 30.0000000  0  7 16 02 04 24 05 07 09
  24520463.190    -6932200.677 7  -3797945.63045  24520462.596    24520475.3384
  24272633.396    15877054.646 7  12372341.20745  24272632.654    24272652.6234
  20542351.359   -20827327.634 9 -16207753.13747  20542351.456    20542357.5964
  20688097.887   -24622322.332 9 -19157627.52947  20688097.688    20688105.8614
  21709857.479   -21182673.249 8 -16492031.70647  21709856.969    21709864.3604
  23198823.913    12823837.035 8  10114105.21346  23198823.238    23198832.3104
  21240500.504   -18424666.105 9 -14330063.33447  21240500.318    21240507.5304
 00  4 13 18 39  0.0000000  0  7 16 02 04 24 05 07 09
  24519670.101    -6936366.609 7  -3801191.68545  24519669.627    24519682.4234
  24289082.853    15963494.271 7  12439696.09345  24289082.038    24289102.0564
  20548445.278   -20795303.992 9 -16182799.65247  20548445.377    20548451.5564
  20678153.824   -24674578.432 9 -19198346.49547  20678153.612    20678161.7684
  21696272.925   -21254060.398 8 -16547657.99147  21696272.393    21696279.7454
  23211945.856    12892792.643 8  10167836.72346  23211945.195    23211954.2234
  21247693.050   -18386869.245 9 -14300611.32447  21247692.858    21247700.0684
 00  4 13 18 39 30.0000000  0  7 16 02 04 24 05 07 09
  24518980.602    -6939990.203 7  -3804015.17145  24518980.003    24518992.7474
  24305572.545    16050145.402 7  12507215.77445  24305571.741    24305591.9884
  20554647.332   -20762711.926 9 -16157403.23847  20554647.434    20554653.6454
  20668298.965   -24726365.562 9 -19238700.02747  20668298.765    20668306.9084
  21682726.990   -21325244.717 8 -16603126.23247  21682726.441    21682733.7614
  23225077.291    12961798.357 8  10221607.28646  23225076.644    23225085.6554
  21254987.563   -18348536.781 9 -14270741.95447  21254987.378    21254994.6264
 00  4 13 18 40  0.0000000  0  7 16 02 04 24 05 07 09
  24518392.161    -6943081.175 7  -3806423.61045  24518391.810    24518404.4644
  24322101.653    16137003.036 7  12574896.36545  24322100.999    24322121.3424
  20560950.940   -20729586.201 9 -16131590.99147  20560951.050    20560957.2384
  20658530.406   -24777699.370 9 -19278700.33047  20658530.207    20658538.3554
  21669216.828   -21396240.644 8 -16658447.68547  21669216.304    21669223.5834
  23238216.249    13030843.162 8  10275408.30246  23238215.577    23238224.5894
  21262381.608   -18309681.117 9 -14240464.90347  21262381.419    21262388.7254
 00  4 13 18 40 30.0000000  0  7 16 02 04 24 05 07 09
  24517898.853    -6945673.695 7  -3808443.66645  24517898.382    24517910.9524
  24338667.916    16224056.411 7  12642729.46745  24338667.210    24338687.7594
  20567349.560   -20695961.027 9 -16105389.55947  20567349.680    20567355.8704
  20648846.647   -24828587.493 9 -19318353.34547  20648846.431    20648854.5904
  21655736.067   -21467082.472 8 -16713649.05047  21655735.526    21655742.8004
  23251354.528    13099885.069 8  10329207.05946  23251353.912    23251362.9474
  21269873.626   -18270310.689 9 -14209786.73147  21269873.433    21269880.7714
 00  4 13 18 41  0.0000000  0  7 16 02 04 24 05 07 09
  24517496.756    -6947786.020 7  -3810089.54445  24517496.340    24517508.9934
  24355268.861    16311291.812 7  12710704.39645  24355268.158    24355288.9314
  20573842.756   -20661839.146 9 -16078801.08847  20573842.895    20573849.0384
  20639250.139   -24879017.048 9 -19357649.04147  20639249.915    20639258.0664
  21642285.122   -21537767.367 8 -16768728.14047  21642284.588    21642291.8404
  23264490.398    13168914.287 8  10382995.93346  23264489.819    23264498.8684
  21277458.309   -18230453.224 9 -14178729.05547  21277458.092    21277465.4874
 00  4 13 18 41 30.0000000  0  7 16 02 04 24 05 07 09
  24517185.212    -6949424.642 7  -3811366.29445  24517184.557    24517197.1084
  24371905.471    16398714.973 7  12778825.63345  24371904.691    24371925.7124
  20580432.129   -20627211.880 9 -16051818.81247  20580432.253    20580438.3824
  20629747.050   -24928955.967 9 -19396562.42247  20629746.833    20629754.9674
  21628864.122   -21608294.833 8 -16823684.55647  21628863.599    21628870.8204
  23277625.080    13237936.795 8  10436779.58546  23277624.465    23277633.5674
  21285134.493   -18190114.644 9 -14147296.48747  21285134.318    21285141.7784
 00  4 13 18 42  0.0000000  0  7 16 02 04 24 05 07 09
  24516965.897    -6950575.663 7  -3812263.08145  24516965.478    24516978.0624
  24388580.644    16486340.773 7  12847104.75845  24388579.946    24388601.1784
  20587120.128   -20592066.222 9 -16024432.59547  20587120.233    20587126.3454
  20620341.801   -24978380.764 9 -19435075.19047  20620341.575    20620349.7004
  21615474.171   -21678659.402 8 -16878514.04147  21615473.639    21615480.8424
  23290758.602    13306953.021 8  10490558.33946  23290757.954    23290767.0004
  21292904.894   -18149281.165 9 -14115478.28247  21292904.719    21292912.2434
 00  4 13 18 42 30.0000000  0  6 16 04 24 05 07 09
  24516860.593    -6951128.499 7  -3812693.78945  24516860.251    24516872.8964
  20593931.738   -20556270.848 9 -15996540.10347  20593931.858    20593937.9564
  20611055.247   -25027181.692 9 -19473101.82347  20611055.014    20611063.1234
  21602138.852   -21748736.788 8 -16933119.74947  21602138.311    21602145.4914
  23303912.801    13376078.648 8  10544422.32346  23303912.167    23303921.1934
  21300788.459   -18107853.082 9 -14083196.75047  21300788.271    21300795.8414
 00  4 13 18 43  0.0000000  0  6 16 04 24 05 07 09
  24516850.777    -6951179.178 7  -3812733.18345  24516850.438    24516863.0684
  20600850.118   -20519914.685 9 -15968210.63647  20600850.238    20600856.3344
  20601866.377   -25075469.266 9 -19510728.44047  20601866.155    20601874.2514
  21588838.777   -21818629.062 8 -16987581.21047  21588838.248    21588845.3994
  23317071.418    13445227.044 8  10598304.06346  23317070.787    23317079.9154
  21308761.551   -18065954.403 9 -14050548.51547  21308761.361    21308768.9964
 00  4 13 18 43 30.0000000  0  6 16 04 24 05 07 09
  24516945.408    -6950680.602 7  -3812344.59245  24516945.142    24516957.7454
  20607881.698   -20482963.591 9 -15939417.59147  20607881.810    20607887.9074
  20592778.082   -25123228.174 9 -19547943.11647  20592777.887    20592785.9434
  21575578.654   -21888311.321 8 -17041879.02747  21575578.118    21575585.2814
  23330241.206    13514434.185 8  10652231.56446  23330240.590    23330249.7054
  21316832.711   -18023540.251 9 -14017498.61747  21316832.544    21316840.2424
 00  4 13 18 44  0.0000000  0  6 16 04 24 05 07 09
  24517147.071    -6949622.294 7  -3811519.84645  24517146.433    24517159.1854
  20615026.569   -20445417.021 9 -15910160.53747  20615026.684    20615032.7774
  20583790.648   -25170457.198 9 -19584744.88947  20583790.459    20583798.4914
  21562362.272   -21957763.460 8 -17095997.52747  21562361.748    21562368.8954
  23343425.536    13583717.587 8  10706218.49546  23343424.873    23343434.0714
  21325004.339   -17980598.323 9 -13984037.46747  21325004.177    21325011.8964
 00  4 13 18 44 30.0000000  0  6 16 04 24 05 07 09
  24517454.444    -6948006.167 7  -3810260.42545  24517453.960    24517466.6004
  20622283.325   -20407282.455 9 -15880445.30947  20622283.470    20622289.5754
  20574904.785   -25217152.372 9 -19621130.68347  20574904.600    20574912.6264
  21549190.675   -22026980.309 8 -17149932.68947  21549190.146    21549197.3104
  23356627.380    13653093.312 8  10760277.35546  23356626.694    23356635.9964
  21333273.408   -17937144.511 9 -13950177.44347  21333273.232    21333280.9624
 00  4 13 18 45  0.0000000  0  7 16 04 24 05 07 09 30
  24517865.541    -6945844.535 7  -3808575.94245  24517865.175    24517877.8724
  20629646.254   -20368589.988 9 -15850295.35047  20629646.383    20629652.4824
  20566118.438   -25263324.686 9 -19657109.05247  20566118.243    20566126.2484
  21536059.706   -22095983.922 8 -17203701.69147  21536059.177    21536066.3194
  23369843.856    13722546.221 8  10814396.37446  23369843.214    23369852.5144
  21341641.922   -17893167.795 9 -13915909.96747  21341641.749    21341649.5014
  24569733.468    -5849928.968 7  -4042380.74545  24569733.738    24569746.9474
 00  4 13 18 45 30.0000000  0  7 16 04 24 05 07 09 30
  24518372.266    -6943182.410 7  -3806501.47345  24518371.755    24518384.2784
  20637106.225   -20329387.742 9 -15819748.15947  20637106.339    20637112.4544
  20557426.305   -25309001.763 9 -19692701.52347  20557426.110    20557434.0914
  21522963.038   -22164807.216 8 -17257330.18147  21522962.503    21522969.6364
  23383064.761    13792021.750 8  10868533.01146  23383064.121    23383073.4054
  21350107.735   -17848680.046 9 -13881244.28447  21350107.578    21350115.3654
  24551051.149    -5948104.373 7  -4118880.82745  24551051.401    24551064.5374
 00  4 13 18 46  0.0000000  0  7 16 04 24 05 07 09 30
  24518970.517    -6940037.912 7  -3804051.10745  24518969.980    24518982.4944
  20644661.339   -20289685.288 9 -15788811.19547  20644661.478    20644667.5704
  20548829.602   -25354177.451 9 -19727903.29847  20548829.411    20548837.3594
  21509901.167   -22233447.677 8 -17310816.20547  21509900.626    21509907.7184
  23396286.639    13861502.468 8  10922673.69246  23396285.968    23396295.2684
  21358666.961   -17803701.503 9 -13846196.16147  21358666.793    21358674.5854
  24532361.911    -6046316.169 7  -4195409.26445  24532362.169    24532375.2854
 00  4 13 18 46 30.0000000  0  7 16 04 24 05 07 09 30
  24519663.050    -6936398.024 7  -3801214.73345  24519662.522    24519674.8764
  20652315.289   -20249463.600 9 -15757469.63647  20652315.410    20652321.5144
  20540328.720   -25398849.850 9 -19762712.89947  20540328.526    20540336.4524
  21496876.150   -22301894.466 8 -17364151.31347  21496875.583    21496882.6804
  23409508.645    13930984.196 8  10976815.14746  23409508.055    23409517.3524
  21367321.418   -17758222.508 9 -13810758.07847  21367321.241    21367329.0164
  24513666.937    -6144558.425 7  -4271961.41845  24513667.152    24513680.1574
 00  4 13 18 47  0.0000000  0  7 16 04 24 05 07 09 30
  24520450.691    -6932257.691 7  -3797988.41045  24520450.196    24520462.6184
  20660069.948   -20208712.510 9 -15725715.56447  20660070.101    20660076.1854
  20531926.202   -25443005.214 9 -19797119.62447  20531925.993    20531933.9054
  21483890.039   -22370136.615 8 -17417326.96847  21483889.483    21483896.5844
  23422729.799    14000461.545 8  11030953.19545  23422729.172    23422738.5654
  21376073.193   -17712232.104 9 -13774921.49847  21376073.023    21376080.7744
  24494969.563    -6242813.199 7  -4348523.33845  24494969.846    24494982.5244
 00  4 13 18 47 30.0000000  0  7 16 04 24 05 07 09 30
  24521337.481    -6927596.804 7  -3794356.46145  24521337.092    24521349.4864
  20667927.285   -20167422.120 9 -15693541.25247  20667927.432    20667933.5174
  20523624.964   -25486628.227 9 -19831111.52547  20523624.770    20523632.6794
  21470946.475   -22438155.422 8 -17470328.58647  21470945.923    21470953.0054
  23435951.977    14069944.078 8  11085095.27645  23435951.368    23435960.7774
  21384919.832   -17665743.293 9 -13738696.55447  21384919.638    21384927.3724
  24476273.184    -6341062.156 7  -4425080.70545  24476273.379    24476286.0484
 00  4 13 18 48  0.0000000  0  7 16 04 24 05 07 09 30
  24522327.767    -6922392.897 7  -3790301.39345  24522327.366    24522339.6874
  20675887.094   -20125593.095 9 -15660947.22447  20675887.241    20675893.3464
  20515426.178   -25529712.968 9 -19864683.99147  20515425.976    20515433.8784
  21458050.055   -22505926.073 8 -17523136.84547  21458049.512    21458056.6144
  23449179.818    14139456.255 8  11139260.47045  23449179.171    23449188.5884
  21393860.710   -17618758.916 9 -13702085.45547  21393860.528    21393868.2724
  24457576.214    -6439313.853 7  -4501640.21945  24457576.403    24457589.1644
 00  4 13 18 48 30.0000000  0  7 16 04 24 05 07 09 30
  24523422.314    -6916641.134 7  -3785819.39745  24523421.868    24523434.1344
  20683945.393   -20083246.565 9 -15627949.94447  20683945.532    20683951.6584
  20507329.919   -25572258.770 9 -19897836.50547  20507329.731    20507337.6214
  21445199.989   -22573453.302 8 -17575755.42247  21445199.467    21445206.5734
  23462413.728    14209000.350 8  11193450.51145  23462413.090    23462422.5754
  21402897.556   -17571270.022 9 -13665081.22447  21402897.382    21402905.1524
  24438877.360    -6537575.763 7  -4578207.70245  24438877.638    24438890.1874
 00  4 13 18 49  0.0000000  0  7 16 04 24 05 07 09 30
  24524619.561    -6910348.897 7  -3780916.28845  24524619.230    24524631.3784
  20692097.304   -20040408.302 9 -15594569.50247  20692097.409    20692103.5484
  20499335.788   -25614267.994 9 -19930570.91147  20499335.605    20499343.4874
  21432393.903   -22640749.397 8 -17628193.90247  21432393.383    21432400.5064
  23475651.940    14278566.963 8  11247658.09945  23475651.264    23475660.9224
  21412027.197   -17523293.931 9 -13627697.35747  21412027.022    21412034.8194
  24420175.780    -6635851.356 7  -4654785.82045  24420176.085    24420188.6144
 00  4 13 18 49 30.0000000  0  7 16 04 24 05 07 09 30
  24525917.270    -6903529.583 7  -3775602.49145  24525916.862    24525929.0334
  20700341.091   -19997086.824 9 -15560812.52247  20700341.192    20700347.3394
  20491440.216   -25655759.258 9 -19962901.70547  20491440.031    20491447.9054
  21419630.330   -22707822.139 8 -17680458.32847  21419629.809    21419636.9214
  23488893.715    14348152.589 8  11301880.50045  23488893.067    23488902.7064
  21421248.369   -17474836.594 9 -13589938.49747  21421248.208    21421256.0334
  24401469.691    -6734151.753 7  -4731383.26145  24401469.964    24401482.6124
 00  4 13 18 50  0.0000000  0  7 16 04 24 05 07 09 30
  24527311.433    -6896203.225 7  -3769893.56245  24527310.956    24527323.1564
  20708677.579   -19953278.238 9 -15526675.98147  20708677.691    20708683.8424
  20483642.909   -25696734.168 9 -19994830.15348  20483642.719    20483650.5734
  21406908.582   -22774675.303 8 -17732551.66147  21406908.056    21406915.1674
  23502138.130    14417752.192 8  11356113.80245  23502137.498    23502147.2074
  21430560.697   -17425900.314 9 -13551806.43547  21430560.561    21430568.4054
  24382758.922    -6832477.043 7  -4808000.10245  24382759.108    24382771.8204
 00  4 13 18 50 30.0000000  0  7 16 04 24 05 07 09 30
  24528803.306    -6888363.156 7  -3763784.33745  24528802.734    24528815.2084
  20717111.190   -19908959.526 9 -15492141.93647  20717111.312    20717117.4304
  20475945.469   -25737184.265 9 -20026349.65248  20475945.288    20475953.1314
  21394225.784   -22841323.734 8 -17784485.46347  21394225.246    21394232.3554
  23515385.545    14487367.539 8  11410359.35945  23515384.937    23515394.7414
  21439963.469   -17376488.709 9 -13513303.98747  21439963.322    21439971.1914
  24364046.043    -6930812.775 7  -4884625.10745  24364046.352    24364059.0484
 00  4 13 18 51  0.0000000  0  7 16 04 24 05 07 09 30
  24530394.903    -6879998.911 7  -3757266.68345  24530394.212    24530406.9184
  20725648.449   -19864096.089 9 -15457183.43747  20725648.562    20725654.6994
  20468349.732   -25777100.012 9 -20057452.77448  20468349.547    20468357.3824
  21381582.121   -22907766.380 8 -17836258.90747  21381581.599    21381588.7074
  23528637.843    14557008.269 8  11464624.69945  23528637.273    23528647.0684
  21449456.445   -17326603.534 9 -13474432.51947  21449456.280    21449464.1804
  24345331.987    -7029154.591 7  -4961254.84245  24345332.388    24345344.9834
 00  4 13 18 51 30.0000000  0  7 16 04 24 05 07 09 30
  24532089.173    -6871095.488 7  -3750328.88245  24532088.438    24532101.0584
  20734292.070   -19818673.611 9 -15421789.31847  20734292.198    20734298.3014
  20460858.738   -25816465.233 9 -20088126.91848  20460858.552    20460866.3694
  21368980.342   -22973989.200 8 -17887861.06347  21368979.833    21368986.9354
  23541897.363    14626686.879 8  11518919.54545  23541896.764    23541906.6164
  21459041.869   -17276232.240 9 -13435182.26147  21459041.694    21459049.6094
  24326617.044    -7127500.559 7  -5037887.80045  24326617.484    24326630.2184
 00  4 13 18 52  0.0000000  0  7 16 04 24 05 07 09 30
  24533893.536    -6861613.480 7  -3742940.22145  24533892.779    24533905.2804
  20743041.332   -19772696.157 9 -15385962.75447  20743041.441    20743047.5634
  20453474.920   -25855267.317 9 -20118362.25148  20453474.734    20453482.5364
  21356422.869   -23039979.130 9 -17939281.74247  21356422.346    21356429.4264
  23555164.013    14696403.371 8  11573243.92345  23555163.429    23555173.4314
  21468718.596   -17225381.139 9 -13395558.11947  21468718.406    21468726.3394
  24307903.920    -7225837.450 7  -5114513.69245  24307904.329    24307917.1124
 00  4 13 18 52 30.0000000  0  7 16 04 24 05 07 09 30
  24535811.916    -6851532.185 7  -3735084.62245  24535811.202    24535823.6264
  20751893.857   -19726175.753 9 -15349713.11347  20751893.973    20751900.0994
  20446196.014   -25893518.042 9 -20148167.96048  20446195.823    20446203.5804
  21343910.671   -23105731.062 8 -17990516.96847  21343910.129    21343917.2204
  23568438.870    14766162.394 8  11627601.43045  23568438.280    23568448.3024
  21478485.273   -17174056.987 9 -13355565.37347  21478485.094    21478493.0484
  24289194.154    -7324156.644 7  -5191125.79345  24289194.581    24289207.3924
 00  4 13 18 53  0.0000000  0  7 16 04 24 05 07 09 30
  24537841.309    -6840867.162 7  -3726774.15145  24537840.557    24537853.0214
  20760845.094   -19679136.803 9 -15313059.40647  20760845.226    20760851.3744
  20439018.040   -25931238.343 9 -20177560.34848  20439017.853    20439025.5524
  21331446.555   -23171230.234 8 -18041555.23847  21331446.017    21331453.0984
  23581721.177    14835960.375 8  11681989.29345  23581720.575    23581730.5984
  21488341.708   -17122261.795 9 -13315205.58347  21488341.520    21488349.4904
  24270487.896    -7422457.388 7  -5267723.51545  24270488.202    24270501.1324
 00  4 13 18 53 30.0000000  0  7 16 04 24 05 07 09 30
  24539980.025    -6829627.581 7  -3718015.97645  24539979.286    24539991.8484
  20769889.906   -19631606.056 9 -15276022.48647  20769890.044    20769896.1914
  20431935.433   -25968457.335 9 -20206562.10447  20431935.246    20431942.9344
  21319032.673   -23236465.280 9 -18092387.69747  21319032.151    21319039.2274
  23595009.965    14905792.445 8  11736403.72345  23595009.394    23595019.3984
  21498287.410   -17069997.418 9 -13274480.19447  21498287.215    21498295.2194
  24251786.088    -7520734.910 7  -5344303.15645  24251786.408    24251799.1874
 00  4 13 18 54  0.0000000  0  7 16 04 24 05 07 09 30
  24542220.049    -6817855.771 7  -3708843.10545  24542219.305    24542231.8974
  20779024.011   -19583606.052 9 -15238619.90947  20779024.141    20779030.3004
  20424942.001   -26005207.927 9 -20235198.88047  20424941.807    20424949.4764
  21306665.591   -23301454.449 8 -18143028.56747  21306665.083    21306672.1554
  23608303.282    14975648.293 8  11790836.67845  23608302.632    23608312.6504
  21508318.777   -17017282.682 9 -13233403.88147  21508318.581    21508326.6414
  24233086.977    -7618998.254 7  -5420871.74645  24233087.204    24233100.0154
 00  4 13 18 54 30.0000000  0  7 16 04 24 05 07 09 30
  24544556.873    -6805574.838 7  -3699273.50145  24544556.298    24544568.7144
  20788252.903   -19535107.797 9 -15200829.08447  20788253.032    20788259.2084
  20418040.586   -26041474.655 9 -20263458.61547  20418040.405    20418048.0504
  21294346.688   -23366190.621 8 -18193472.29347  21294346.161    21294353.2244
  23621606.339    15045555.845 8  11845309.90845  23621605.663    23621615.7564
  21518442.129   -16964084.462 9 -13191950.82747  21518441.932    21518450.0314
  24214393.608    -7717231.910 7  -5497417.20345  24214393.864    24214406.4594
 00  4 13 18 55  0.0000000  0  7 16 04 24 05 07 09 30
  24546982.778    -6792826.142 7  -3689339.40845  24546982.357    24546994.5564
  20797572.141   -19486134.937 9 -15162668.43447  20797572.290    20797578.4914
  20411228.912   -26077270.107 9 -20291351.12048  20411228.740    20411236.3734
  21282070.813   -23430700.448 9 -18243739.64847  21282070.309    21282077.3334
  23634912.482    15115479.973 8  11899796.06645  23634911.831    23634921.9494
  21528655.185   -16910414.973 9 -13150130.54647  21528654.982    21528663.1374
  24195699.096    -7815471.591 7  -5573967.35345  24195699.306    24195711.7464
 00  4 13 18 55 30.0000000  0  7 16 04 24 05 07 09 30
  24549497.147    -6779613.130 7  -3679043.49645  24549496.657    24549508.9734
  20806981.120   -19436690.565 9 -15124140.37647  20806981.256    20806987.4534
  20404511.747   -26112568.845 9 -20318856.57948  20404511.571    20404519.2104
  21269835.867   -23494995.148 8 -18293839.37047  21269835.369    21269842.3874
  23648219.991    15185410.832 8  11954287.47745  23648219.388    23648229.5054
  21538957.572   -16856275.869 9 -13107944.33547  21538957.380    21538965.5724
  24177003.101    -7913718.651 7  -5650523.26745  24177003.379    24177015.7134
 00  4 13 18 56  0.0000000  0  7 16 04 24 05 07 09 30
  24552101.369    -6765927.309 7  -3668379.17545  24552100.825    24552113.2444
  20816481.295   -19386766.960 9 -15085238.89447  20816481.400    20816487.6424
  20397894.653   -26147341.573 9 -20345952.16048  20397894.482    20397902.1244
  21257641.343   -23559077.615 9 -18343773.71647  21257640.871    21257647.8764
  23661527.774    15255342.783 8  12008779.72045  23661527.115    23661537.2644
  21549346.909   -16801679.690 9 -13065401.96647  21549346.767    21549354.9504
  24158306.326    -8011969.593 7  -5727082.18545  24158306.583    24158318.9074
 00  4 13 18 56 30.0000000  0  7 16 04 24 05 07 09 30
  24554801.229    -6751739.124 7  -3657323.40045  24554800.675    24554813.0084
  20826073.751   -19336358.234 9 -15045959.39647  20826073.889    20826080.1174
  20391382.227   -26181564.282 9 -20372619.15748  20391382.060    20391389.7074
  21245490.210   -23622932.266 9 -18393530.54647  21245489.714    21245496.6774
  23674834.546    15325269.716 8  12063268.05845  23674833.873    23674844.1374
  21559823.372   -16746626.056 9 -13022503.14147  21559823.225    21559831.3794
  24139608.915    -8110223.665 7  -5803643.57145  24139609.207    24139621.5694
 00  4 13 18 57  0.0000000  0  7 16 04 24 05 07 09 30
  24557603.892    -6737010.731 7  -3645846.69045  24557603.505    24557615.5874
  20835759.041   -19285461.819 9 -15006299.87947  20835759.184    20835765.4284
  20384978.145   -26215217.769 9 -20398842.60248  20384977.993    20384985.6324
  21233387.688   -23686531.318 8 -18443088.20547  21233387.162    21233394.1364
  23688141.014    15395195.471 8  12117755.46445  23688140.372    23688150.7724
  21570386.415   -16691117.260 9 -12979249.64247  21570386.232    21570394.3664
  24120914.325    -8208463.172 7  -5880193.61145  24120914.629    24120927.0574
 00  4 13 18 57 30.0000000  0  7 16 04 24 05 07 09 30
  24560514.705    -6721713.469 7  -3633926.68345  24560514.410    24560526.4474
  20845539.809   -19234063.560 9 -14966249.31947  20845539.953    20845546.1874
  20378684.302   -26248291.913 9 -20424614.61548  20378684.131    20378691.7514
  21221336.937   -23749858.115 9 -18492433.72047  21221336.425    21221343.4164
  23701451.680    15465143.156 7  12172259.95845  23701451.106    23701461.6304
  21581033.788   -16635165.274 9 -12935650.80347  21581033.611    21581041.7664
  24102224.603    -8306677.167 7  -5956723.77745  24102224.967    24102237.2754
 00  4 13 18 58  0.0000000  0  6 04 24 05 07 09 30
  20855416.839   -19182159.197 9 -14925804.39047  20855417.005    20855423.2554
  20372496.737   -26280807.526 9 -20449951.40748  20372496.584    20372504.1724
  21209341.813   -23812892.688 9 -18541551.52247  21209341.319    21209348.2964
  23714769.177    15535126.556 8  12226792.28145  23714768.587    23714779.2374
  21591763.260   -16578781.691 9 -12891715.65147  21591763.113    21591771.3054
  24083540.544    -8404861.984 7  -6033231.20745  24083540.862    24083552.9334
 00  4 13 18 58 30.0000000  0  6 04 24 05 07 09 30
  20865394.533   -19129726.214 9 -14884947.54947  20865394.708    20865400.9504
  20366418.102   -26312751.060 9 -20474842.42548  20366417.932    20366425.4894
  21197408.338   -23875603.350 9 -18590416.93347  21197407.850    21197414.7804
  23728099.387    15605176.212 8  12281376.22145  23728098.778    23728109.3814
  21602581.483   -16521931.882 9 -12847417.20847  21602581.324    21602589.5234
  24064864.031    -8503006.872 7  -6109707.51045  24064864.331    24064876.3294
 00  4 13 18 59  0.0000000  0  6 04 24 05 07 09 30
  20875474.471   -19076755.946 9 -14843672.04047  20875474.620    20875480.8784
  20360446.466   -26344131.973 9 -20499295.03448  20360446.287    20360453.8014
  21185535.449   -23937995.659 9 -18639034.26947  21185534.949    21185541.8704
  23741443.687    15675300.114 8  12336018.01345  23741443.090    23741453.7574
  21613489.301   -16464611.314 9 -12802751.93947  21613489.153    21613497.3814
  24046196.224    -8601106.326 7  -6186148.42745  24046196.555    24046208.2924
 00  4 13 18 59 30.0000000  0  6 04 24 05 07 09 30
  20885655.339   -19023255.269 9 -14801983.23447  20885655.482    20885661.7614
  20354579.359   -26374963.758 9 -20523319.76248  20354579.188    20354586.6914
  21173720.944   -24000081.130 9 -18687412.51347  21173720.458    21173727.3724
  23754800.804    15745491.679 8  12390712.53645  23754800.264    23754810.9514
  21624486.658   -16406820.205 9 -12757720.02447  21624486.529    21624494.7554
  24027535.478    -8699169.136 7  -6262560.79145  24027535.703    24027547.2884
 00  4 13 19  0  0.0000000  0  6 04 24 05 07 09 30
  20895934.251   -18969239.328 9 -14759892.92147  20895934.416    20895940.6834
  20348813.487   -26405263.297 9 -20546929.74948  20348813.320    20348820.8294
  21161961.029   -24061879.580 9 -18735567.11047  21161960.570    21161967.4564
  23768165.504    15815722.723 8  12445437.82345  23768164.982    23768175.6514
  21635574.716   -16348552.566 9 -12712316.78247  21635574.583    21635582.8464
  24008880.612    -8797200.487 7  -6338948.64045  24008880.848    24008892.2204
 00  4 13 19  0 30.0000000  0  6 04 24 05 07 09 30
  20906308.104   -18914724.437 9 -14717413.82047  20906308.264    20906314.5274
  20343149.753   -26435026.093 9 -20570121.49948  20343149.601    20343157.1274
  21150249.794   -24123422.442 9 -18783522.54547  21150249.317    21150256.1984
  23781531.899    15885962.724 8  12500170.08345  23781531.398    23781542.0674
  21646753.710   -16289806.839 9 -12666541.00547  21646753.574    21646761.8984
  23990229.819    -8895210.254 7  -6415319.66745  23990230.079    23990241.3914
 00  4 13 19  1  0.0000000  0  6 04 24 05 07 09 30
  20916774.059   -18859725.688 9 -14674557.68247  20916774.218    20916780.4694
  20337587.439   -26464256.140 9 -20592898.11348  20337587.272    20337594.8224
  21138583.824   -24184727.422 9 -18831292.61347  21138583.334    21138590.2184
  23794897.976    15956200.976 7  12554900.98245  23794897.425    23794908.1334
  21658019.156   -16230607.012 9 -12620411.37647  21658019.005    21658027.4114
  23971586.287    -8993181.933 8  -6491661.00845  23971586.506    23971597.7694
 00  4 13 19  1 30.0000000  0  6 04 24 05 07 09 30
  20927326.902   -18804270.334 9 -14631345.74347  20927327.053    20927333.3004
  20332127.664   -26492946.988 9 -20615254.58248  20332127.521    20332135.0694
  21126963.181   -24245794.132 9 -18878877.02347  21126962.708    21126969.5854
  23808262.323    16026430.128 7  12609624.78645  23808261.763    23808272.4304
  21669367.906   -16170969.262 9 -12573940.51947  21669367.769    21669376.2214
  23952950.640    -9091112.119 7  -6567970.04145  23952950.837    23952962.0264
 00  4 13 19  2  0.0000000  0  6 04 24 05 07 09 30
  20937964.438   -18748370.067 9 -14587787.12047  20937964.579    20937970.8344
  20326771.378   -26521094.514 9 -20637187.68148  20326771.219    20326778.7324
  21115386.902   -24306627.642 9 -18926279.72247  21115386.422    21115393.3114
  23821625.114    16096651.001 7  12664342.14745  23821624.492    23821635.2904
  21680798.110   -16110903.794 9 -12527136.37247  21680797.976    21680806.4834
  23934322.209    -9189004.410 8  -6644249.50745  23934322.413    23934333.6144
 00  4 13 19  2 30.0000000  0  6 04 24 05 07 09 30
  20948685.022   -18692033.128 9 -14543888.23247  20948685.167    20948691.4074
  20321520.191   -26548689.659 9 -20658690.35448  20321520.014    20321527.4614
  21103855.653   -24367224.802 9 -18973498.25147  21103855.175    21103862.0134
  23834988.862    16166876.924 7  12719063.42945  23834988.191    23834999.0034
  21692307.389   -16050422.691 9 -12480008.35747  21692307.238    21692315.7604
  23915699.542    -9286866.261 8  -6720505.28745  23915699.756    23915710.9494
 00  4 13 19  3  0.0000000  0  6 04 24 05 07 09 30
  20959489.887   -18635253.248 9 -14499644.19447  20959490.017    20959496.2824
  20316372.415   -26575741.473 9 -20679769.65148  20316372.238    20316379.6274
  21092371.993   -24427571.736 9 -19020521.79847  21092371.495    21092378.3484
  23848355.359    16237117.713 7  12773796.28845  23848354.757    23848365.5724
  21703894.333   -15989533.447 9 -12432562.30847  21703894.186    21703902.7024
  23897083.735    -9384691.951 8  -6796732.88545  23897083.993    23897094.9624
 00  4 13 19  3 30.0000000  0  6 04 24 05 07 09 30
  20970379.501   -18578027.958 9 -14455053.09047  20970379.648    20970385.9254
  20311327.800   -26602251.221 9 -20700426.55648  20311327.611    20311334.9704
  21080938.169   -24487656.544 9 -19067341.09647  21080937.691    21080944.5344
  23861723.875    16307368.819 7  12828537.19845  23861723.372    23861734.1744
  21715561.446   -15928222.954 9 -12384788.01747  21715561.300    21715569.8524
  23878472.589    -9482493.506 8  -6872941.66245  23878472.787    23878483.8614
 00  4 13 19  4  0.0000000  0  6 04 24 05 07 09 30
  20981357.432   -18520338.584 9 -14410100.35547  20981357.568    20981363.8654
  20306384.946   -26628225.867 9 -20720666.49848  20306384.762    20306392.0914
  21069556.927   -24547465.262 9 -19113945.25547  21069556.450    21069563.2574
  23875095.878    16377637.853 7  12883292.06045  23875095.275    23875106.1484
  21727310.270   -15866483.072 9 -12336679.13547  21727310.136    21727318.7394
  23859864.508    -9580278.581 8  -6949137.59445  23859864.710    23859875.8674
 00  4 13 19  4 30.0000000  0  6 04 24 05 07 09 30
  20992424.143   -18462182.585 9 -14364784.02347  20992424.287    20992430.6044
  20301543.799   -26653666.089 9 -20740490.01748  20301543.604    20301550.9334
  21058230.724   -24606984.845 9 -19160324.12247  21058230.241    21058237.0294
  23888471.992    16447928.775 7  12938063.98745  23888471.395    23888482.2604
  21739140.434   -15804315.498 9 -12288236.99347  21739140.296    21739148.9364
  23841261.783    -9678035.825 8  -7025311.86545  23841262.018    23841273.1184
 00  4 13 19  5  0.0000000  0  6 04 24 05 07 09 30
  21003580.040   -18403558.146 9 -14319102.66347  21003580.184    21003586.5254
  20296804.031   -26678573.510 9 -20759898.36748  20296803.845    20296811.2104
  21046962.585   -24666199.229 9 -19206465.16347  21046962.101    21046968.8714
  23901852.714    16518244.055 7  12992854.89745  23901852.101    23901863.1554
  21751051.222   -15741724.533 9 -12239464.93447  21751051.070    21751059.7154
  23822666.644    -9775753.278 8  -7101455.11945  23822666.871    23822677.9204
 00  4 13 19  5 30.0000000  0  6 04 24 05 07 09 30
  21014822.949   -18344476.374 9 -14273064.94447  21014823.091    21014829.4354
  20292167.435   -26702938.651 9 -20778884.16248  20292167.255    20292174.6324
  21035754.144   -24725099.859 9 -19252361.72847  21035753.661    21035760.4234
  23915241.573    16588602.390 7  13047679.33745  23915241.043    23915252.1824
  21763043.131   -15678707.220 9 -12190360.65947  21763042.979    21763051.6434
  23804077.638    -9873438.458 8  -7177573.24245  23804077.840    23804088.8244
 00  4 13 19  6  0.0000000  0  6 04 24 05 07 09 30
  21026151.438   -18284944.966 9 -14226676.85747  21026151.588    21026157.9024
  20287633.693   -26726763.376 9 -20797448.85448  20287633.514    20287640.9264
  21024605.692   -24783684.976 9 -19298012.43847  21024605.199    21024611.9644
  23928641.172    16659016.986 7  13102547.63245  23928640.527    23928651.8364
  21775113.810   -15615275.771 9 -12140933.67847  21775113.682    21775122.3684
  23785495.793    -9971086.019 8  -7253662.05645  23785495.994    23785506.9134
 00  4 13 19  6 30.0000000  0  7 10 04 24 05 07 09 30
  24585306.204    -3566512.198 7  -2766157.40845  24585305.419    24585332.3574
  21037563.740   -18224973.048 9 -14179945.51547  21037563.878    21037570.1914
  20283204.625   -26750038.005 9 -20815584.89848  20283204.460    20283211.8694
  21013516.831   -24841957.253 9 -19343419.38347  21013516.336    21013523.1154
  23942050.017    16729480.083 7  13157453.70545  23942049.313    23942060.6994
  21787262.818   -15551432.732 9 -12091185.98347  21787262.702    21787271.4164
  23766924.593   -10068677.765 8  -7329707.38845  23766924.870    23766935.6374
 00  4 13 19  7  0.0000000  0  7 10 04 24 05 07 09 30
  24566872.096    -3663380.893 7  -2841638.92545  24566871.190    24566898.2174
  21049068.562   -18164514.881 9 -14132835.28147  21049068.723    21049075.0044
  20278887.803   -26772723.043 9 -20833261.52348  20278887.638    20278895.0344
  21002496.841   -24899867.387 9 -19388544.13647  21002496.364    21002503.0994
  23955472.932    16800017.389 7  13212417.60345  23955472.281    23955483.7274
  21799499.451   -15487129.316 9 -12041079.55447  21799499.311    21799508.0264
  23748372.247   -10166170.357 8  -7405675.45745  23748372.534    23748383.1664
 00  4 13 19  7 30.0000000  0  7 10 04 24 05 07 09 30
  24548424.048    -3760323.291 7  -2917177.86245  24548423.121    24548450.0104
  21060652.829   -18103639.027 9 -14085399.57947  21060652.993    21060659.2804
  20274670.428   -26794885.506 9 -20850530.95148  20274670.258    20274677.5964
  20991530.775   -24957494.332 9 -19433448.22547  20991530.286    20991537.0194
  23968895.194    16870551.153 7  13267378.73445  23968894.609    23968906.2074
  21811810.819   -15422432.841 9 -11990666.84647  21811810.687    21811819.4534
  23729827.500   -10263622.732 8  -7481612.18945  23729827.782    23729838.3324
 00  4 13 19  8  0.0000000  0  7 10 04 24 05 07 09 30
  24529963.974    -3857329.183 7  -2992766.28045  24529963.342    24529989.7964
  21072318.188   -18042337.249 9 -14037631.98047  21072318.358    21072324.6384
  20270554.400   -26816515.328 9 -20867385.32848  20270554.217    20270561.5314
  20980618.175   -25014840.419 9 -19478133.45947  20980617.681    20980624.3934
  23982314.570    16941069.339 7  13322327.72845  23982313.909    23982325.5734
  21824196.448   -15357346.316 8 -11939950.20447  21824196.333    21824205.1264
  23711294.954   -10361010.628 8  -7557498.66745  23711295.332    23711305.8704
 00  4 13 19  8 30.0000000  0  7 10 04 24 05 07 09 30
  24511489.288    -3954412.297 7  -3068414.87945  24511488.580    24511514.9184
  21084066.265   -17980600.602 9 -13989525.52347  21084066.455    21084072.7354
  20266541.624   -26837602.417 9 -20883816.79948  20266541.445    20266548.7504
  20969760.109   -25071899.755 9 -19522595.25647  20969759.608    20969766.3194
  23995729.286    17011563.003 7  13377257.61045  23995728.613    23995740.2654
  21836657.903   -15291861.302 8 -11888923.05647  21836657.766    21836666.6224
  23692776.850   -10458323.397 8  -7633326.62245  23692777.172    23692787.7384
 00  4 13 19  9  0.0000000  0  7 10 04 24 05 07 09 30
  24493002.460    -4051558.707 7  -3144112.78845  24493001.728    24493027.5624
  21095898.925   -17918419.802 9 -13941072.97947  21095899.113    21095905.3944
  20262634.116   -26858136.390 9 -20899817.27248  20262633.960    20262641.2384
  20958958.405   -25128663.053 9 -19566826.37447  20958957.935    20958964.6364
  24009143.033    17082051.470 7  13432183.43945  24009142.356    24009154.0024
  21849194.910   -15225979.552 8 -11837586.76647  21849194.767    21849203.6454
  23674273.713   -10555557.691 8  -7709093.42145  23674273.981    23674284.4704
 00  4 13 19  9 30.0000000  0  7 10 04 24 05 07 09 30
  24474504.967    -4148761.587 7  -3219854.69644  24474504.074    24474529.7824
  21107814.753   -17855801.848 9 -13892279.79047  21107814.934    21107821.2174
  20258832.475   -26878114.122 9 -20915384.30648  20258832.322    20258839.5894
  20948213.088   -25185130.218 9 -19610826.73647  20948212.594    20948219.2534
  24022560.783    17152560.775 8  13487125.50045  24022560.087    24022571.7544
  21861807.283   -15159701.712 8 -11785941.84047  21861807.146    21861816.0364
  23655785.770   -10652711.805 8  -7784797.73945  23655785.990    23655796.4464
 00  4 13 19 10  0.0000000  0  7 10 04 24 05 07 09 30
  24455996.844    -4246020.295 7  -3295640.10344  24455996.078    24456021.6494
  21119812.284   -17792754.706 9 -13843152.17747  21119812.448    21119818.7614
  20255135.505   -26897541.825 9 -20930522.75348  20255135.332    20255142.6064
  20937526.888   -25241286.532 9 -19654584.88047  20937526.392    20937533.0684
  24035981.602    17223086.495 7  13542080.36745  24035980.907    24035992.6014
  21874496.101   -15093021.925 8 -11733983.71147  21874495.951    21874504.8644
  23637310.119   -10749801.051 8  -7860451.50345  23637310.411    23637320.7264
 00  4 13 19 10 30.0000000  0  7 10 04 24 05 07 09 30
  24437480.835    -4343320.241 7  -3371457.61844  24437480.115    24437505.4994
  21131891.170   -17729279.977 9 -13793691.36747  21131891.336    21131897.6484
  20251542.252   -26916424.387 9 -20945236.41248  20251542.069    20251549.3404
  20926901.851   -25297121.483 9 -19698092.60947  20926901.338    20926908.0234
  24049405.394    17293628.157 7  13597047.64045  24049404.624    24049416.4554
  21887262.980   -15025932.337 8 -11681706.25547  21887262.813    21887271.7234
  23618843.876   -10846840.979 8  -7936066.84245  23618844.115    23618854.5014
 00  4 13 19 11  0.0000000  0  7 10 04 24 05 07 09 30
  24418959.534    -4440648.573 7  -3447297.25745  24418958.967    24418984.0794
  21144050.933   -17665380.247 9 -13743899.39447  21144051.078    21144057.4194
  20248051.751   -26934766.823 9 -20959529.19548  20248051.576    20248058.8714
  20916337.177   -25352639.118 9 -19741353.07847  20916336.652    20916343.3444
  24062835.315    17364201.658 7  13652039.72745  24062834.546    24062846.2724
  21900106.942   -14958437.543 8 -11629113.05547  21900106.771    21900115.6434
  23600385.569   -10943839.405 8  -8011649.83845  23600385.873    23600396.0924
 00  4 13 19 11 30.0000000  0  7 10 04 24 05 07 09 30
  24400430.524    -4538017.253 7  -3523168.36945  24400429.884    24400454.8774
  21156290.560   -17601060.692 9 -13693780.28447  21156290.715    21156297.0494
  20244661.250   -26952584.017 9 -20973412.69948  20244661.063    20244668.3524
  20905831.941   -25407844.331 9 -19784370.10247  20905831.424    20905838.1344
  24076270.922    17434805.326 7  13707055.32945  24076270.165    24076281.8764
  21913028.822   -14890533.181 8 -11576200.71547  21913028.646    21913037.5604
  23581934.133   -11040801.838 8  -8087204.77745  23581934.397    23581944.5544
 00  4 13 19 12  0.0000000  0  7 10 04 24 05 07 09 30
  24381892.560    -4635432.946 7  -3599076.07845  24381891.878    24381916.7714
  21168611.150   -17536315.558 9 -13643329.55947  21168611.315    21168617.6374
  20241371.617   -26969871.111 9 -20986883.13948  20241371.430    20241378.7084
  20895385.090   -25462742.885 9 -19827148.17247  20895384.566    20895391.2904
  24089710.271    17505428.440 7  13762086.07645  24089709.521    24089721.1764
  21926026.201   -14822232.127 8 -11522979.27147  21926026.028    21926034.9814
  23563490.057   -11137725.347 8  -8162729.39345  23563490.256    23563500.4244
 00  4 13 19 12 30.0000000  0  7 10 04 24 05 07 09 30
  24363345.570    -4732895.655 7  -3675020.46845  24363344.858    24363369.6124
  21181013.184   -17471142.523 9 -13592545.40747  21181013.339    21181019.6644
  20238184.648   -26986618.588 9 -20999933.09748  20238184.457    20238191.7544
  20884996.634   -25517334.380 9 -19869686.97747  20884996.098    20885002.8404
  24103156.998    17576090.681 7  13817147.29945  24103156.152    24103167.9194
  21939096.439   -14753548.076 8 -11469459.38547  21939096.270    21939105.2794
  23545056.221   -11234594.740 8  -8238211.83645  23545056.467    23545066.6944
 00  4 13 19 13  0.0000000  0  7 10 04 24 05 07 09 30
  24344787.763    -4830415.756 7  -3751009.56445  24344786.965    24344811.5424
  21193494.879   -17405550.923 9 -13541435.10147  21193495.029    21193501.3544
  20235099.155   -27002832.607 9 -21012567.37248  20235098.992    20235106.2864
  20874666.861   -25571617.587 9 -19911985.55347  20874666.339    20874673.0864
  24116611.721    17646795.163 7  13872241.44645  24116611.076    24116622.7714
  21952237.872   -14684489.969 8 -11415648.02947  21952237.702    21952246.7524
  23526635.997   -11331393.280 8  -8313639.06045  23526636.159    23526646.3534
 00  4 13 19 13 30.0000000  0  7 10 04 24 05 07 09 30
  24326217.550    -4928000.861 7  -3827049.31645  24326216.722    24326241.1874
  21206054.945   -17339547.418 9 -13490003.82747  21206055.113    21206061.4254
  20232117.378   -27018502.063 9 -21024777.30848  20232117.217    20232124.4824
  20864397.270   -25625584.492 9 -19954037.66347  20864396.749    20864403.4934
  24130070.338    17717519.696 7  13927351.21545  24130069.660    24130081.5404
  21965450.410   -14615058.367 8 -11361545.63547  21965450.225    21965459.2944
  23508230.902   -11428112.003 8  -8389004.09645  23508231.061    23508241.1324
 00  4 13 19 14  0.0000000  0  7 10 04 24 05 07 09 30
  24307638.477    -5025632.382 7  -3903125.24345  24307637.683    24307661.9194
  21218694.910   -17273124.087 9 -13438245.42247  21218695.093    21218701.4054
  20229243.141   -27033606.358 9 -21036546.86348  20229242.976    20229250.2254
  20854189.566   -25679226.383 9 -19995836.51647  20854189.055    20854195.8024
  24143532.522    17788262.872 7  13982475.51945  24143531.880    24143543.6904
  21978733.489   -14545255.743 8 -11307154.13647  21978733.299    21978742.4044
  23489842.776   -11524741.596 8  -8464299.67945  23489842.890    23489852.9474
 00  4 13 19 14 30.0000000  0  7 10 04 24 05 07 09 30
  24289053.517    -5123295.014 7  -3979225.40845  24289052.730    24289076.7014
  21231414.980   -17206279.727 9 -13386158.94047  21231415.177    21231421.4904
  20226476.248   -27048146.223 9 -21047876.60348  20226476.072    20226483.3264
  20844045.536   -25732533.522 9 -20037374.52447  20844045.018    20844051.7844
  24156999.580    17859032.205 7  14037620.19045  24156998.838    24157010.8414
  21992088.810   -14475073.659 8 -11252466.95547  21992088.644    21992097.7484
  23471472.487   -11621277.161 8  -8539522.00445  23471472.638    23471482.6774
 00  4 13 19 15  0.0000000  0  7 10 04 24 05 07 09 30
  24270463.444    -5220984.429 8  -4055346.42545  24270462.629    24270486.3504
  21244216.667   -17139006.604 9 -13333738.35147  21244216.835    21244223.1764
  20223815.988   -27062126.040 9 -21058769.93548  20223815.824    20223823.0374
  20833964.497   -25785509.714 9 -20078654.65147  20833964.007    20833970.7684
  24170470.723    17929822.587 7  14092781.26245  24170470.071    24170482.1364
  22005516.983   -14404508.817 8 -11197481.52147  22005516.807    22005525.9734
  23453120.085   -11717719.121 8  -8614671.39545  23453120.233    23453130.2134
 00  4 13 19 15 30.0000000  0  7 10 04 24 05 07 09 30
  24251871.810    -5318681.610 7  -4131473.49445  24251871.060    24251894.7694
  21257100.970   -17071299.171 9 -13280979.34647  21257101.145    21257107.5004
  20221262.519   -27075544.679 9 -21069225.99048  20221262.332    20221269.5424
  20823945.994   -25838157.153 9 -20119678.60847  20823945.473    20823952.2154
  24183947.407    18000642.266 7  14147965.14445  24183946.772    24183959.0414
  22019015.865   -14333572.114 8 -11142206.33347  22019015.692    22019024.9454
  23434784.163   -11814074.296 8  -8689753.16445  23434784.307    23434794.2264
 00  4 13 19 16  0.0000000  0  7 10 04 24 05 07 09 30
  24233281.600    -5416371.501 7  -4207594.88245  24233280.869    24233304.4414
  21270065.545   -17003169.907 9 -13227891.64847  21270065.730    21270072.1004
  20218811.262   -27088425.896 9 -21079263.27548  20218811.078    20218818.2764
  20813990.684   -25890472.570 9 -20160443.84547  20813990.175    20813996.9144
  24197431.687    18071501.703 7  14203180.02845  24197430.996    24197443.3604
  22032584.491   -14262268.954 8 -11086645.59947  22032584.329    22032593.6224
  23416464.621   -11910343.409 8  -8764767.87145  23416464.769    23416474.6134
 00  4 13 19 16 30.0000000  0  7 10 04 24 05 07 09 30
  24214690.018    -5514068.683 7  -4283721.93545  24214689.221    24214712.7084
  21283104.738   -16934648.617 9 -13174498.47347  21283104.903    21283111.2874
  20216457.698   -27100793.809 9 -21088900.57648  20216457.528    20216464.7084
  20804097.703   -25942460.293 9 -20200953.73547  20804097.203    20804103.9644
  24210921.894    18142392.014 7  14258418.95345  24210921.228    24210933.7274
  22046221.475   -14190606.928 8 -11030805.22647  22046221.328    22046230.6284
  23398160.799   -12006530.001 8  -8839718.27745  23398160.971    23398170.7004
 00  4 13 19 17  0.0000000  0  7 10 04 24 05 07 09 30
  24196095.473    -5611781.073 7  -4359860.86745  24196094.673    24196118.2444
  21296215.233   -16865752.639 9 -13120813.34047  21296215.417    21296221.7994
  20214200.042   -27112657.657 9 -21098145.10848  20214199.871    20214207.0404
  20794266.292   -25994124.639 9 -20241211.64647  20794265.799    20794272.5604
  24224414.122    18213292.346 7  14313665.67545  24224413.397    24224425.9834
  22059924.673   -14118596.626 8 -10974693.47147  22059924.522    22059933.8624
  23379872.487   -12102634.849 8  -8914604.99545  23379872.671    23379882.3254
 00  4 13 19 17 30.0000000  0  7 10 04 24 05 07 09 30
  24177498.393    -5709506.768 7  -4436010.16745  24177497.547    24177521.0034
  21309394.082   -16796497.538 9 -13066848.36547  21309394.243    21309400.6594
  20212038.939   -27124014.194 9 -21106994.32648  20212038.767    20212045.9294
  20784496.595   -26045464.503 9 -20281216.70947  20784496.103    20784502.8734
  24237904.501    18284183.246 8  14368905.06245  24237903.817    24237916.2714
  22073693.515   -14046241.525 8 -10918313.03847  22073693.400    22073702.8044
  23361599.638   -12198658.423 8  -8989428.38845  23361599.851    23361609.4484
 00  4 13 19 18  0.0000000  0  7 10 04 24 05 07 09 30
  24158896.202    -5807258.749 7  -4512179.96245  24158895.356    24158918.8204
  21322640.766   -16726885.873 9 -13012605.54947  21322640.913    21322647.3434
  20209975.400   -27134858.172 9 -21115444.14848  20209975.225    20209982.3804
  20774789.251   -26096476.752 9 -20320966.48847  20774788.773    20774795.5284
  24251391.843    18355058.054 7  14424131.91845  24251391.131    24251403.7314
  22087530.013   -13973531.021 8 -10861655.67747  22087529.901    22087539.3334
  23343343.785   -12294592.720 8  -9064182.20146  23343344.000    23343353.6084
 00  4 13 19 18 30.0000000  0  7 10 04 24 05 07 09 30
  24140289.046    -5905036.532 7  -4588369.85145  24140288.237    24140311.7954
  21335958.443   -16656901.124 9 -12958072.02347  21335958.623    21335965.0484
  20208012.697   -27145172.078 9 -21123480.92748  20208012.524    20208019.6734
  20765143.768   -26147163.888 9 -20360462.93647  20765143.291    20765150.0264
  24264876.269    18425918.286 7  14479347.41245  24264875.586    24264888.2004
  22101432.947   -13900471.553 8 -10804726.39347  22101432.836    22101442.2484
  23325105.275   -12390435.637 8  -9138864.83146  23325105.506    23325115.1184
 00  4 13 19 19  0.0000000  0  8 10 04 24 05 07 06 09 30
  24121676.852    -6002840.488 7  -4664580.13045  24121676.013    24121699.7694
  21349346.715   -16586545.272 9 -12903249.32347  21349346.905    21349353.3634
  20206150.747   -27154956.490 9 -21131105.11348  20206150.573    20206157.7324
  20755559.192   -26197531.204 9 -20399710.17247  20755558.716    20755565.4284
  24278355.172    18496749.505 7  14534540.29745  24278354.504    24278367.2134
  24856111.667    -3125871.544 7  -2418736.22545  24856111.562    24856130.2944
  22115398.662   -13827082.204 8 -10747540.05847  22115398.538    22115407.9434
  23306881.654   -12486200.736 8  -9213486.80746  23306881.872    23306891.4304
 00  4 13 19 19 30.0000000  0  8 10 04 24 05 07 06 09 30
  24103065.059    -6100643.491 7  -4740789.68645  24103064.187    24103087.9544
  21362811.789   -16515786.068 9 -12848112.33347  21362811.953    21362818.4294
  20204395.708   -27164178.951 9 -21138291.42148  20204395.548    20204402.6944
  20746040.790   -26247550.758 9 -20438686.43047  20746040.315    20746047.0184
  24291838.277    18567602.599 7  14589750.22445  24291837.560    24291850.4254
  24842119.141    -3199402.072 7  -2476032.42245  24842119.059    24842137.7194
  22129433.088   -13753331.719 8 -10690072.32847  22129432.932    22129442.3684
  23288678.087   -12581860.311 8  -9288026.56846  23288678.374    23288687.8484
 00  4 13 19 20  0.0000000  0  8 10 04 24 05 07 06 09 30
  24084454.587    -6198438.495 7  -4816992.99745  24084453.771    24084477.5964
  21376353.397   -16444624.589 9 -12792661.87947  21376353.549    21376360.0704
  20202745.614   -27172850.350 9 -21145048.32748  20202745.430    20202752.5774
  20736589.122   -26297219.714 9 -20477389.49047  20736588.628    20736595.3364
  24305330.422    18638503.405 7  14644997.30445  24305329.680    24305342.6564
  24828144.290    -3272839.119 7  -2533255.75545  24828144.164    24828162.9374
  22143536.331   -13679219.178 8 -10632322.47647  22143536.169    22143545.6414
  23270495.784   -12677408.081 8  -9362479.20646  23270496.101    23270505.5894
 00  4 13 19 20 30.0000000  0  8 10 04 24 05 07 06 09 30
  24065845.223    -6296228.249 7  -4893192.22345  24065844.553    24065868.2834
  21389967.890   -16373080.111 8 -12736912.98647  21389968.053    21389974.5914
  20201197.990   -27180983.028 9 -21151385.45248  20201197.812    20201204.9674
  20727203.502   -26346541.268 9 -20515821.84847  20727203.016    20727209.6944
  24318829.464    18709440.435 7  14700272.62545  24318828.675    24318841.7414
  24814184.696    -3346195.539 7  -2590416.26945  24814184.539    24814203.4204
  22157705.439   -13604760.683 8 -10574303.04847  22157705.260    22157714.7954
  23252333.288   -12772852.489 8  -9436851.30846  23252333.585    23252342.8874
 00  4 13 19 21  0.0000000  0  8 10 04 24 05 07 06 09 30
  24047235.112    -6394022.810 7  -4969395.22945  24047234.378    24047257.9734
  21403652.900   -16301165.055 8 -12680875.32947  21403653.039    21403659.6094
  20199751.634   -27188583.703 9 -21157308.03048  20199751.453    20199758.5934
  20717883.301   -26395519.043 9 -20553986.32647  20717882.838    20717889.4874
  24332335.611    18780414.418 7  14755576.72945  24332334.814    24332347.8574
  24800238.381    -3419482.305 7  -2647522.49945  24800238.254    24800256.9704
  22171940.438   -13529955.870 8 -10516013.75947  22171940.275    22171949.8694
  23234190.162   -12868194.604 8  -9511143.70246  23234190.455    23234199.7644
 00  4 13 19 21 30.0000000  0  8 10 04 24 05 07 06 09 30
  24028622.952    -6491827.779 7  -5045606.30545  24028622.222    24028645.7034
  21417407.828   -16228882.539 8 -12624551.34647  21417407.997    21417414.5834
  20198403.930   -27195665.808 9 -21162826.52848  20198403.746    20198410.8714
  20708628.321   -26444154.315 9 -20591883.92147  20708627.835    20708634.4644
  24345850.353    18851433.418 7  14810915.89745  24345849.588    24345862.6674
  24786302.656    -3492714.092 7  -2704585.87845  24786302.490    24786321.1694
  22186239.865   -13454812.337 8 -10457460.54447  22186239.706    22186249.3644
  23216066.596   -12963433.963 8  -9585356.01346  23216066.871    23216076.1084
 00  4 13 19 22  0.0000000  0  8 10 04 24 05 07 06 09 30
  24010010.457    -6589635.086 7  -5121819.22045  24010009.648    24010032.9494
  21431231.406   -16156239.372 8 -12567946.34047  21431231.577    21431238.1734
  20197155.483   -27202226.111 9 -21167938.43048  20197155.310    20197162.4394
  20699440.166   -26492438.290 9 -20629507.78147  20699439.676    20699446.2984
  24359369.701    18922476.677 7  14866273.97745  24359368.959    24359382.0244
  24772373.098    -3565913.240 7  -2761623.83445  24772372.954    24772391.3634
  22200602.487   -13379337.107 8 -10398648.86247  22200602.333    22200612.0304
  23197960.467   -13058581.655 8  -9659496.91246  23197960.736    23197969.9854
 00  4 13 19 22 30.0000000  0  8 10 04 24 05 07 06 09 30
  23991399.913    -6687432.083 7  -5198024.09045  23991399.021    23991422.1424
  21445125.517   -16083225.462 9 -12511052.43947  21445125.678    21445132.2754
  20196009.977   -27208245.687 9 -21172628.98448  20196009.813    20196016.9344
  20690321.082   -26540359.300 9 -20666848.80847  20690320.619    20690327.2004
  24372892.605    18993538.727 8  14921646.69845  24372891.987    24372904.8974
  24758452.356    -3639066.027 7  -2818625.64745  24758452.101    24758470.5694
  22215027.327   -13303534.672 8 -10339582.21447  22215027.147    22215036.9284
  23179871.956   -13153636.825 8  -9733565.70246  23179872.208    23179881.4554
 00  4 13 19 23  0.0000000  0  8 10 04 24 05 07 06 09 30
  23972795.297    -6785197.905 7  -5274204.68445  23972794.500    23972817.3734
  21459093.269   -16009824.815 8 -12453857.18947  21459093.419    21459100.0044
  20194968.706   -27213717.474 9 -21176892.69248  20194968.554    20194975.6764
  20681272.237   -26587911.302 9 -20703902.30147  20681271.774    20681278.3184
  24386420.410    19064626.416 7  14977039.39945  24386419.742    24386432.7354
  24744541.383    -3712167.107 7  -2875587.14345  24744541.201    24744559.5424
  22229514.926   -13227402.654 8 -10280258.75147  22229514.737    22229524.5864
  23161801.233   -13248598.498 8  -9807561.65646  23161801.469    23161810.6634
 00  4 13 19 23 30.0000000  0  8 10 04 24 05 07 06 09 30
  23954200.466    -6882912.258 7  -5350345.14545  23954199.694    23954222.2984
  21473133.380   -15936043.725 8 -12396365.49147  21473133.539    21473140.0924
  20194032.008   -27218639.757 9 -21180728.21648  20194031.853    20194038.9674
  20672296.081   -26635081.350 9 -20740658.16747  20672295.608    20672302.1134
  24399950.973    19135728.639 7  15032443.42645  24399950.226    24399963.4294
  24730639.874    -3785218.496 7  -2932509.92045  24730639.645    24730658.1424
  22244063.889   -13150947.659 8 -10220683.62247  22244063.715    22244073.6404
  23143748.528   -13343465.361 8  -9881483.72246  23143748.716    23143757.9654
 00  4 13 19 24  0.0000000  0  8 10 04 24 05 07 06 09 30
  23935618.654    -6980558.661 7  -5426432.66645  23935617.937    23935640.2764
  21487246.107   -15861881.160 8 -12338576.53747  21487246.289    21487252.8344
  20193201.378   -27223004.670 9 -21184129.42448  20193201.218    20193208.3084
  20663393.205   -26681866.216 9 -20777113.89447  20663392.731    20663399.2434
  24413483.662    19206842.613 7  15087856.61045  24413482.907    24413496.3374
  24716749.818    -3858209.796 7  -2989385.87845  24716749.561    24716768.1504
  22258674.900   -13074166.462 8 -10160854.31547  22258674.760    22258684.7634
  23125714.875   -13438232.017 8  -9955327.70946  23125715.101    23125724.2654
 00  4 13 19 24 30.0000000  0  8 10 04 24 05 07 06 09 30
  23917049.809    -7078136.759 7  -5502466.95245  23917049.123    23917071.1044
  21501432.119   -15787333.457 8 -12280487.47247  21501432.298    21501438.8614
  20192474.424   -27226824.849 9 -21187106.16448  20192474.251    20192481.3324
  20654563.527   -26728266.466 9 -20813269.91947  20654563.044    20654569.5634
  24427020.365    19277977.519 7  15143286.10445  24427019.566    24427033.1564
  24702872.515    -3931133.712 7  -3046209.32245  24702872.388    24702890.8064
  22273345.719   -12997071.597 8 -10100780.58947  22273345.563    22273355.5814
  23107703.989   -13532879.172 8 -10029078.58446  23107704.249    23107713.3554
 00  4 13 19 25  0.0000000  0  8 10 04 24 05 07 06 09 30
  23898491.935    -7175657.376 7  -5578456.43345  23898491.250    23898512.8544
  21515687.897   -15712419.051 8 -12222112.67047  21515688.069    21515694.6464
  20191849.124   -27230110.477 9 -21189666.37248  20191848.954    20191856.0474
  20645806.872   -26774282.894 9 -20849126.86747  20645806.386    20645812.9074
  24440559.139    19349123.465 7  15198724.19745  24440558.523    24440572.0734
  24689004.623    -4004009.211 7  -3102995.02645  24689004.428    24689022.6534
  22288076.788   -12919660.589 8 -10040460.52647  22288076.605    22288086.6104
  23089718.235   -13627394.292 8 -10102726.57846  23089718.521    23089727.5694
 00  4 13 19 25 30.0000000  0  8 10 04 24 05 07 06 09 30
  23879944.006    -7273125.639 7  -5654405.12145  23879943.330    23879964.8164
  21530009.755   -15637157.610 8 -12163467.45347  21530009.914    21530016.5064
  20191323.394   -27232873.155 9 -21191819.09148  20191323.218    20191330.3224
  20637122.381   -26819920.454 9 -20884688.59147  20637121.888    20637128.4094
  24454101.131    19420286.236 7  15254175.40345  24454100.677    24454114.2124
  24675147.371    -4076828.010 7  -3159736.54745  24675147.322    24675165.2864
  22302868.482   -12841930.952 8  -9979892.17947  22302868.275    22302878.3104
  23071760.323   -13721762.987 8 -10176260.48146  23071760.613    23071769.6574
 00  4 13 19 26  0.0000000  0  8 10 04 24 05 07 06 09 30
  23861403.316    -7370555.796 8  -5730324.12645  23861402.655    23861423.9804
  21544395.305   -15561561.249 8 -12104561.25847  21544395.455    21544402.0724
  20190894.474   -27235126.948 9 -21193575.27248  20190894.305    20190901.4024
  20628507.019   -26865194.538 9 -20919967.08447  20628506.512    20628513.0344
  24467646.386    19491465.528 7  15309639.46945  24467645.900    24467659.3974
  24661300.852    -4149590.674 7  -3216434.32045  24661300.638    24661318.7114
  22317720.484   -12763883.857 8  -9919076.46647  22317720.293    22317730.3954
  23053830.006   -13815986.760 8 -10249681.45946  23053830.316    23053839.3004
 00  4 13 19 26 30.0000000  0  8 10 04 24 05 07 06 09 30
  23842867.808    -7467958.488 8  -5806221.72145  23842867.078    23842888.1994
  21558840.104   -15485653.775 8 -12045412.63347  21558840.215    21558846.8654
  20190562.009   -27236874.203 9 -21194936.75348  20190561.825    20190568.9224
  20619958.867   -26910115.290 9 -20954970.25547  20619958.370    20619964.8854
  24481192.970    19562651.334 7  15365108.61344  24481192.573    24481205.7034
  24647464.623    -4222298.806 7  -3273089.61545  24647464.506    24647482.4604
  22332631.452   -12685527.056 8  -9858019.42347  22332631.271    22332641.4054
  23035929.202   -13910055.706 8 -10322981.78746  23035929.538    23035938.4364
 00  4 13 19 27  0.0000000  0  8 10 04 24 05 07 06 09 30
  23824337.648    -7565332.890 8  -5882097.27545  23824336.886    23824357.8264
  21573341.342   -15409449.546 8 -11986032.77147  21573341.427    21573348.1124
  20190326.856   -27238110.128 9 -21195899.79548  20190326.678    20190333.7784
  20611477.249   -26954686.321 9 -20989700.91647  20611476.742    20611483.2704
  24494740.280    19633841.783 7  15420581.38744  24494739.654    24494752.6764
  24633638.418    -4294953.905 7  -3329703.58645  24633638.338    24633656.1984
  22347604.034   -12606846.314 8  -9796709.96547  22347603.865    22347614.0284
  23018056.644   -14003976.136 8 -10396166.38446  23018056.941    23018065.7694
 00  4 13 19 27 30.0000000  0  8 10 04 24 05 07 06 09 30
  23805813.697    -7662674.767 7  -5957947.49345  23805812.930    23805833.7174
  21587900.911   -15332938.681 8 -11926413.96647  21587901.007    21587907.7084
  20190187.650   -27238841.599 9 -21196469.75748  20190187.464    20190194.5584
  20603062.141   -26998908.102 9 -21024159.43247  20603061.637    20603068.1724
  24508289.922    19705044.878 7  15476064.00544  24508289.055    24508302.5184
  24619823.023    -4367552.420 7  -3386273.47045  24619822.772    24619840.7534
  22362635.957   -12527853.732 8  -9735157.50247  22362635.779    22362645.9884
  23000209.691   -14097762.092 8 -10469246.22346  23000209.956    23000218.6854
 00  4 13 19 28  0.0000000  0  8 10 04 24 05 07 06 09 30
  23787294.361    -7759992.122 8  -6033778.61345  23787293.620    23787314.1204
  21602522.315   -15256102.928 8 -11866542.00947  21602522.405    21602529.1274
  20190147.307   -27239053.782 9 -21196635.08248  20190147.122    20190154.2054
  20594713.465   -27042780.591 9 -21058345.77647  20594712.937    20594719.5134
  24521841.435    19776257.156 7  15531553.78044  24521840.562    24521854.4314
  24606015.859    -4440107.728 7  -3442809.68645  24606015.660    24606033.6674
  22377724.655   -12448563.140 8  -9673372.83147  22377724.453    22377734.7034
  22982386.725   -14191421.985 8 -10542227.81646  22982386.935    22982395.6394
 00  4 13 19 28 30.0000000  0  8 10 04 24 05 07 06 09 30
  23768781.041    -7857278.377 8  -6109585.50245  23768780.187    23768800.5594
  21617208.484   -15178926.821 8 -11806404.83947  21617208.588    21617215.3014
  20190208.134   -27238734.194 9 -21196386.03548  20190207.930    20190214.9984
  20586432.586   -27086296.907 9 -21092254.57947  20586432.070    20586438.6434
  24535395.931    19847485.392 7  15587055.97144  24535395.169    24535408.9434
  24592216.545    -4512622.089 7  -3499314.00545  24592216.393    24592234.3124
  22392869.978   -12368974.827 8  -9611356.17047  22392869.779    22392880.0964
  22964588.106   -14284954.257 8 -10615109.95146  22964588.276    22964596.8534
 00  4 13 19 29  0.0000000  0  8 10 04 24 05 07 06 09 30
  23750275.766    -7954522.177 8  -6185359.32145  23750274.928    23750295.1204
  21631963.697   -15101388.018 8 -11745985.05047  21631963.783    21631970.4974
  20190370.417   -27237881.388 9 -21195721.49948  20190370.218    20190377.2444
  20578221.239   -27129447.730 9 -21125878.58647  20578220.724    20578227.3184
  24548956.259    19918744.268 7  15642582.04644  24548955.331    24548969.2874
  24578426.463    -4585088.680 7  -3555781.12345  24578426.269    24578443.9204
  22408071.956   -12289088.760 8  -9549107.49847  22408071.754    22408082.1464
  22946810.059   -14378377.928 8 -10687907.47846  22946810.184    22946818.7474
 00  4 13 19 29 30.0000000  0  8 10 04 24 05 07 06 09 30
  23731780.382    -8051713.798 8  -6261092.49145  23731779.522    23731799.6474
  21646788.530   -15023483.317 8 -11685280.14947  21646788.630    21646795.3494
  20190635.943   -27236486.019 9 -21194634.18648  20190635.734    20190642.7994
  20570080.074   -27172229.677 9 -21159215.15147  20570079.570    20570086.1554
  24562522.076    19990031.834 7  15698130.47645  24562521.270    24562534.9064
  24564646.769    -4657500.721 7  -3612205.74045  24564646.560    24564663.9204
  22423326.769   -12208925.439 8  -9486642.78447  22423326.554    22423336.9904
  22929054.123   -14471685.222 8 -10760614.30646  22929054.276    22929062.7984
 00  4 13 19 30  0.0000000  0  8 10 04 24 05 07 06 09 30
  23713298.061    -8148836.434 8  -6336771.92845  23713297.208    23713317.2334
  21661680.514   -14945225.607 8 -11624300.17347  21661680.610    21661687.3214
  20191008.257   -27234529.658 9 -21193109.74448  20191008.036    20191015.0844
  20562011.126   -27214632.348 9 -21192256.18547  20562010.606    20562017.1774
  24576091.647    20061339.799 7  15753694.80745  24576090.916    24576104.8094
  24550879.012    -4729849.277 7  -3668580.89645  24550878.761    24550896.0534
  22438635.394   -12128478.944 8  -9423957.42046  22438635.186    22438645.6444
  22911321.450   -14564870.471 8 -10833226.04446  22911321.602    22911330.0904
 00  4 13 19 30 30.0000000  0  8 10 04 24 05 07 06 09 30
  23694832.373    -8245871.896 8  -6412383.44845  23694831.541    23694851.3954
  21676636.228   -14866632.850 8 -11563059.12447  21676636.347    21676643.0594
  20191485.534   -27232021.192 9 -21191155.08548  20191485.326    20191492.3804
  20554020.577   -27256622.900 9 -21224976.07847  20554020.088    20554026.6464
  24589666.773    20132676.608 7  15809281.60045  24589665.928    24589679.8584
  24537125.589    -4802122.732 7  -3724897.54645  24537125.352    24537142.5814
  22453998.825   -12047744.356 8  -9361047.56146  22453998.590    22454009.1284
  22893613.655   -14657924.842 8 -10905735.80746  22893613.831    22893622.3244
 00  4 13 19 31  0.0000000  0  8 10 04 24 05 07 06 09 30
  23676384.427    -8342813.579 8  -6487921.90645  23676383.602    23676403.4824
  21691654.513   -14787711.301 8 -11501561.87147  21691654.630    21691661.3864
  20192067.346   -27228963.800 9 -21188772.69448  20192067.153    20192074.1944
  20546113.062   -27298177.171 9 -21257356.01647  20546112.552    20546119.1154
  24603246.861    20204038.455 7  15864887.90345  24603245.917    24603260.1024
  24523387.263    -4874316.578 7  -3781152.18045  24523387.093    24523404.1744
  22469416.693   -11966723.435 8  -9297914.59146  22469416.487    22469427.0554
  22875933.321   -14750835.000 8 -10978133.18346  22875933.490    22875941.9244
 00  4 13 19 31 30.0000000  0  8 10 04 24 05 07 06 09 30
  23657954.118    -8439663.447 8  -6563388.83145  23657953.221    23657973.0984
  21706734.792   -14708463.928 8 -11439810.72147  21706734.910    21706741.6934
  20192752.793   -27225361.686 9 -21185965.84448  20192752.588    20192759.6124
  20538289.954   -27339287.808 9 -21289390.26647  20538289.448    20538296.0044
  24616831.309    20275423.484 7  15920512.27745  24616830.422    24616844.7564
  24509662.750    -4946437.872 7  -3837350.27445  24509662.534    24509679.6704
  22484890.487   -11885408.905 8  -9234552.83146  22484890.294    22484900.8904
  22858284.123   -14843581.806 8 -11050403.29146  22858284.239    22858292.6264
 00  4 13 19 32  0.0000000  0  8 10 04 24 05 07 06 09 30
  23639540.726    -8536423.996 8  -6638786.18645  23639539.858    23639559.7204
  21721878.428   -14628883.833 8 -11377800.31347  21721878.556    21721885.3764
  20193539.127   -27221229.622 9 -21182746.04548  20193538.924    20193545.9334
  20530551.968   -27379951.062 9 -21321075.90247  20530551.465    20530558.0074
  24630421.073    20346836.911 7  15976158.76445  24630420.314    24630434.7974
  24495952.863    -5018482.577 7  -3893488.70745  24495952.655    24495969.6204
  22500421.840   -11803792.240 8  -9170955.65746  22500421.622    22500432.2774
  22840665.629   -14936166.984 8 -11122547.44846  22840665.806    22840674.1234
 00  4 13 19 32 30.0000000  0  8 10 04 24 05 07 06 09 30
  23621142.456    -8633104.991 8  -6714121.55645  23621141.615    23621161.3194
  21737086.396   -14548965.787 8 -11315526.56947  21737086.508    21737093.3664
  20194423.147   -27216583.821 9 -21179125.93048  20194422.932    20194429.9334
  20522895.447   -27420186.464 9 -21352428.14447  20522894.935    20522901.4784
  24644017.031    20418282.879 7  16031830.58345  24644016.303    24644030.8754
  24482256.801    -5090454.580 7  -3949570.49645  24482256.607    24482273.4514
  22516008.865   -11721882.758 8  -9107130.30746  22516008.651    22516019.4074
  22823079.550   -15028581.656 8 -11194558.74346  22823079.771    22823088.0774
 00  4 13 19 33  0.0000000  0  8 10 04 24 05 07 06 09 30
  23602758.956    -8729708.730 7  -6789396.75145  23602758.111    23602777.6734
  21752358.863   -14468708.657 8 -11252988.60147  21752358.975    21752365.8174
  20195405.830   -27211419.889 9 -21175102.07148  20195405.622    20195412.6034
  20515311.714   -27460039.116 9 -21383482.14147  20515311.176    20515317.7474
  24657617.020    20489749.532 7  16087518.54645  24657616.227    24657630.9024
  24468572.612    -5162363.753 7  -4005603.33045  24468572.381    24468589.3044
  22531649.576   -11639690.835 8  -9043084.87346  22531649.413    22531660.2284
  22805525.053   -15120830.793 8 -11266441.06846  22805525.243    22805533.5614
